Time,TemperatureF,DewpointF,PressureIn,WindDirection,WindDirectionDegrees,WindSpeedMPH,WindSpeedGustMPH,Humidity,HourlyPrecipIn,Conditions,Clouds,dailyrainin,SolarRadiationWatts/m^2,SoftwareType,DateUTC
2013-08-12 00:00:00,85.2,36.0,29.29,SSW,198,7.7,9.4,17,-99.99,,,0.00,0,rob ver 1B,2013-08-12 07:00:00,
2013-08-12 00:01:00,85.2,35.9,29.29,SSW,198,8.4,9.8,17,-99.99,,,0.00,0,rob ver 1B,2013-08-12 07:01:00,
2013-08-12 00:02:00,85.2,35.9,29.29,SSW,198,8.1,10.6,17,-99.99,,,0.00,0,rob ver 1B,2013-08-12 07:02:00,
2013-08-12 00:03:00,84.4,40.9,29.26,WSW,247,2.3,4.3,21,-99.99,,,0.00,0,rob ver 1A,2013-08-12 07:03:00,
2013-08-12 00:04:00,85.1,35.8,29.29,SSW,198,7.7,9.2,17,-99.99,,,0.00,0,rob ver 1B,2013-08-12 07:04:00,
2013-08-12 00:05:00,85.0,35.7,29.29,SSW,198,7.7,9.4,17,-99.99,,,0.00,0,rob ver 1B,2013-08-12 07:05:00,
2013-08-12 00:06:00,85.0,35.6,29.29,SSW,196,8.1,9.9,17,-99.99,,,0.00,0,rob ver 1B,2013-08-12 07:06:00,
2013-08-12 00:07:00,85.1,35.6,29.29,SSW,197,7.9,10.5,17,-99.99,,,0.00,0,rob ver 1B,2013-08-12 07:07:00,
2013-08-12 00:08:00,84.0,41.1,29.26,SW,221,1.4,2.0,21,-99.99,,,0.00,0,rob ver 1A,2013-08-12 07:08:00,
2013-08-12 00:09:00,85.0,35.3,29.29,SSW,196,7.9,9.8,16,-99.99,,,0.00,0,rob ver 1B,2013-08-12 07:09:00,
2013-08-12 00:10:00,85.0,35.2,29.29,SSW,195,7.3,9.4,16,-99.99,,,0.00,0,rob ver 1B,2013-08-12 07:10:00,
2013-08-12 00:11:00,85.0,35.1,29.29,SSW,196,8.2,10.7,16,-99.99,,,0.00,0,rob ver 1B,2013-08-12 07:11:00,
2013-08-12 00:12:00,85.0,35.0,29.29,SSW,194,8.7,10.2,16,-99.99,,,0.00,0,rob ver 1B,2013-08-12 07:12:00,
2013-08-12 00:13:00,83.9,41.4,29.26,West,271,1.8,2.8,22,-99.99,,,0.00,0,rob ver 1A,2013-08-12 07:13:00,
2013-08-12 00:14:00,85.2,34.5,29.29,South,191,8.2,10.1,16,-99.99,,,0.00,0,rob ver 1B,2013-08-12 07:14:00,
2013-08-12 00:15:00,85.2,34.6,29.29,South,191,7.1,9.7,16,-99.99,,,0.00,0,rob ver 1B,2013-08-12 07:15:00,
2013-08-12 00:16:00,85.2,34.6,29.29,South,190,6.8,9.9,16,-99.99,,,0.00,0,rob ver 1B,2013-08-12 07:16:00,
2013-08-12 00:17:00,85.2,34.5,29.29,SSW,193,7.0,9.2,16,-99.99,,,0.00,0,rob ver 1B,2013-08-12 07:17:00,
2013-08-12 00:18:00,83.7,42.0,29.26,SW,230,1.0,1.8,23,-99.99,,,0.00,0,rob ver 1A,2013-08-12 07:18:00,
2013-08-12 00:19:00,85.2,34.2,29.29,South,190,5.8,6.9,16,-99.99,,,0.00,0,rob ver 1B,2013-08-12 07:19:00,
2013-08-12 00:20:00,85.1,34.2,29.29,South,191,5.1,7.0,16,-99.99,,,0.00,0,rob ver 1B,2013-08-12 07:20:00,
2013-08-12 00:21:00,85.0,34.1,29.29,South,191,6.0,7.7,16,-99.99,,,0.00,0,rob ver 1B,2013-08-12 07:21:00,
2013-08-12 00:22:00,85.0,33.9,29.29,South,187,5.1,7.2,15,-99.99,,,0.00,0,rob ver 1B,2013-08-12 07:22:00,
2013-08-12 00:23:00,83.4,43.2,29.26,SSW,204,3.2,4.4,24,-99.99,,,0.00,0,rob ver 1A,2013-08-12 07:23:00,
2013-08-12 00:24:00,85.0,33.6,29.29,South,182,4.2,6.8,15,-99.99,,,0.00,0,rob ver 1B,2013-08-12 07:24:00,
2013-08-12 00:25:00,85.0,33.6,29.29,South,185,4.0,5.5,16,-99.99,,,0.00,0,rob ver 1B,2013-08-12 07:25:00,
2013-08-12 00:26:00,84.9,33.6,29.29,South,178,3.6,5.0,15,-99.99,,,0.00,0,rob ver 1B,2013-08-12 07:26:00,
2013-08-12 00:27:00,84.9,33.7,29.29,South,179,2.6,4.4,16,-99.99,,,0.00,0,rob ver 1B,2013-08-12 07:27:00,
2013-08-12 00:28:00,84.8,33.7,29.29,South,187,2.0,2.9,15,-99.99,,,0.00,0,rob ver 1B,2013-08-12 07:28:00,
2013-08-12 00:29:00,83.1,43.7,29.26,SSW,201,4.6,7.3,24,-99.99,,,0.00,0,rob ver 1A,2013-08-12 07:29:00,
2013-08-12 00:30:00,84.7,33.5,29.29,WSW,241,1.8,3.0,15,-99.99,,,0.00,0,rob ver 1B,2013-08-12 07:30:00,
2013-08-12 00:31:00,84.6,33.4,29.29,WSW,256,2.2,3.4,15,-99.99,,,0.00,0,rob ver 1B,2013-08-12 07:31:00,
2013-08-12 00:32:00,84.6,33.4,29.29,West,281,1.2,2.6,15,-99.99,,,0.00,0,rob ver 1B,2013-08-12 07:32:00,
2013-08-12 00:33:00,84.5,33.5,29.29,NNW,343,0.8,1.9,16,-99.99,,,0.00,0,rob ver 1B,2013-08-12 07:33:00,
2013-08-12 00:34:00,82.9,43.7,29.26,SSW,199,6.0,8.0,25,-99.99,,,0.00,0,rob ver 1A,2013-08-12 07:34:00,
2013-08-12 00:35:00,84.4,33.7,29.29,NNE,17,1.5,2.0,16,-99.99,,,0.00,0,rob ver 1B,2013-08-12 07:35:00,
2013-08-12 00:36:00,84.4,33.6,29.29,NNE,23,1.4,2.1,16,-99.99,,,0.00,0,rob ver 1B,2013-08-12 07:36:00,
2013-08-12 00:37:00,84.4,33.6,29.29,NNE,28,2.3,2.8,16,-99.99,,,0.00,0,rob ver 1B,2013-08-12 07:37:00,
2013-08-12 00:38:00,84.5,33.5,29.29,NNE,27,3.2,3.6,15,-99.99,,,0.00,0,rob ver 1B,2013-08-12 07:38:00,
2013-08-12 00:39:00,82.9,43.8,29.26,SSW,200,8.5,10.4,25,-99.99,,,0.00,0,rob ver 1A,2013-08-12 07:39:00,
2013-08-12 00:40:00,84.6,32.9,29.29,NNE,13,3.4,4.2,15,-99.99,,,0.00,0,rob ver 1B,2013-08-12 07:40:00,
2013-08-12 00:41:00,84.7,32.7,29.29,NNE,12,2.8,3.5,15,-99.99,,,0.00,0,rob ver 1B,2013-08-12 07:41:00,
2013-08-12 00:42:00,84.6,32.6,29.29,North,10,2.2,2.8,15,-99.99,,,0.00,0,rob ver 1B,2013-08-12 07:42:00,
2013-08-12 00:43:00,84.5,32.6,29.29,North,1,2.1,2.8,15,-99.99,,,0.00,0,rob ver 1B,2013-08-12 07:43:00,
2013-08-12 00:44:00,83.1,44.1,29.26,SSW,200,8.5,10.5,25,-99.99,,,0.00,0,rob ver 1A,2013-08-12 07:44:00,
2013-08-12 00:45:00,84.6,32.5,29.29,WNW,287,2.9,4.5,15,-99.99,,,0.00,0,rob ver 1B,2013-08-12 07:45:00,
2013-08-12 00:46:00,84.8,32.5,29.29,West,266,3.3,5.0,15,-99.99,,,0.00,0,rob ver 1B,2013-08-12 07:46:00,
2013-08-12 00:47:00,84.9,32.2,29.29,WSW,257,4.9,6.6,14,-99.99,,,0.00,0,rob ver 1B,2013-08-12 07:47:00,
2013-08-12 00:48:00,85.2,32.0,29.29,West,260,6.0,8.8,14,-99.99,,,0.00,0,rob ver 1B,2013-08-12 07:48:00,
2013-08-12 00:49:00,83.1,44.6,29.26,SSW,207,7.9,9.2,25,-99.99,,,0.00,0,rob ver 1A,2013-08-12 07:49:00,
2013-08-12 00:50:00,85.6,31.8,29.29,WSW,243,7.9,10.3,14,-99.99,,,0.00,0,rob ver 1B,2013-08-12 07:50:00,
2013-08-12 00:51:00,85.8,31.5,29.29,SW,229,7.5,10.0,14,-99.99,,,0.00,0,rob ver 1B,2013-08-12 07:51:00,
2013-08-12 00:52:00,85.9,31.5,29.29,WSW,242,7.3,10.3,14,-99.99,,,0.00,0,rob ver 1B,2013-08-12 07:52:00,
2013-08-12 00:53:00,86.0,31.2,29.29,WSW,244,7.4,10.3,13,-99.99,,,0.00,0,rob ver 1B,2013-08-12 07:53:00,
2013-08-12 00:54:00,83.0,44.9,29.26,SW,219,3.9,5.3,26,-99.99,,,0.00,0,rob ver 1A,2013-08-12 07:54:00,
2013-08-12 00:55:00,86.0,31.5,29.29,WSW,238,8.6,10.5,14,-99.99,,,0.00,0,rob ver 1B,2013-08-12 07:55:00,
2013-08-12 00:56:00,85.9,31.5,29.29,WSW,241,7.8,9.4,14,-99.99,,,0.00,0,rob ver 1B,2013-08-12 07:56:00,
2013-08-12 00:57:00,85.7,31.4,29.29,WSW,247,7.1,10.1,13,-99.99,,,0.00,0,rob ver 1B,2013-08-12 07:57:00,
2013-08-12 00:58:00,85.7,30.9,29.29,WSW,238,9.2,11.6,13,-99.99,,,0.00,0,rob ver 1B,2013-08-12 07:58:00,
2013-08-12 00:59:00,82.9,44.5,29.26,North,8,2.0,3.0,26,-99.99,,,0.00,0,rob ver 1A,2013-08-12 07:59:00,
2013-08-12 01:00:00,85.9,31.0,29.29,SW,234,5.3,7.0,13,-99.99,,,0.00,0,rob ver 1B,2013-08-12 08:00:00,
2013-08-12 01:01:00,85.9,31.1,29.29,SSW,213,5.9,7.2,13,-99.99,,,0.00,0,rob ver 1B,2013-08-12 08:01:00,
2013-08-12 01:02:00,85.7,31.1,29.29,SW,224,5.6,6.9,14,-99.99,,,0.00,0,rob ver 1B,2013-08-12 08:02:00,
2013-08-12 01:03:00,85.7,30.9,29.29,SW,221,5.9,7.1,13,-99.99,,,0.00,0,rob ver 1B,2013-08-12 08:03:00,
2013-08-12 01:04:00,82.7,44.0,29.26,NNW,327,3.1,3.8,25,-99.99,,,0.00,0,rob ver 1A,2013-08-12 08:04:00,
2013-08-12 01:05:00,85.7,30.8,29.29,SSW,210,4.0,5.1,13,-99.99,,,0.00,0,rob ver 1B,2013-08-12 08:05:00,
2013-08-12 01:06:00,85.6,30.6,29.29,SSW,202,4.2,5.7,13,-99.99,,,0.00,0,rob ver 1B,2013-08-12 08:06:00,
2013-08-12 01:07:00,85.7,30.6,29.29,SSW,195,4.7,5.8,13,-99.99,,,0.00,0,rob ver 1B,2013-08-12 08:07:00,
2013-08-12 01:08:00,85.7,30.7,29.29,SW,221,4.7,5.8,13,-99.99,,,0.00,0,rob ver 1B,2013-08-12 08:08:00,
2013-08-12 01:09:00,83.0,44.7,29.29,NW,326,4.9,6.1,26,-99.99,,,0.00,0,rob ver 1A,2013-08-12 08:09:00,
2013-08-12 01:10:00,85.6,30.7,29.29,SW,218,4.5,5.3,13,-99.99,,,0.00,0,rob ver 1B,2013-08-12 08:10:00,
2013-08-12 01:11:00,85.6,30.8,29.29,SW,224,4.5,5.3,13,-99.99,,,0.00,0,rob ver 1B,2013-08-12 08:11:00,
2013-08-12 01:12:00,85.6,30.8,29.29,SW,222,4.0,4.6,14,-99.99,,,0.00,0,rob ver 1B,2013-08-12 08:12:00,
2013-08-12 01:13:00,85.5,30.9,29.29,SW,224,3.9,4.4,13,-99.99,,,0.00,0,rob ver 1B,2013-08-12 08:13:00,
2013-08-12 01:14:00,83.6,44.9,29.29,WSW,251,2.2,5.1,25,-99.99,,,0.00,0,rob ver 1A,2013-08-12 08:14:00,
2013-08-12 01:15:00,85.1,30.8,29.29,SW,225,3.6,4.2,14,-99.99,,,0.00,0,rob ver 1B,2013-08-12 08:15:00,
2013-08-12 01:16:00,85.0,30.8,29.29,SW,222,3.5,4.1,14,-99.99,,,0.00,0,rob ver 1B,2013-08-12 08:16:00,
2013-08-12 01:17:00,84.9,30.8,29.29,SW,222,3.0,3.7,14,-99.99,,,0.00,0,rob ver 1B,2013-08-12 08:17:00,
2013-08-12 01:18:00,84.9,30.9,29.29,SW,224,2.5,3.0,14,-99.99,,,0.00,0,rob ver 1B,2013-08-12 08:18:00,
2013-08-12 01:19:00,83.6,44.9,29.29,SSW,208,4.4,5.9,25,-99.99,,,0.00,0,rob ver 1A,2013-08-12 08:19:00,
2013-08-12 01:20:00,84.8,30.8,29.29,SW,220,2.2,2.8,14,-99.99,,,0.00,0,rob ver 1B,2013-08-12 08:20:00,
2013-08-12 01:21:00,84.7,30.8,29.29,SW,226,2.6,3.0,14,-99.99,,,0.00,0,rob ver 1B,2013-08-12 08:21:00,
2013-08-12 01:22:00,84.7,30.8,29.29,SW,230,2.9,3.5,14,-99.99,,,0.00,0,rob ver 1B,2013-08-12 08:22:00,
2013-08-12 01:23:00,84.7,30.8,29.29,WSW,239,2.8,3.3,14,-99.99,,,0.00,0,rob ver 1B,2013-08-12 08:23:00,
2013-08-12 01:24:00,82.8,45.8,29.29,South,189,4.0,5.5,27,-99.99,,,0.00,0,rob ver 1A,2013-08-12 08:24:00,
2013-08-12 01:25:00,84.8,30.8,29.29,WSW,252,3.6,4.0,14,-99.99,,,0.00,0,rob ver 1B,2013-08-12 08:25:00,
2013-08-12 01:26:00,84.8,30.9,29.29,WSW,251,4.0,4.4,14,-99.99,,,0.00,0,rob ver 1B,2013-08-12 08:26:00,
2013-08-12 01:27:00,84.7,30.9,29.29,WSW,255,4.1,4.7,14,-99.99,,,0.00,0,rob ver 1B,2013-08-12 08:27:00,
2013-08-12 01:28:00,84.7,30.9,29.29,WSW,254,4.6,5.0,14,-99.99,,,0.00,0,rob ver 1B,2013-08-12 08:28:00,
2013-08-12 01:29:00,84.5,30.9,29.29,WSW,254,4.9,5.1,14,-99.99,,,0.00,0,rob ver 1B,2013-08-12 08:29:00,
2013-08-12 01:30:00,82.6,45.9,29.29,NNE,23,1.4,2.1,27,-99.99,,,0.00,0,rob ver 1A,2013-08-12 08:30:00,
2013-08-12 01:31:00,84.3,30.8,29.29,WSW,253,4.6,5.3,14,-99.99,,,0.00,0,rob ver 1B,2013-08-12 08:31:00,
2013-08-12 01:32:00,84.1,30.8,29.29,WSW,256,4.4,4.9,14,-99.99,,,0.00,0,rob ver 1B,2013-08-12 08:32:00,
2013-08-12 01:33:00,84.0,30.7,29.29,WSW,255,4.0,4.5,14,-99.99,,,0.00,0,rob ver 1B,2013-08-12 08:33:00,
2013-08-12 01:34:00,83.9,30.7,29.29,WSW,257,4.1,4.9,14,-99.99,,,0.00,0,rob ver 1B,2013-08-12 08:34:00,
2013-08-12 01:35:00,82.3,45.9,29.29,NNW,342,2.0,3.0,28,-99.99,,,0.00,0,rob ver 1A,2013-08-12 08:35:00,
2013-08-12 01:36:00,83.9,30.6,29.29,WSW,258,5.1,6.0,14,-99.99,,,0.00,0,rob ver 1B,2013-08-12 08:36:00,
2013-08-12 01:37:00,83.9,30.6,29.29,WSW,253,6.0,6.7,14,-99.99,,,0.00,0,rob ver 1B,2013-08-12 08:37:00,
2013-08-12 01:38:00,83.9,30.6,29.29,WSW,251,6.3,6.9,14,-99.99,,,0.00,0,rob ver 1B,2013-08-12 08:38:00,
2013-08-12 01:39:00,83.9,30.6,29.29,WSW,255,5.9,7.3,14,-99.99,,,0.00,0,rob ver 1B,2013-08-12 08:39:00,
2013-08-12 01:40:00,82.3,47.0,29.29,SSW,207,4.5,5.5,28,-99.99,,,0.00,0,rob ver 1A,2013-08-12 08:40:00,
2013-08-12 01:41:00,83.7,30.5,29.29,WSW,253,4.8,5.6,14,-99.99,,,0.00,0,rob ver 1B,2013-08-12 08:41:00,
2013-08-12 01:42:00,83.6,30.5,29.29,WSW,250,4.5,5.4,14,-99.99,,,0.00,0,rob ver 1B,2013-08-12 08:42:00,
2013-08-12 01:43:00,83.5,30.5,29.29,WSW,248,3.8,4.6,14,-99.99,,,0.00,0,rob ver 1B,2013-08-12 08:43:00,
2013-08-12 01:44:00,83.4,30.5,29.29,WSW,250,3.3,4.2,14,-99.99,,,0.00,0,rob ver 1B,2013-08-12 08:44:00,
2013-08-12 01:45:00,82.4,46.6,29.29,SSW,196,6.6,7.9,28,-99.99,,,0.00,0,rob ver 1A,2013-08-12 08:45:00,
2013-08-12 01:46:00,83.3,30.5,29.29,SW,230,2.7,3.8,14,-99.99,,,0.00,0,rob ver 1B,2013-08-12 08:46:00,
2013-08-12 01:47:00,83.1,30.5,29.29,SW,233,3.3,4.0,14,-99.99,,,0.00,0,rob ver 1B,2013-08-12 08:47:00,
2013-08-12 01:48:00,83.0,30.6,29.29,SW,233,3.6,4.6,14,-99.99,,,0.00,0,rob ver 1B,2013-08-12 08:48:00,
2013-08-12 01:49:00,83.0,30.7,29.29,SW,236,4.3,5.4,15,-99.99,,,0.00,0,rob ver 1B,2013-08-12 08:49:00,
2013-08-12 01:50:00,82.3,46.7,29.29,South,173,1.7,2.8,28,-99.99,,,0.00,0,rob ver 1A,2013-08-12 08:50:00,
2013-08-12 01:51:00,83.1,30.7,29.29,SW,236,4.7,5.5,15,-99.99,,,0.00,0,rob ver 1B,2013-08-12 08:51:00,
2013-08-12 01:52:00,83.1,30.8,29.29,WSW,238,4.7,5.4,15,-99.99,,,0.00,0,rob ver 1B,2013-08-12 08:52:00,
2013-08-12 01:53:00,83.1,30.8,29.29,WSW,240,5.0,5.3,15,-99.99,,,0.00,0,rob ver 1B,2013-08-12 08:53:00,
2013-08-12 01:54:00,83.1,30.8,29.29,WSW,243,5.0,5.3,15,-99.99,,,0.00,0,rob ver 1B,2013-08-12 08:54:00,
2013-08-12 01:55:00,81.8,46.3,29.29,North,351,2.9,4.0,28,-99.99,,,0.00,0,rob ver 1A,2013-08-12 08:55:00,
2013-08-12 01:56:00,83.0,30.9,29.29,WSW,248,5.6,5.9,15,-99.99,,,0.00,0,rob ver 1B,2013-08-12 08:56:00,
2013-08-12 01:57:00,82.8,30.9,29.29,WSW,248,5.7,6.1,15,-99.99,,,0.00,0,rob ver 1B,2013-08-12 08:57:00,
2013-08-12 01:58:00,82.6,30.9,29.29,WSW,249,5.6,6.0,15,-99.99,,,0.00,0,rob ver 1B,2013-08-12 08:58:00,
2013-08-12 01:59:00,82.4,30.9,29.29,WSW,250,5.4,5.8,15,-99.99,,,0.00,0,rob ver 1B,2013-08-12 08:59:00,
2013-08-12 02:00:00,80.5,44.7,29.29,NE,47,4.6,5.1,28,-99.99,,,0.00,0,rob ver 1A,2013-08-12 09:00:00,
2013-08-12 02:01:00,82.1,31.0,29.29,WSW,254,4.5,5.3,15,-99.99,,,0.00,0,rob ver 1B,2013-08-12 09:01:00,
2013-08-12 02:02:00,82.0,31.3,29.29,WSW,253,4.5,4.9,16,-99.99,,,0.00,0,rob ver 1B,2013-08-12 09:02:00,
2013-08-12 02:03:00,81.9,31.6,29.29,WSW,255,3.9,4.7,16,-99.99,,,0.00,0,rob ver 1B,2013-08-12 09:03:00,
2013-08-12 02:04:00,81.9,31.6,29.29,WSW,256,3.8,4.4,16,-99.99,,,0.00,0,rob ver 1B,2013-08-12 09:04:00,
2013-08-12 02:05:00,81.1,46.0,29.29,ESE,121,1.8,2.3,29,-99.99,,,0.00,0,rob ver 1A,2013-08-12 09:05:00,
2013-08-12 02:06:00,81.7,31.8,29.29,WSW,257,4.3,4.9,16,-99.99,,,0.00,0,rob ver 1B,2013-08-12 09:06:00,
2013-08-12 02:07:00,81.7,31.9,29.29,WSW,257,4.2,4.9,16,-99.99,,,0.00,0,rob ver 1B,2013-08-12 09:07:00,
2013-08-12 02:08:00,81.7,32.1,29.29,WSW,257,4.5,5.1,16,-99.99,,,0.00,0,rob ver 1B,2013-08-12 09:08:00,
2013-08-12 02:09:00,81.7,32.1,29.29,WSW,257,4.6,5.1,16,-99.99,,,0.00,0,rob ver 1B,2013-08-12 09:09:00,
2013-08-12 02:10:00,81.6,45.8,29.29,South,183,2.8,3.7,28,-99.99,,,0.00,0,rob ver 1A,2013-08-12 09:10:00,
2013-08-12 02:11:00,81.8,32.3,29.29,WSW,255,4.7,5.6,16,-99.99,,,0.00,0,rob ver 1B,2013-08-12 09:11:00,
2013-08-12 02:12:00,81.8,32.3,29.29,WSW,256,4.6,5.2,16,-99.99,,,0.00,0,rob ver 1B,2013-08-12 09:12:00,
2013-08-12 02:13:00,81.9,32.3,29.29,WSW,256,4.4,5.1,16,-99.99,,,0.00,0,rob ver 1B,2013-08-12 09:13:00,
2013-08-12 02:14:00,81.9,32.4,29.29,WSW,253,4.4,5.1,16,-99.99,,,0.00,0,rob ver 1B,2013-08-12 09:14:00,
2013-08-12 02:15:00,80.7,44.6,29.29,North,359,4.3,4.9,28,-99.99,,,0.00,0,rob ver 1A,2013-08-12 09:15:00,
2013-08-12 02:16:00,81.9,32.6,29.29,WSW,252,4.2,4.9,16,-99.99,,,0.00,0,rob ver 1B,2013-08-12 09:16:00,
2013-08-12 02:17:00,81.8,32.7,29.29,WSW,248,4.2,4.9,16,-99.99,,,0.00,0,rob ver 1B,2013-08-12 09:17:00,
2013-08-12 02:18:00,81.8,32.7,29.29,WSW,245,4.0,5.1,16,-99.99,,,0.00,0,rob ver 1B,2013-08-12 09:18:00,
2013-08-12 02:19:00,81.8,32.7,29.29,WSW,245,3.8,4.7,16,-99.99,,,0.00,0,rob ver 1B,2013-08-12 09:19:00,
2013-08-12 02:20:00,81.7,32.7,29.29,WSW,244,3.6,4.7,16,-99.99,,,0.00,0,rob ver 1B,2013-08-12 09:20:00,
2013-08-12 02:21:00,80.5,45.8,29.29,NE,35,3.5,3.9,29,-99.99,,,0.00,0,rob ver 1A,2013-08-12 09:21:00,
2013-08-12 02:22:00,81.4,32.7,29.29,WSW,237,3.4,3.8,17,-99.99,,,0.00,0,rob ver 1B,2013-08-12 09:22:00,
2013-08-12 02:23:00,81.4,32.8,29.29,WSW,240,3.6,4.2,17,-99.99,,,0.00,0,rob ver 1B,2013-08-12 09:23:00,
2013-08-12 02:24:00,81.3,32.9,29.29,WSW,239,4.0,4.5,17,-99.99,,,0.00,0,rob ver 1B,2013-08-12 09:24:00,
2013-08-12 02:25:00,81.3,32.8,29.29,WSW,240,4.1,4.8,17,-99.99,,,0.00,0,rob ver 1B,2013-08-12 09:25:00,
2013-08-12 02:26:00,81.6,46.3,29.29,East,84,1.3,2.1,28,-99.99,,,0.00,0,rob ver 1A,2013-08-12 09:26:00,
2013-08-12 02:27:00,81.2,32.8,29.29,WSW,246,4.4,4.7,17,-99.99,,,0.00,0,rob ver 1B,2013-08-12 09:27:00,
2013-08-12 02:28:00,81.2,32.9,29.29,WSW,247,4.4,5.0,17,-99.99,,,0.00,0,rob ver 1B,2013-08-12 09:28:00,
2013-08-12 02:29:00,81.2,33.0,29.29,WSW,250,4.6,4.8,17,-99.99,,,0.00,0,rob ver 1B,2013-08-12 09:29:00,
2013-08-12 02:30:00,81.2,33.0,29.29,WSW,251,4.2,4.6,17,-99.99,,,0.00,0,rob ver 1B,2013-08-12 09:30:00,
2013-08-12 02:31:00,80.5,45.4,29.29,East,84,1.4,1.7,29,-99.99,,,0.00,0,rob ver 1A,2013-08-12 09:31:00,
2013-08-12 02:32:00,81.2,33.0,29.29,WSW,253,3.6,3.8,17,-99.99,,,0.00,0,rob ver 1B,2013-08-12 09:32:00,
2013-08-12 02:33:00,81.2,33.0,29.29,WSW,253,3.6,3.9,17,-99.99,,,0.00,0,rob ver 1B,2013-08-12 09:33:00,
2013-08-12 02:34:00,81.1,33.0,29.29,WSW,256,3.4,3.6,17,-99.99,,,0.00,0,rob ver 1B,2013-08-12 09:34:00,
2013-08-12 02:35:00,81.1,33.0,29.29,West,261,3.2,3.4,17,-99.99,,,0.00,0,rob ver 1B,2013-08-12 09:35:00,
2013-08-12 02:36:00,80.4,45.7,29.29,NE,52,2.5,2.9,29,-99.99,,,0.00,0,rob ver 1A,2013-08-12 09:36:00,
2013-08-12 02:37:00,80.9,32.9,29.29,West,278,2.8,3.1,17,-99.99,,,0.00,0,rob ver 1B,2013-08-12 09:37:00,
2013-08-12 02:38:00,80.9,33.0,29.29,WNW,288,2.9,3.1,17,-99.99,,,0.00,0,rob ver 1B,2013-08-12 09:38:00,
2013-08-12 02:39:00,80.8,32.9,29.29,NW,309,2.5,2.9,17,-99.99,,,0.00,0,rob ver 1B,2013-08-12 09:39:00,
2013-08-12 02:40:00,80.7,32.9,29.29,NNW,335,2.6,2.9,17,-99.99,,,0.00,0,rob ver 1B,2013-08-12 09:40:00,
2013-08-12 02:41:00,80.5,45.2,29.26,ENE,70,0.8,0.9,28,-99.99,,,0.00,0,rob ver 1A,2013-08-12 09:41:00,
2013-08-12 02:42:00,80.3,32.9,29.29,NNE,15,3.9,4.6,17,-99.99,,,0.00,0,rob ver 1B,2013-08-12 09:42:00,
2013-08-12 02:43:00,80.3,32.5,29.29,NNE,22,4.3,4.6,17,-99.99,,,0.00,0,rob ver 1B,2013-08-12 09:43:00,
2013-08-12 02:44:00,80.2,32.5,29.29,NNE,18,4.3,5.0,17,-99.99,,,0.00,0,rob ver 1B,2013-08-12 09:44:00,
2013-08-12 02:45:00,80.3,32.6,29.29,North,359,3.4,4.3,17,-99.99,,,0.00,0,rob ver 1B,2013-08-12 09:45:00,
2013-08-12 02:46:00,80.3,44.9,29.29,NNW,347,0.5,1.0,27,-99.99,,,0.00,0,rob ver 1A,2013-08-12 09:46:00,
2013-08-12 02:47:00,80.7,32.7,29.29,NNW,342,2.6,3.0,17,-99.99,,,0.00,0,rob ver 1B,2013-08-12 09:47:00,
2013-08-12 02:48:00,80.9,32.6,29.29,NNW,341,2.6,2.9,17,-99.99,,,0.00,0,rob ver 1B,2013-08-12 09:48:00,
2013-08-12 02:49:00,81.0,32.5,29.29,NNW,336,2.6,3.0,17,-99.99,,,0.00,0,rob ver 1B,2013-08-12 09:49:00,
2013-08-12 02:50:00,81.0,32.5,29.29,NNW,334,2.7,3.0,17,-99.99,,,0.00,0,rob ver 1B,2013-08-12 09:50:00,
2013-08-12 02:51:00,79.1,43.8,29.29,North,358,4.0,4.4,28,-99.99,,,0.00,0,rob ver 1A,2013-08-12 09:51:00,
2013-08-12 02:52:00,80.9,32.4,29.29,NNW,334,2.3,2.8,17,-99.99,,,0.00,0,rob ver 1B,2013-08-12 09:52:00,
2013-08-12 02:53:00,80.8,32.4,29.29,NNW,331,2.6,3.0,17,-99.99,,,0.00,0,rob ver 1B,2013-08-12 09:53:00,
2013-08-12 02:54:00,80.9,32.5,29.29,NNW,329,3.0,3.3,17,-99.99,,,0.00,0,rob ver 1B,2013-08-12 09:54:00,
2013-08-12 02:55:00,81.1,32.3,29.29,NNW,327,2.9,3.2,16,-99.99,,,0.00,0,rob ver 1B,2013-08-12 09:55:00,
2013-08-12 02:56:00,78.3,43.6,29.26,North,1,3.6,3.8,29,-99.99,,,0.00,0,rob ver 1A,2013-08-12 09:56:00,
2013-08-12 02:57:00,80.7,32.1,29.29,North,352,3.5,3.7,17,-99.99,,,0.00,0,rob ver 1B,2013-08-12 09:57:00,
2013-08-12 02:58:00,80.4,32.0,29.29,North,3,4.1,4.3,17,-99.99,,,0.00,0,rob ver 1B,2013-08-12 09:58:00,
2013-08-12 02:59:00,80.3,31.6,29.29,NNE,12,4.5,4.9,17,-99.99,,,0.00,0,rob ver 1B,2013-08-12 09:59:00,
2013-08-12 03:00:00,80.0,31.5,29.29,NNE,13,4.9,5.2,17,-99.99,,,0.00,0,rob ver 1B,2013-08-12 10:00:00,
2013-08-12 03:01:00,77.8,42.9,29.26,North,356,4.1,4.5,28,-99.99,,,0.00,0,rob ver 1A,2013-08-12 10:01:00,
2013-08-12 03:02:00,79.8,31.6,29.29,North,8,4.1,4.6,17,-99.99,,,0.00,0,rob ver 1B,2013-08-12 10:02:00,
2013-08-12 03:03:00,79.8,31.5,29.29,NNE,12,4.0,4.3,17,-99.99,,,0.00,0,rob ver 1B,2013-08-12 10:03:00,
2013-08-12 03:04:00,79.9,31.5,29.29,NNE,21,4.9,5.4,17,-99.99,,,0.00,0,rob ver 1B,2013-08-12 10:04:00,
2013-08-12 03:05:00,79.8,31.4,29.29,NE,35,6.4,7.2,17,-99.99,,,0.00,0,rob ver 1B,2013-08-12 10:05:00,
2013-08-12 03:06:00,77.5,43.3,29.29,North,352,3.0,3.2,29,-99.99,,,0.00,0,rob ver 1A,2013-08-12 10:06:00,
2013-08-12 03:07:00,79.4,31.2,29.29,NNE,17,5.0,5.6,17,-99.99,,,0.00,0,rob ver 1B,2013-08-12 10:07:00,
2013-08-12 03:08:00,79.5,31.3,29.29,North,6,4.4,4.9,17,-99.99,,,0.00,0,rob ver 1B,2013-08-12 10:08:00,
2013-08-12 03:09:00,79.7,31.2,29.29,North,5,4.5,4.8,17,-99.99,,,0.00,0,rob ver 1B,2013-08-12 10:09:00,
2013-08-12 03:10:00,79.8,31.1,29.29,North,3,4.0,4.5,17,-99.99,,,0.00,0,rob ver 1B,2013-08-12 10:10:00,
2013-08-12 03:11:00,77.8,43.7,29.29,North,353,2.4,2.5,29,-99.99,,,0.00,0,rob ver 1A,2013-08-12 10:11:00,
2013-08-12 03:12:00,79.7,31.2,29.29,North,8,3.7,3.9,17,-99.99,,,0.00,0,rob ver 1B,2013-08-12 10:12:00,
2013-08-12 03:13:00,79.6,31.0,29.29,North,11,3.8,4.1,17,-99.99,,,0.00,0,rob ver 1B,2013-08-12 10:13:00,
2013-08-12 03:14:00,79.5,31.0,29.29,NNE,16,4.3,4.6,17,-99.99,,,0.00,0,rob ver 1B,2013-08-12 10:14:00,
2013-08-12 03:15:00,79.4,30.9,29.29,NNE,20,4.1,4.4,17,-99.99,,,0.00,0,rob ver 1B,2013-08-12 10:15:00,
2013-08-12 03:16:00,79.2,30.8,29.29,NNE,26,3.9,4.3,17,-99.99,,,0.00,0,rob ver 1B,2013-08-12 10:16:00,
2013-08-12 03:17:00,78.3,44.3,29.26,NNW,330,2.9,3.2,29,-99.99,,,0.00,0,rob ver 1A,2013-08-12 10:17:00,
2013-08-12 03:18:00,78.9,30.9,29.29,NNE,33,4.2,4.6,17,-99.99,,,0.00,0,rob ver 1B,2013-08-12 10:18:00,
2013-08-12 03:19:00,78.7,30.9,29.29,NE,34,3.8,4.0,17,-99.99,,,0.00,0,rob ver 1B,2013-08-12 10:19:00,
2013-08-12 03:20:00,78.6,30.8,29.29,NE,36,3.9,4.3,17,-99.99,,,0.00,0,rob ver 1B,2013-08-12 10:20:00,
2013-08-12 03:21:00,78.4,30.7,29.29,NNE,32,4.3,4.8,17,-99.99,,,0.00,0,rob ver 1B,2013-08-12 10:21:00,
2013-08-12 03:22:00,78.0,44.6,29.26,NNW,327,2.0,2.3,30,-99.99,,,0.00,0,rob ver 1A,2013-08-12 10:22:00,
2013-08-12 03:23:00,78.4,30.7,29.29,NNE,26,4.5,4.9,17,-99.99,,,0.00,0,rob ver 1B,2013-08-12 10:23:00,
2013-08-12 03:24:00,78.4,30.5,29.29,NNE,20,4.2,4.5,17,-99.99,,,0.00,0,rob ver 1B,2013-08-12 10:24:00,
2013-08-12 03:25:00,78.4,30.6,29.29,North,10,3.9,4.2,17,-99.99,,,0.00,0,rob ver 1B,2013-08-12 10:25:00,
2013-08-12 03:26:00,78.5,30.5,29.29,North,6,3.7,3.9,17,-99.99,,,0.00,0,rob ver 1B,2013-08-12 10:26:00,
2013-08-12 03:27:00,78.3,45.2,29.29,NW,320,1.3,1.4,31,-99.99,,,0.00,0,rob ver 1A,2013-08-12 10:27:00,
2013-08-12 03:28:00,78.7,30.6,29.29,North,2,3.7,4.0,17,-99.99,,,0.00,0,rob ver 1B,2013-08-12 10:28:00,
2013-08-12 03:29:00,78.6,30.6,29.29,North,3,3.3,3.7,17,-99.99,,,0.00,0,rob ver 1B,2013-08-12 10:29:00,
2013-08-12 03:30:00,78.5,30.5,29.29,North,3,3.4,4.0,17,-99.99,,,0.00,0,rob ver 1B,2013-08-12 10:30:00,
2013-08-12 03:31:00,78.4,30.4,29.29,North,8,3.9,4.2,17,-99.99,,,0.00,0,rob ver 1B,2013-08-12 10:31:00,
2013-08-12 03:32:00,78.8,45.5,29.29,WNW,282,2.2,2.3,30,-99.99,,,0.00,0,rob ver 1A,2013-08-12 10:32:00,
2013-08-12 03:33:00,78.3,30.4,29.29,NNE,12,3.8,4.0,17,-99.99,,,0.00,0,rob ver 1B,2013-08-12 10:33:00,
2013-08-12 03:34:00,78.3,30.4,29.29,North,11,3.6,3.9,17,-99.99,,,0.00,0,rob ver 1B,2013-08-12 10:34:00,
2013-08-12 03:35:00,78.3,30.5,29.29,North,359,3.3,3.8,17,-99.99,,,0.00,0,rob ver 1B,2013-08-12 10:35:00,
2013-08-12 03:36:00,78.3,30.5,29.29,North,358,3.6,4.0,17,-99.99,,,0.00,0,rob ver 1B,2013-08-12 10:36:00,
2013-08-12 03:37:00,79.0,45.2,29.26,WNW,300,2.0,2.1,29,-99.99,,,0.00,0,rob ver 1A,2013-08-12 10:37:00,
2013-08-12 03:38:00,78.3,30.5,29.29,North,353,4.1,4.5,17,-99.99,,,0.00,0,rob ver 1B,2013-08-12 10:38:00,
2013-08-12 03:39:00,78.3,30.5,29.29,NNW,348,3.8,4.5,17,-99.99,,,0.00,0,rob ver 1B,2013-08-12 10:39:00,
2013-08-12 03:40:00,78.1,30.5,29.29,NNW,347,3.9,4.4,17,-99.99,,,0.00,0,rob ver 1B,2013-08-12 10:40:00,
2013-08-12 03:41:00,78.0,30.5,29.29,NNW,348,4.5,4.8,17,-99.99,,,0.00,0,rob ver 1B,2013-08-12 10:41:00,
2013-08-12 03:42:00,78.7,45.5,29.29,NE,37,1.4,1.5,30,-99.99,,,0.00,0,rob ver 1A,2013-08-12 10:42:00,
2013-08-12 03:43:00,77.9,30.6,29.29,NNW,343,4.3,5.0,17,-99.99,,,0.00,0,rob ver 1B,2013-08-12 10:43:00,
2013-08-12 03:44:00,77.9,30.6,29.29,NNW,337,3.8,4.3,17,-99.99,,,0.00,0,rob ver 1B,2013-08-12 10:44:00,
2013-08-12 03:45:00,78.0,30.6,29.29,NNW,337,4.3,4.9,17,-99.99,,,0.00,0,rob ver 1B,2013-08-12 10:45:00,
2013-08-12 03:46:00,78.1,30.6,29.29,NNW,331,4.4,4.9,17,-99.99,,,0.00,0,rob ver 1B,2013-08-12 10:46:00,
2013-08-12 03:47:00,78.6,45.1,29.29,ESE,113,0.5,0.7,30,-99.99,,,0.00,0,rob ver 1A,2013-08-12 10:47:00,
2013-08-12 03:48:00,78.5,30.4,29.29,NNW,333,3.6,4.2,17,-99.99,,,0.00,0,rob ver 1B,2013-08-12 10:48:00,
2013-08-12 03:49:00,78.5,30.3,29.29,NNW,339,3.3,3.7,17,-99.99,,,0.00,0,rob ver 1B,2013-08-12 10:49:00,
2013-08-12 03:50:00,78.5,30.3,29.29,NNW,338,3.1,3.5,17,-99.99,,,0.00,0,rob ver 1B,2013-08-12 10:50:00,
2013-08-12 03:51:00,78.4,30.3,29.29,NNW,337,3.1,3.6,17,-99.99,,,0.00,0,rob ver 1B,2013-08-12 10:51:00,
2013-08-12 03:52:00,77.6,42.4,29.26,ENE,72,2.7,3.2,28,-99.99,,,0.00,0,rob ver 1A,2013-08-12 10:52:00,
2013-08-12 03:53:00,78.3,30.3,29.29,NNW,343,3.3,3.8,17,-99.99,,,0.00,0,rob ver 1B,2013-08-12 10:53:00,
2013-08-12 03:54:00,78.3,30.2,29.29,NNW,342,3.7,4.1,17,-99.99,,,0.00,0,rob ver 1B,2013-08-12 10:54:00,
2013-08-12 03:55:00,78.3,30.2,29.29,NNW,343,4.0,4.4,17,-99.99,,,0.00,0,rob ver 1B,2013-08-12 10:55:00,
2013-08-12 03:56:00,78.2,30.1,29.29,NNW,347,4.1,4.4,17,-99.99,,,0.00,0,rob ver 1B,2013-08-12 10:56:00,
2013-08-12 03:57:00,76.6,41.9,29.26,NE,40,4.1,5.0,28,-99.99,,,0.00,0,rob ver 1A,2013-08-12 10:57:00,
2013-08-12 03:58:00,78.1,30.2,29.29,North,350,4.8,5.2,17,-99.99,,,0.00,0,rob ver 1B,2013-08-12 10:58:00,
2013-08-12 03:59:00,78.1,30.2,29.29,North,351,4.7,5.2,17,-99.99,,,0.00,0,rob ver 1B,2013-08-12 10:59:00,
2013-08-12 04:00:00,78.0,30.2,29.29,North,354,4.6,5.2,17,-99.99,,,0.00,0,rob ver 1B,2013-08-12 11:00:00,
2013-08-12 04:01:00,77.9,30.1,29.29,North,355,4.8,5.1,17,-99.99,,,0.00,0,rob ver 1B,2013-08-12 11:01:00,
2013-08-12 04:02:00,77.9,30.0,29.29,North,359,4.8,5.3,17,-99.99,,,0.00,0,rob ver 1B,2013-08-12 11:02:00,
2013-08-12 04:03:00,76.2,40.2,29.26,NNE,27,3.1,3.7,27,-99.99,,,0.00,0,rob ver 1A,2013-08-12 11:03:00,
2013-08-12 04:04:00,78.0,29.9,29.29,North,7,4.4,4.9,17,-99.99,,,0.00,0,rob ver 1B,2013-08-12 11:04:00,
2013-08-12 04:05:00,78.1,29.9,29.29,North,9,3.9,4.2,17,-99.99,,,0.00,0,rob ver 1B,2013-08-12 11:05:00,
2013-08-12 04:06:00,78.2,29.9,29.29,North,9,3.3,3.6,17,-99.99,,,0.00,0,rob ver 1B,2013-08-12 11:06:00,
2013-08-12 04:07:00,78.2,29.9,29.29,North,7,2.9,3.2,16,-99.99,,,0.00,0,rob ver 1B,2013-08-12 11:07:00,
2013-08-12 04:08:00,76.0,40.5,29.26,NE,36,5.0,5.5,28,-99.99,,,0.00,0,rob ver 1A,2013-08-12 11:08:00,
2013-08-12 04:09:00,78.4,30.1,29.29,North,8,2.7,3.0,16,-99.99,,,0.00,0,rob ver 1B,2013-08-12 11:09:00,
2013-08-12 04:10:00,78.6,30.0,29.29,North,11,2.6,2.8,16,-99.99,,,0.00,0,rob ver 1B,2013-08-12 11:10:00,
2013-08-12 04:11:00,78.7,30.0,29.29,North,10,2.6,2.7,16,-99.99,,,0.00,0,rob ver 1B,2013-08-12 11:11:00,
2013-08-12 04:12:00,78.8,29.9,29.29,NNE,13,2.7,2.8,16,-99.99,,,0.00,0,rob ver 1B,2013-08-12 11:12:00,
2013-08-12 04:13:00,76.1,39.6,29.26,NE,43,4.5,5.2,26,-99.99,,,0.00,0,rob ver 1A,2013-08-12 11:13:00,
2013-08-12 04:14:00,78.7,29.9,29.29,NNE,28,3.2,3.4,16,-99.99,,,0.00,0,rob ver 1B,2013-08-12 11:14:00,
2013-08-12 04:15:00,78.6,30.0,29.29,NNE,21,2.9,3.1,16,-99.99,,,0.00,0,rob ver 1B,2013-08-12 11:15:00,
2013-08-12 04:16:00,78.6,30.1,29.29,NNE,20,2.7,3.0,16,-99.99,,,0.00,0,rob ver 1B,2013-08-12 11:16:00,
2013-08-12 04:17:00,78.7,30.1,29.29,NNE,19,2.6,2.7,16,-99.99,,,0.00,0,rob ver 1B,2013-08-12 11:17:00,
2013-08-12 04:18:00,75.9,37.7,29.26,NE,43,6.1,7.4,24,-99.99,,,0.00,0,rob ver 1A,2013-08-12 11:18:00,
2013-08-12 04:19:00,78.6,29.8,29.29,NNE,24,2.5,2.8,16,-99.99,,,0.00,0,rob ver 1B,2013-08-12 11:19:00,
2013-08-12 04:20:00,78.5,29.8,29.29,NE,36,1.9,2.4,16,-99.99,,,0.00,0,rob ver 1B,2013-08-12 11:20:00,
2013-08-12 04:21:00,78.3,29.7,29.29,SE,144,0.9,1.4,16,-99.99,,,0.00,0,rob ver 1B,2013-08-12 11:21:00,
2013-08-12 04:22:00,78.1,29.9,29.29,SSE,152,1.5,2.0,17,-99.99,,,0.00,0,rob ver 1B,2013-08-12 11:22:00,
2013-08-12 04:23:00,75.7,36.9,29.26,NE,43,4.6,5.4,24,-99.99,,,0.00,0,rob ver 1A,2013-08-12 11:23:00,
2013-08-12 04:24:00,77.7,30.0,29.29,ESE,117,1.1,1.7,17,-99.99,,,0.00,0,rob ver 1B,2013-08-12 11:24:00,
2013-08-12 04:25:00,77.6,29.9,29.29,ESE,115,1.8,2.2,17,-99.99,,,0.00,0,rob ver 1B,2013-08-12 11:25:00,
2013-08-12 04:26:00,77.5,29.7,29.29,ESE,105,2.1,2.4,17,-99.99,,,0.00,0,rob ver 1B,2013-08-12 11:26:00,
2013-08-12 04:27:00,77.3,29.6,29.29,ESE,116,2.8,3.5,17,-99.99,,,0.00,0,rob ver 1B,2013-08-12 11:27:00,
2013-08-12 04:28:00,75.9,36.4,29.26,NE,40,3.9,4.7,23,-99.99,,,0.00,0,rob ver 1A,2013-08-12 11:28:00,
2013-08-12 04:29:00,76.7,29.5,29.29,East,81,2.8,3.3,17,-99.99,,,0.00,0,rob ver 1B,2013-08-12 11:29:00,
2013-08-12 04:30:00,76.5,29.4,29.29,East,83,3.1,4.1,17,-99.99,,,0.00,0,rob ver 1B,2013-08-12 11:30:00,
2013-08-12 04:31:00,76.3,29.5,29.29,East,80,3.5,4.8,17,-99.99,,,0.00,0,rob ver 1B,2013-08-12 11:31:00,
2013-08-12 04:32:00,76.2,29.5,29.29,ENE,73,4.3,5.1,17,-99.99,,,0.00,0,rob ver 1B,2013-08-12 11:32:00,
2013-08-12 04:33:00,76.2,35.8,29.26,NE,44,3.7,4.2,23,-99.99,,,0.00,0,rob ver 1A,2013-08-12 11:33:00,
2013-08-12 04:34:00,76.1,29.4,29.29,East,89,4.6,5.3,17,-99.99,,,0.00,0,rob ver 1B,2013-08-12 11:34:00,
2013-08-12 04:35:00,76.0,29.5,29.32,East,86,4.7,5.7,18,-99.99,,,0.00,0,rob ver 1B,2013-08-12 11:35:00,
2013-08-12 04:36:00,75.8,29.4,29.32,East,88,4.7,5.9,18,-99.99,,,0.00,0,rob ver 1B,2013-08-12 11:36:00,
2013-08-12 04:37:00,75.7,29.4,29.32,East,81,7.5,10.4,18,-99.99,,,0.00,0,rob ver 1B,2013-08-12 11:37:00,
2013-08-12 04:38:00,76.0,35.6,29.26,NE,49,3.4,3.7,23,-99.99,,,0.00,0,rob ver 1A,2013-08-12 11:38:00,
2013-08-12 04:39:00,75.7,29.4,29.32,ENE,72,7.4,9.6,18,-99.99,,,0.00,0,rob ver 1B,2013-08-12 11:39:00,
2013-08-12 04:40:00,75.7,29.4,29.32,ENE,72,7.5,9.6,18,-99.99,,,0.00,0,rob ver 1B,2013-08-12 11:40:00,
2013-08-12 04:41:00,75.7,29.4,29.32,ENE,70,7.5,9.7,18,-99.99,,,0.00,0,rob ver 1B,2013-08-12 11:41:00,
2013-08-12 04:42:00,75.7,29.5,29.32,ENE,67,6.4,8.6,18,-99.99,,,0.00,0,rob ver 1B,2013-08-12 11:42:00,
2013-08-12 04:43:00,75.8,35.5,29.26,NE,46,2.3,2.6,23,-99.99,,,0.00,0,rob ver 1A,2013-08-12 11:43:00,
2013-08-12 04:44:00,76.0,29.4,29.32,ENE,63,7.1,9.0,17,-99.99,,,0.00,0,rob ver 1B,2013-08-12 11:44:00,
2013-08-12 04:45:00,76.1,29.4,29.32,ENE,60,6.4,8.8,17,-99.99,,,0.00,0,rob ver 1B,2013-08-12 11:45:00,
2013-08-12 04:46:00,76.3,29.4,29.32,ENE,58,6.8,8.7,17,-99.99,,,0.00,0,rob ver 1B,2013-08-12 11:46:00,
2013-08-12 04:47:00,76.5,29.3,29.32,ENE,60,6.7,8.3,17,-99.99,,,0.00,0,rob ver 1B,2013-08-12 11:47:00,
2013-08-12 04:48:00,75.8,35.5,29.26,NNW,333,1.3,2.5,23,-99.99,,,0.00,0,rob ver 1A,2013-08-12 11:48:00,
2013-08-12 04:49:00,76.8,29.3,29.32,ENE,67,6.4,8.4,17,-99.99,,,0.00,0,rob ver 1B,2013-08-12 11:49:00,
2013-08-12 04:50:00,77.0,29.3,29.32,ENE,66,6.1,8.2,17,-99.99,,,0.00,0,rob ver 1B,2013-08-12 11:50:00,
2013-08-12 04:51:00,77.1,29.0,29.32,ENE,65,6.8,9.7,16,-99.99,,,0.00,0,rob ver 1B,2013-08-12 11:51:00,
2013-08-12 04:52:00,77.2,28.5,29.32,ENE,62,8.1,10.3,16,-99.99,,,0.00,0,rob ver 1B,2013-08-12 11:52:00,
2013-08-12 04:53:00,75.3,35.7,29.26,West,276,1.3,1.7,23,-99.99,,,0.00,0,rob ver 1A,2013-08-12 11:53:00,
2013-08-12 04:54:00,77.3,27.6,29.32,ENE,61,7.5,9.1,15,-99.99,,,0.00,0,rob ver 1B,2013-08-12 11:54:00,
2013-08-12 04:55:00,77.4,27.4,29.32,ENE,58,7.7,9.4,15,-99.99,,,0.00,0,rob ver 1B,2013-08-12 11:55:00,
2013-08-12 04:56:00,77.4,27.3,29.32,NE,56,7.2,9.9,15,-99.99,,,0.00,0,rob ver 1B,2013-08-12 11:56:00,
2013-08-12 04:57:00,77.3,27.3,29.32,NE,55,6.4,7.6,15,-99.99,,,0.00,0,rob ver 1B,2013-08-12 11:57:00,
2013-08-12 04:58:00,77.3,27.5,29.32,NE,53,6.1,7.4,15,-99.99,,,0.00,0,rob ver 1B,2013-08-12 11:58:00,
2013-08-12 04:59:00,74.9,35.7,29.29,SE,135,1.8,2.4,24,-99.99,,,0.00,0,rob ver 1A,2013-08-12 11:59:00,
2013-08-12 05:00:00,77.1,27.5,29.32,NE,48,4.9,7.5,15,-99.99,,,0.00,0,rob ver 1B,2013-08-12 12:00:00,
2013-08-12 05:01:00,77.0,27.1,29.32,NE,49,5.4,7.7,15,-99.99,,,0.00,0,rob ver 1B,2013-08-12 12:01:00,
2013-08-12 05:02:00,77.0,26.6,29.32,NE,48,6.6,8.6,15,-99.99,,,0.00,0,rob ver 1B,2013-08-12 12:02:00,
2013-08-12 05:03:00,77.1,26.5,29.32,NE,45,6.0,7.7,15,-99.99,,,0.00,0,rob ver 1B,2013-08-12 12:03:00,
2013-08-12 05:04:00,73.7,36.1,29.29,East,98,3.3,3.6,25,-99.99,,,0.00,0,rob ver 1A,2013-08-12 12:04:00,
2013-08-12 05:05:00,77.0,26.5,29.32,NE,43,6.0,7.4,15,-99.99,,,0.00,0,rob ver 1B,2013-08-12 12:05:00,
2013-08-12 05:06:00,77.0,26.6,29.32,NE,42,5.9,7.6,15,-99.99,,,0.00,0,rob ver 1B,2013-08-12 12:06:00,
2013-08-12 05:07:00,76.9,26.8,29.32,NE,42,5.7,6.9,15,-99.99,,,0.00,0,rob ver 1B,2013-08-12 12:07:00,
2013-08-12 05:08:00,76.8,26.8,29.32,NE,44,5.7,7.1,15,-99.99,,,0.00,0,rob ver 1B,2013-08-12 12:08:00,
2013-08-12 05:09:00,73.3,35.0,29.29,ENE,75,3.7,4.1,24,-99.99,,,0.00,0,rob ver 1A,2013-08-12 12:09:00,
2013-08-12 05:10:00,76.6,26.9,29.32,NE,46,5.1,6.5,15,-99.99,,,0.00,0,rob ver 1B,2013-08-12 12:10:00,
2013-08-12 05:11:00,76.5,26.9,29.32,NE,47,5.0,6.1,15,-99.99,,,0.00,0,rob ver 1B,2013-08-12 12:11:00,
2013-08-12 05:12:00,76.4,26.9,29.32,NE,49,5.0,6.5,15,-99.99,,,0.00,0,rob ver 1B,2013-08-12 12:12:00,
2013-08-12 05:13:00,76.4,26.8,29.32,NE,47,4.8,6.0,15,-99.99,,,0.00,0,rob ver 1B,2013-08-12 12:13:00,
2013-08-12 05:14:00,73.4,34.7,29.29,NE,50,3.1,3.6,24,-99.99,,,0.00,0,rob ver 1A,2013-08-12 12:14:00,
2013-08-12 05:15:00,76.3,26.6,29.32,NE,46,4.7,6.6,15,-99.99,,,0.00,0,rob ver 1B,2013-08-12 12:15:00,
2013-08-12 05:16:00,76.2,26.4,29.32,NE,47,4.6,6.2,15,-99.99,,,0.00,0,rob ver 1B,2013-08-12 12:16:00,
2013-08-12 05:17:00,76.2,26.1,29.32,NE,47,4.7,6.1,15,-99.99,,,0.00,0,rob ver 1B,2013-08-12 12:17:00,
2013-08-12 05:18:00,76.2,25.9,29.32,NE,52,4.5,7.0,15,-99.99,,,0.00,0,rob ver 1B,2013-08-12 12:18:00,
2013-08-12 05:19:00,73.5,34.3,29.29,NE,38,4.3,5.0,23,-99.99,,,0.00,0,rob ver 1A,2013-08-12 12:19:00,
2013-08-12 05:20:00,76.3,25.6,29.32,NE,55,5.3,7.1,15,-99.99,,,0.00,0,rob ver 1B,2013-08-12 12:20:00,
2013-08-12 05:21:00,76.4,25.5,29.32,ENE,59,5.1,7.9,15,-99.99,,,0.00,0,rob ver 1B,2013-08-12 12:21:00,
2013-08-12 05:22:00,76.4,25.3,29.32,ENE,62,6.2,8.7,14,-99.99,,,0.00,0,rob ver 1B,2013-08-12 12:22:00,
2013-08-12 05:23:00,76.5,25.2,29.32,ENE,62,6.3,7.7,14,-99.99,,,0.00,0,rob ver 1B,2013-08-12 12:23:00,
2013-08-12 05:24:00,73.4,34.0,29.29,NNE,17,3.7,4.3,23,-99.99,,,0.00,0,rob ver 1A,2013-08-12 12:24:00,
2013-08-12 05:25:00,76.6,25.0,29.32,ENE,63,6.7,8.8,14,-99.99,,,0.00,0,rob ver 1B,2013-08-12 12:25:00,
2013-08-12 05:26:00,76.6,24.9,29.32,ENE,63,6.3,8.0,14,-99.99,,,0.00,0,rob ver 1B,2013-08-12 12:26:00,
2013-08-12 05:27:00,76.6,24.8,29.32,ENE,64,6.6,8.7,14,-99.99,,,0.00,0,rob ver 1B,2013-08-12 12:27:00,
2013-08-12 05:28:00,76.6,24.8,29.32,ENE,61,7.0,8.9,14,-99.99,,,0.00,0,rob ver 1B,2013-08-12 12:28:00,
2013-08-12 05:29:00,74.4,33.7,29.29,North,8,4.1,4.5,22,-99.99,,,0.00,0,rob ver 1A,2013-08-12 12:29:00,
2013-08-12 05:30:00,76.6,24.7,29.32,ENE,57,7.1,10.3,14,-99.99,,,0.00,.165,rob ver 1B,2013-08-12 12:30:00,
2013-08-12 05:31:00,76.6,24.7,29.32,NE,54,7.3,9.0,14,-99.99,,,0.00,.165,rob ver 1B,2013-08-12 12:31:00,
2013-08-12 05:32:00,76.5,24.6,29.32,NE,54,6.9,9.1,14,-99.99,,,0.00,.165,rob ver 1B,2013-08-12 12:32:00,
2013-08-12 05:33:00,76.5,24.6,29.32,NE,51,7.2,9.1,14,-99.99,,,0.00,.33,rob ver 1B,2013-08-12 12:33:00,
2013-08-12 05:34:00,74.5,33.5,29.29,North,9,4.0,4.5,22,-99.99,,,0.00,0,rob ver 1A,2013-08-12 12:34:00,
2013-08-12 05:35:00,76.5,24.5,29.32,NE,54,7.7,10.0,14,-99.99,,,0.00,.33,rob ver 1B,2013-08-12 12:35:00,
2013-08-12 05:36:00,76.5,24.5,29.32,NE,56,7.8,11.6,14,-99.99,,,0.00,.33,rob ver 1B,2013-08-12 12:36:00,
2013-08-12 05:37:00,76.5,24.5,29.32,ENE,58,7.9,10.0,14,-99.99,,,0.00,.33,rob ver 1B,2013-08-12 12:37:00,
2013-08-12 05:38:00,76.5,24.5,29.32,ENE,58,8.1,10.2,14,-99.99,,,0.00,.33,rob ver 1B,2013-08-12 12:38:00,
2013-08-12 05:39:00,74.2,33.9,29.29,North,2,4.1,4.4,22,-99.99,,,0.00,1.154,rob ver 1A,2013-08-12 12:39:00,
2013-08-12 05:40:00,76.5,24.4,29.32,ENE,59,7.9,10.4,14,-99.99,,,0.00,.989,rob ver 1B,2013-08-12 12:40:00,
2013-08-12 05:41:00,76.6,24.4,29.32,NE,56,7.9,9.7,14,-99.99,,,0.00,1.484,rob ver 1B,2013-08-12 12:41:00,
2013-08-12 05:42:00,76.6,24.4,29.32,NE,55,6.7,8.4,14,-99.99,,,0.00,1.649,rob ver 1B,2013-08-12 12:42:00,
2013-08-12 05:43:00,76.5,24.4,29.32,ENE,57,7.5,9.9,14,-99.99,,,0.00,2.309,rob ver 1B,2013-08-12 12:43:00,
2013-08-12 05:44:00,74.2,34.0,29.29,NNW,347,4.6,4.7,22,-99.99,,,0.00,3.298,rob ver 1A,2013-08-12 12:44:00,
2013-08-12 05:45:00,76.6,24.3,29.32,ENE,58,8.0,10.0,14,-99.99,,,0.00,3.298,rob ver 1B,2013-08-12 12:45:00,
2013-08-12 05:46:00,76.6,24.3,29.32,ENE,58,8.1,10.6,14,-99.99,,,0.00,3.958,rob ver 1B,2013-08-12 12:46:00,
2013-08-12 05:47:00,76.7,24.3,29.32,ENE,59,8.4,11.1,14,-99.99,,,0.00,4.617,rob ver 1B,2013-08-12 12:47:00,
2013-08-12 05:48:00,76.7,24.3,29.32,ENE,60,8.0,9.8,14,-99.99,,,0.00,5.936,rob ver 1B,2013-08-12 12:48:00,
2013-08-12 05:49:00,74.1,35.8,29.29,North,0,3.6,4.1,25,-99.99,,,0.00,8.25,rob ver 1A,2013-08-12 12:49:00,
2013-08-12 05:50:00,76.7,24.2,29.32,ENE,61,7.6,10.2,14,-99.99,,,0.00,7.92,rob ver 1B,2013-08-12 12:50:00,
2013-08-12 05:51:00,76.7,24.2,29.32,ENE,62,8.0,10.7,14,-99.99,,,0.00,9.56,rob ver 1B,2013-08-12 12:51:00,
2013-08-12 05:52:00,76.7,24.2,29.32,ENE,64,7.7,9.7,14,-99.99,,,0.00,10.88,rob ver 1B,2013-08-12 12:52:00,
2013-08-12 05:53:00,76.7,24.2,29.32,ENE,66,7.2,10.1,14,-99.99,,,0.00,12.53,rob ver 1B,2013-08-12 12:53:00,
2013-08-12 05:54:00,76.7,24.2,29.32,ENE,67,7.4,9.2,14,-99.99,,,0.00,14.51,rob ver 1B,2013-08-12 12:54:00,
2013-08-12 05:55:00,74.6,35.1,29.29,NNE,17,3.0,3.2,23,-99.99,,,0.00,16.16,rob ver 1A,2013-08-12 12:55:00,
2013-08-12 05:56:00,76.8,24.2,29.32,ENE,65,7.2,9.5,14,-99.99,,,0.00,18.47,rob ver 1B,2013-08-12 12:56:00,
2013-08-12 05:57:00,76.7,24.2,29.32,ENE,68,5.9,7.9,14,-99.99,,,0.00,21.11,rob ver 1B,2013-08-12 12:57:00,
2013-08-12 05:58:00,76.7,24.2,29.32,ENE,66,7.8,10.1,14,-99.99,,,0.00,23.75,rob ver 1B,2013-08-12 12:58:00,
2013-08-12 05:59:00,76.8,24.2,29.32,ENE,69,6.7,9.2,14,-99.99,,,0.00,26.38,rob ver 1B,2013-08-12 12:59:00,
2013-08-12 06:00:00,74.6,37.0,29.29,NE,49,2.5,3.3,25,-99.99,,,0.00,28.03,rob ver 1A,2013-08-12 13:00:00,
2013-08-12 06:01:00,76.7,24.2,29.32,ENE,70,7.7,10.3,14,-99.99,,,0.00,32.32,rob ver 1B,2013-08-12 13:01:00,
2013-08-12 06:02:00,76.7,24.2,29.32,ENE,68,7.6,9.8,14,-99.99,,,0.00,35.78,rob ver 1B,2013-08-12 13:02:00,
2013-08-12 06:03:00,76.7,24.1,29.32,ENE,68,6.7,9.8,14,-99.99,,,0.00,39.58,rob ver 1B,2013-08-12 13:03:00,
2013-08-12 06:04:00,76.6,24.1,29.32,ENE,69,7.2,10.3,14,-99.99,,,0.00,44.19,rob ver 1B,2013-08-12 13:04:00,
2013-08-12 06:05:00,74.7,37.7,29.29,NNE,33,2.5,2.8,25,-99.99,,,0.00,45.84,rob ver 1A,2013-08-12 13:05:00,
2013-08-12 06:06:00,76.7,24.1,29.32,ENE,67,7.3,10.2,14,-99.99,,,0.00,53.43,rob ver 1B,2013-08-12 13:06:00,
2013-08-12 06:07:00,76.6,24.1,29.32,ENE,66,7.2,10.3,14,-99.99,,,0.00,70.6,rob ver 1B,2013-08-12 13:07:00,
2013-08-12 06:08:00,76.6,24.0,29.32,ENE,65,7.3,10.3,14,-99.99,,,0.00,105.5,rob ver 1B,2013-08-12 13:08:00,
2013-08-12 06:09:00,76.7,24.0,29.32,ENE,62,7.7,10.1,14,-99.99,,,0.00,133.6,rob ver 1B,2013-08-12 13:09:00,
2013-08-12 06:10:00,75.3,36.7,29.29,NE,43,2.5,2.7,23,-99.99,,,0.00,118.1,rob ver 1A,2013-08-12 13:10:00,
2013-08-12 06:11:00,76.8,24.0,29.32,ENE,60,8.3,10.6,13,-99.99,,,0.00,160.9,rob ver 1B,2013-08-12 13:11:00,
2013-08-12 06:12:00,76.9,24.0,29.32,ENE,59,7.2,9.4,13,-99.99,,,0.00,176.1,rob ver 1B,2013-08-12 13:12:00,
2013-08-12 06:13:00,76.9,24.0,29.32,ENE,57,7.4,9.2,13,-99.99,,,0.00,190,rob ver 1B,2013-08-12 13:13:00,
2013-08-12 06:14:00,76.9,23.9,29.32,NE,56,7.2,8.8,13,-99.99,,,0.00,203.2,rob ver 1B,2013-08-12 13:14:00,
2013-08-12 06:15:00,74.7,35.5,29.29,NE,45,3.1,3.3,24,-99.99,,,0.00,187,rob ver 1A,2013-08-12 13:15:00,
2013-08-12 06:16:00,76.9,23.9,29.32,NE,56,6.9,8.4,13,-99.99,,,0.00,231.4,rob ver 1B,2013-08-12 13:16:00,
2013-08-12 06:17:00,77.0,23.9,29.32,NE,54,7.6,9.6,13,-99.99,,,0.00,245.4,rob ver 1B,2013-08-12 13:17:00,
2013-08-12 06:18:00,77.0,23.8,29.32,NE,52,6.9,8.7,13,-99.99,,,0.00,259.2,rob ver 1B,2013-08-12 13:18:00,
2013-08-12 06:19:00,77.0,23.8,29.32,NE,55,7.2,9.4,13,-99.99,,,0.00,273.7,rob ver 1B,2013-08-12 13:19:00,
2013-08-12 06:20:00,75.2,36.2,29.29,NE,41,2.7,3.2,24,-99.99,,,0.00,254.9,rob ver 1A,2013-08-12 13:20:00,
2013-08-12 06:21:00,77.1,23.8,29.32,NE,53,7.9,10.3,13,-99.99,,,0.00,301.3,rob ver 1B,2013-08-12 13:21:00,
2013-08-12 06:22:00,77.2,23.8,29.32,NE,55,8.0,10.6,13,-99.99,,,0.00,316,rob ver 1B,2013-08-12 13:22:00,
2013-08-12 06:23:00,77.2,23.8,29.32,NE,54,7.3,9.5,13,-99.99,,,0.00,329.8,rob ver 1B,2013-08-12 13:23:00,
2013-08-12 06:24:00,77.2,23.8,29.32,NE,54,7.3,9.6,13,-99.99,,,0.00,345.6,rob ver 1B,2013-08-12 13:24:00,
2013-08-12 06:25:00,75.2,36.1,29.29,NE,40,3.2,3.4,24,-99.99,,,0.00,353.5,rob ver 1A,2013-08-12 13:25:00,
2013-08-12 06:26:00,77.4,23.8,29.32,NE,54,7.3,10.2,13,-99.99,,,0.00,378,rob ver 1B,2013-08-12 13:26:00,
2013-08-12 06:27:00,77.4,23.8,29.35,NE,52,7.3,9.2,13,-99.99,,,0.00,393.1,rob ver 1B,2013-08-12 13:27:00,
2013-08-12 06:28:00,77.5,23.8,29.35,NE,50,7.1,8.9,13,-99.99,,,0.00,410.1,rob ver 1B,2013-08-12 13:28:00,
2013-08-12 06:29:00,77.5,23.8,29.32,NE,53,6.8,8.6,13,-99.99,,,0.00,427.4,rob ver 1B,2013-08-12 13:29:00,
2013-08-12 06:30:00,75.3,35.2,29.29,ENE,62,1.8,2.9,23,-99.99,,,0.00,431.2,rob ver 1A,2013-08-12 13:30:00,
2013-08-12 06:31:00,77.7,23.8,29.35,NE,53,7.5,10.1,13,-99.99,,,0.00,459.1,rob ver 1B,2013-08-12 13:31:00,
2013-08-12 06:32:00,77.8,23.8,29.35,NE,56,7.3,9.1,13,-99.99,,,0.00,476.9,rob ver 1B,2013-08-12 13:32:00,
2013-08-12 06:33:00,77.8,23.8,29.35,ENE,58,7.5,9.6,13,-99.99,,,0.00,492.7,rob ver 1B,2013-08-12 13:33:00,
2013-08-12 06:34:00,77.9,23.8,29.35,ENE,60,7.3,8.7,13,-99.99,,,0.00,509.6,rob ver 1B,2013-08-12 13:34:00,
2013-08-12 06:35:00,74.9,34.7,29.29,ESE,111,2.0,2.2,23,-99.99,,,0.00,520.8,rob ver 1A,2013-08-12 13:35:00,
2013-08-12 06:36:00,78.0,23.9,29.35,ENE,62,6.3,8.3,13,-99.99,,,0.00,542.2,rob ver 1B,2013-08-12 13:36:00,
2013-08-12 06:37:00,78.0,23.9,29.35,ENE,62,5.9,7.1,13,-99.99,,,0.00,560.2,rob ver 1B,2013-08-12 13:37:00,
2013-08-12 06:38:00,78.1,23.9,29.35,ENE,64,6.2,8.7,13,-99.99,,,0.00,576.5,rob ver 1B,2013-08-12 13:38:00,
2013-08-12 06:39:00,78.2,23.9,29.35,ENE,64,6.8,8.6,13,-99.99,,,0.00,594.3,rob ver 1B,2013-08-12 13:39:00,
2013-08-12 06:40:00,75.1,34.4,29.29,East,99,1.7,2.2,22,-99.99,,,0.00,610.1,rob ver 1A,2013-08-12 13:40:00,
2013-08-12 06:41:00,78.3,24.0,29.35,ENE,65,6.5,9.4,13,-99.99,,,0.00,630.4,rob ver 1B,2013-08-12 13:41:00,
2013-08-12 06:42:00,78.5,24.0,29.35,ENE,68,6.0,8.2,13,-99.99,,,0.00,648.4,rob ver 1B,2013-08-12 13:42:00,
2013-08-12 06:43:00,78.5,24.0,29.35,ENE,65,6.9,10.0,13,-99.99,,,0.00,667.5,rob ver 1B,2013-08-12 13:43:00,
2013-08-12 06:44:00,78.7,24.0,29.35,ENE,65,7.1,10.2,13,-99.99,,,0.00,685.3,rob ver 1B,2013-08-12 13:44:00,
2013-08-12 06:45:00,75.8,34.3,29.32,ENE,72,1.5,2.1,21,-99.99,,,0.00,699.8,rob ver 1A,2013-08-12 13:45:00,
2013-08-12 06:46:00,78.9,24.0,29.35,ENE,60,8.0,9.9,13,-99.99,,,0.00,724,rob ver 1B,2013-08-12 13:46:00,
2013-08-12 06:47:00,78.9,24.0,29.35,ENE,63,8.2,11.5,13,-99.99,,,0.00,745,rob ver 1B,2013-08-12 13:47:00,
2013-08-12 06:48:00,79.0,24.0,29.35,ENE,62,8.5,10.9,13,-99.99,,,0.00,764,rob ver 1B,2013-08-12 13:48:00,
2013-08-12 06:49:00,79.1,24.0,29.35,ENE,59,8.4,10.8,12,-99.99,,,0.00,783,rob ver 1B,2013-08-12 13:49:00,
2013-08-12 06:50:00,76.4,34.8,29.32,NE,45,3.8,4.6,21,-99.99,,,0.00,799,rob ver 1A,2013-08-12 13:50:00,
2013-08-12 06:51:00,79.2,24.1,29.35,ENE,65,7.4,9.9,12,-99.99,,,0.00,823,rob ver 1B,2013-08-12 13:51:00,
2013-08-12 06:52:00,79.3,24.1,29.35,ENE,73,6.4,9.5,12,-99.99,,,0.00,843,rob ver 1B,2013-08-12 13:52:00,
2013-08-12 06:53:00,79.4,24.2,29.35,East,84,6.5,7.7,12,-99.99,,,0.00,863,rob ver 1B,2013-08-12 13:53:00,
2013-08-12 06:54:00,79.5,24.3,29.35,East,95,5.1,6.6,12,-99.99,,,0.00,884,rob ver 1B,2013-08-12 13:54:00,
2013-08-12 06:55:00,79.5,24.3,29.35,East,101,5.3,6.7,12,-99.99,,,0.00,904,rob ver 1B,2013-08-12 13:55:00,
2013-08-12 06:56:00,77.0,34.7,29.32,ENE,62,3.4,4.4,21,-99.99,,,0.00,896,rob ver 1A,2013-08-12 13:56:00,
2013-08-12 06:57:00,79.6,24.4,29.35,ESE,102,4.3,5.8,12,-99.99,,,0.00,945,rob ver 1B,2013-08-12 13:57:00,
2013-08-12 06:58:00,79.7,24.5,29.35,East,99,4.3,5.7,12,-99.99,,,0.00,966,rob ver 1B,2013-08-12 13:58:00,
2013-08-12 06:59:00,79.8,24.5,29.35,East,89,3.9,5.2,12,-99.99,,,0.00,988,rob ver 1B,2013-08-12 13:59:00,
2013-08-12 07:00:00,79.9,24.5,29.35,East,96,4.6,5.4,12,-99.99,,,0.00,1008,rob ver 1B,2013-08-12 14:00:00,
2013-08-12 07:01:00,77.4,34.5,29.32,ENE,57,2.8,3.4,20,-99.99,,,0.00,998,rob ver 1A,2013-08-12 14:01:00,
2013-08-12 07:02:00,80.0,24.5,29.35,East,94,5.0,6.9,12,-99.99,,,0.00,1054,rob ver 1B,2013-08-12 14:02:00,
2013-08-12 07:03:00,80.0,24.6,29.35,East,96,4.4,5.9,12,-99.99,,,0.00,1074,rob ver 1B,2013-08-12 14:03:00,
2013-08-12 07:04:00,80.1,24.5,29.35,ESE,103,5.0,6.6,12,-99.99,,,0.00,1096,rob ver 1B,2013-08-12 14:04:00,
2013-08-12 07:05:00,80.1,24.7,29.35,ESE,109,4.9,5.5,12,-99.99,,,0.00,1118,rob ver 1B,2013-08-12 14:05:00,
2013-08-12 07:06:00,77.8,34.2,29.32,NE,37,4.1,4.6,20,-99.99,,,0.00,1108,rob ver 1A,2013-08-12 14:06:00,
2013-08-12 07:07:00,80.1,24.7,29.35,ESE,113,4.7,5.9,12,-99.99,,,0.00,1164,rob ver 1B,2013-08-12 14:07:00,
2013-08-12 07:08:00,80.2,24.7,29.35,ESE,120,5.4,6.4,12,-99.99,,,0.00,1189,rob ver 1B,2013-08-12 14:08:00,
2013-08-12 07:09:00,80.2,24.7,29.35,ESE,119,5.4,6.4,12,-99.99,,,0.00,1210,rob ver 1B,2013-08-12 14:09:00,
2013-08-12 07:10:00,80.2,24.7,29.35,ESE,120,6.1,6.9,13,-99.99,,,0.00,1233,rob ver 1B,2013-08-12 14:10:00,
2013-08-12 07:11:00,78.5,34.5,29.32,NE,45,3.0,3.6,20,-99.99,,,0.00,1221,rob ver 1A,2013-08-12 14:11:00,
2013-08-12 07:12:00,80.2,24.8,29.35,ESE,115,4.9,5.8,12,-99.99,,,0.00,1279,rob ver 1B,2013-08-12 14:12:00,
2013-08-12 07:13:00,80.2,24.8,29.35,ESE,113,5.0,6.8,12,-99.99,,,0.00,1299,rob ver 1B,2013-08-12 14:13:00,
2013-08-12 07:14:00,80.2,24.8,29.35,ESE,113,5.3,6.2,12,-99.99,,,0.00,1321,rob ver 1B,2013-08-12 14:14:00,
2013-08-12 07:15:00,80.3,24.8,29.35,ESE,115,5.9,7.0,12,-99.99,,,0.00,1345,rob ver 1B,2013-08-12 14:15:00,
2013-08-12 07:16:00,79.1,34.5,29.32,NNE,29,3.8,4.9,19,-99.99,,,0.00,1361,rob ver 1A,2013-08-12 14:16:00,
2013-08-12 07:17:00,80.3,24.9,29.35,ESE,114,5.5,6.6,13,-99.99,,,0.00,1391,rob ver 1B,2013-08-12 14:17:00,
2013-08-12 07:18:00,80.3,24.9,29.35,ESE,110,5.7,6.8,12,-99.99,,,0.00,1412,rob ver 1B,2013-08-12 14:18:00,
2013-08-12 07:19:00,80.3,24.8,29.35,ESE,109,6.2,7.4,12,-99.99,,,0.00,1437,rob ver 1B,2013-08-12 14:19:00,
2013-08-12 07:20:00,80.4,25.0,29.35,ESE,113,4.7,5.5,13,-99.99,,,0.00,1461,rob ver 1B,2013-08-12 14:20:00,
2013-08-12 07:21:00,80.0,34.4,29.32,NE,42,2.3,2.9,19,-99.99,,,0.00,1478,rob ver 1A,2013-08-12 14:21:00,
2013-08-12 07:22:00,80.6,25.0,29.35,ESE,112,5.2,6.2,12,-99.99,,,0.00,1511,rob ver 1B,2013-08-12 14:22:00,
2013-08-12 07:23:00,80.6,24.9,29.35,ESE,106,5.5,6.7,12,-99.99,,,0.00,1532,rob ver 1B,2013-08-12 14:23:00,
2013-08-12 07:24:00,80.7,25.0,29.35,ESE,104,5.0,6.6,12,-99.99,,,0.00,1554,rob ver 1B,2013-08-12 14:24:00,
2013-08-12 07:25:00,80.8,25.0,29.35,ESE,109,5.0,5.9,12,-99.99,,,0.00,1581,rob ver 1B,2013-08-12 14:25:00,
2013-08-12 07:26:00,81.0,34.6,29.32,North,6,2.5,3.4,18,-99.99,,,0.00,1596,rob ver 1A,2013-08-12 14:26:00,
2013-08-12 07:27:00,81.1,25.1,29.35,ESE,114,4.6,5.5,12,-99.99,,,0.00,1627,rob ver 1B,2013-08-12 14:27:00,
2013-08-12 07:28:00,81.1,25.1,29.35,ESE,115,4.8,5.7,12,-99.99,,,0.00,1653,rob ver 1B,2013-08-12 14:28:00,
2013-08-12 07:29:00,81.2,25.2,29.35,ESE,114,4.8,5.6,12,-99.99,,,0.00,1675,rob ver 1B,2013-08-12 14:29:00,
2013-08-12 07:30:00,81.2,25.2,29.35,ESE,118,4.1,4.9,12,-99.99,,,0.00,1697,rob ver 1B,2013-08-12 14:30:00,
2013-08-12 07:31:00,82.1,34.4,29.32,North,355,2.0,2.4,17,-99.99,,,0.00,1720,rob ver 1A,2013-08-12 14:31:00,
2013-08-12 07:32:00,81.3,25.2,29.35,ESE,119,4.1,5.0,12,-99.99,,,0.00,1746,rob ver 1B,2013-08-12 14:32:00,
2013-08-12 07:33:00,81.4,25.4,29.35,ESE,114,3.6,5.1,13,-99.99,,,0.00,1772,rob ver 1B,2013-08-12 14:33:00,
2013-08-12 07:34:00,81.6,25.6,29.35,ESE,121,3.6,4.4,12,-99.99,,,0.00,1796,rob ver 1B,2013-08-12 14:34:00,
2013-08-12 07:35:00,81.8,25.7,29.35,ESE,118,4.0,5.4,12,-99.99,,,0.00,1821,rob ver 1B,2013-08-12 14:35:00,
2013-08-12 07:36:00,83.9,34.5,29.32,NW,313,0.8,1.1,16,-99.99,,,0.00,1846,rob ver 1A,2013-08-12 14:36:00,
2013-08-12 07:37:00,81.9,25.9,29.35,SE,127,3.2,3.7,12,-99.99,,,0.00,1870,rob ver 1B,2013-08-12 14:37:00,
2013-08-12 07:38:00,82.0,25.9,29.35,SE,127,3.2,3.9,12,-99.99,,,0.00,1894,rob ver 1B,2013-08-12 14:38:00,
2013-08-12 07:39:00,82.1,25.9,29.35,SE,128,2.7,3.4,12,-99.99,,,0.00,1918,rob ver 1B,2013-08-12 14:39:00,
2013-08-12 07:40:00,82.2,25.8,29.35,ESE,118,2.8,3.7,12,-99.99,,,0.00,1942,rob ver 1B,2013-08-12 14:40:00,
2013-08-12 07:41:00,86.0,33.3,29.32,ENE,68,1.3,2.6,15,-99.99,,,0.00,1967,rob ver 1A,2013-08-12 14:41:00,
2013-08-12 07:42:00,82.4,25.6,29.35,East,96,3.4,4.8,12,-99.99,,,0.00,1993,rob ver 1B,2013-08-12 14:42:00,
2013-08-12 07:43:00,82.5,25.8,29.35,East,90,3.7,4.7,12,-99.99,,,0.00,2017,rob ver 1B,2013-08-12 14:43:00,
2013-08-12 07:44:00,82.6,25.5,29.35,East,87,5.2,7.6,12,-99.99,,,0.00,2043,rob ver 1B,2013-08-12 14:44:00,
2013-08-12 07:45:00,82.9,25.2,29.38,East,92,5.6,7.5,12,-99.99,,,0.00,2068,rob ver 1B,2013-08-12 14:45:00,
2013-08-12 07:46:00,83.1,25.3,29.38,East,92,6.4,8.4,11,-99.99,,,0.00,2094,rob ver 1B,2013-08-12 14:46:00,
2013-08-12 07:47:00,87.0,33.5,29.32,ENE,71,1.4,3.1,14,-99.99,,,0.00,2090,rob ver 1A,2013-08-12 14:47:00,
2013-08-12 07:48:00,83.5,25.2,29.38,East,93,6.6,8.6,11,-99.99,,,0.00,2145,rob ver 1B,2013-08-12 14:48:00,
2013-08-12 07:49:00,83.7,24.9,29.38,East,97,7.5,8.5,11,-99.99,,,0.00,2172,rob ver 1B,2013-08-12 14:49:00,
2013-08-12 07:50:00,83.9,25.0,29.38,East,97,7.1,9.1,11,-99.99,,,0.00,2195,rob ver 1B,2013-08-12 14:50:00,
2013-08-12 07:51:00,84.0,25.0,29.38,East,96,8.0,9.1,11,-99.99,,,0.00,2223,rob ver 1B,2013-08-12 14:51:00,
2013-08-12 07:52:00,86.8,33.2,29.32,ENE,60,1.9,2.5,14,-99.99,,,0.00,2219,rob ver 1A,2013-08-12 14:52:00,
2013-08-12 07:53:00,84.4,25.2,29.38,East,90,7.2,9.4,11,-99.99,,,0.00,2271,rob ver 1B,2013-08-12 14:53:00,
2013-08-12 07:54:00,84.4,25.0,29.38,East,89,8.1,10.1,11,-99.99,,,0.00,2296,rob ver 1B,2013-08-12 14:54:00,
2013-08-12 07:55:00,84.5,25.1,29.38,East,92,7.1,9.1,11,-99.99,,,0.00,2321,rob ver 1B,2013-08-12 14:55:00,
2013-08-12 07:56:00,84.6,25.2,29.38,East,99,8.1,9.5,11,-99.99,,,0.00,2349,rob ver 1B,2013-08-12 14:56:00,
2013-08-12 07:57:00,86.0,33.0,29.32,NE,43,2.5,3.3,15,-99.99,,,0.00,2343,rob ver 1A,2013-08-12 14:57:00,
2013-08-12 07:58:00,84.8,25.2,29.38,East,96,7.6,10.0,11,-99.99,,,0.00,2397,rob ver 1B,2013-08-12 14:58:00,
2013-08-12 07:59:00,84.9,25.2,29.38,East,91,8.3,10.1,11,-99.99,,,0.00,2423,rob ver 1B,2013-08-12 14:59:00,
2013-08-12 08:00:00,85.0,25.1,29.38,East,88,8.9,12.2,11,-99.99,,,0.00,2447,rob ver 1B,2013-08-12 15:00:00,
2013-08-12 08:01:00,85.0,24.8,29.38,East,87,10.6,12.1,11,-99.99,,,0.00,2467,rob ver 1B,2013-08-12 15:01:00,
2013-08-12 08:02:00,86.6,33.3,29.32,ENE,77,2.0,3.4,14,-99.99,,,0.00,2471,rob ver 1A,2013-08-12 15:02:00,
2013-08-12 08:03:00,85.0,25.0,29.38,East,86,9.0,11.8,11,-99.99,,,0.00,2518,rob ver 1B,2013-08-12 15:03:00,
2013-08-12 08:04:00,84.9,24.7,29.38,East,88,11.1,12.9,11,-99.99,,,0.00,2542,rob ver 1B,2013-08-12 15:04:00,
2013-08-12 08:05:00,84.9,24.7,29.38,East,87,9.7,12.3,11,-99.99,,,0.00,2567,rob ver 1B,2013-08-12 15:05:00,
2013-08-12 08:06:00,85.0,24.8,29.38,East,87,9.6,11.6,11,-99.99,,,0.00,2591,rob ver 1B,2013-08-12 15:06:00,
2013-08-12 08:07:00,87.6,33.3,29.32,NNE,26,1.4,2.1,14,-99.99,,,0.00,2597,rob ver 1A,2013-08-12 15:07:00,
2013-08-12 08:08:00,85.2,24.8,29.38,East,90,8.8,10.7,10,-99.99,,,0.00,2643,rob ver 1B,2013-08-12 15:08:00,
2013-08-12 08:09:00,85.3,24.6,29.38,East,83,9.1,11.5,10,-99.99,,,0.00,2664,rob ver 1B,2013-08-12 15:09:00,
2013-08-12 08:10:00,85.3,24.6,29.38,East,86,10.1,11.9,10,-99.99,,,0.00,2693,rob ver 1B,2013-08-12 15:10:00,
2013-08-12 08:11:00,85.3,24.6,29.38,East,87,9.8,12.4,10,-99.99,,,0.00,0,rob ver 1B,2013-08-12 15:11:00,
2013-08-12 08:12:00,88.3,32.4,29.32,ENE,67,2.3,2.9,13,-99.99,,,0.00,0,rob ver 1A,2013-08-12 15:12:00,
2013-08-12 08:13:00,85.4,24.6,29.38,East,83,9.9,12.4,10,-99.99,,,0.00,0,rob ver 1B,2013-08-12 15:13:00,
2013-08-12 08:14:00,85.4,24.6,29.38,East,80,9.1,13.0,10,-99.99,,,0.00,0,rob ver 1B,2013-08-12 15:14:00,
2013-08-12 08:15:00,85.5,24.6,29.38,ENE,75,8.7,11.1,10,-99.99,,,0.00,0,rob ver 1B,2013-08-12 15:15:00,
2013-08-12 08:16:00,85.6,24.6,29.38,East,85,8.3,10.0,10,-99.99,,,0.00,0,rob ver 1B,2013-08-12 15:16:00,
2013-08-12 08:17:00,88.2,32.6,29.32,East,88,2.8,4.0,13,-99.99,,,0.00,0,rob ver 1A,2013-08-12 15:17:00,
2013-08-12 08:18:00,85.8,24.5,29.38,East,85,9.3,10.9,10,-99.99,,,0.00,0,rob ver 1B,2013-08-12 15:18:00,
2013-08-12 08:19:00,85.8,24.6,29.38,East,86,8.3,10.9,10,-99.99,,,0.00,0,rob ver 1B,2013-08-12 15:19:00,
2013-08-12 08:20:00,85.8,24.5,29.38,East,81,7.8,10.1,10,-99.99,,,0.00,0,rob ver 1B,2013-08-12 15:20:00,
2013-08-12 08:21:00,85.9,24.6,29.38,East,90,7.9,9.9,10,-99.99,,,0.00,0,rob ver 1B,2013-08-12 15:21:00,
2013-08-12 08:22:00,88.3,32.6,29.32,ENE,65,1.9,2.5,13,-99.99,,,0.00,0,rob ver 1A,2013-08-12 15:22:00,
2013-08-12 08:23:00,86.4,24.4,29.38,East,99,8.5,10.1,10,-99.99,,,0.00,0,rob ver 1B,2013-08-12 15:23:00,
2013-08-12 08:24:00,86.4,24.6,29.38,ESE,102,7.3,9.4,10,-99.99,,,0.00,0,rob ver 1B,2013-08-12 15:24:00,
2013-08-12 08:25:00,86.4,24.6,29.38,East,100,8.5,10.1,10,-99.99,,,0.00,0,rob ver 1B,2013-08-12 15:25:00,
2013-08-12 08:26:00,86.4,24.5,29.38,ESE,103,8.1,9.6,10,-99.99,,,0.00,0,rob ver 1B,2013-08-12 15:26:00,
2013-08-12 08:27:00,88.7,32.7,29.32,NE,55,1.3,2.4,13,-99.99,,,0.00,0,rob ver 1A,2013-08-12 15:27:00,
2013-08-12 08:28:00,86.5,24.6,29.38,East,87,6.4,8.3,10,-99.99,,,0.00,0,rob ver 1B,2013-08-12 15:28:00,
2013-08-12 08:29:00,86.8,24.7,29.38,East,95,6.8,9.4,10,-99.99,,,0.00,0,rob ver 1B,2013-08-12 15:29:00,
2013-08-12 08:30:00,86.9,24.5,29.38,ESE,110,7.8,9.8,10,-99.99,,,0.00,0,rob ver 1B,2013-08-12 15:30:00,
2013-08-12 08:31:00,86.8,24.7,29.38,ESE,113,7.2,8.5,10,-99.99,,,0.00,0,rob ver 1B,2013-08-12 15:31:00,
2013-08-12 08:32:00,89.7,32.9,29.32,ESE,121,2.6,3.9,13,-99.99,,,0.00,0,rob ver 1A,2013-08-12 15:32:00,
2013-08-12 08:33:00,86.8,26.5,29.38,SE,131,8.2,9.6,11,-99.99,,,0.00,0,rob ver 1B,2013-08-12 15:33:00,
2013-08-12 08:34:00,86.7,26.3,29.38,SE,145,6.6,9.5,11,-99.99,,,0.00,0,rob ver 1B,2013-08-12 15:34:00,
2013-08-12 08:35:00,86.6,27.0,29.38,SSE,151,6.6,7.8,12,-99.99,,,0.00,0,rob ver 1B,2013-08-12 15:35:00,
2013-08-12 08:36:00,86.4,28.0,29.38,SSE,147,7.2,8.8,12,-99.99,,,0.00,0,rob ver 1B,2013-08-12 15:36:00,
2013-08-12 08:37:00,86.0,28.1,29.38,SSE,152,7.1,8.6,12,-99.99,,,0.00,0,rob ver 1B,2013-08-12 15:37:00,
2013-08-12 08:38:00,89.2,32.8,29.32,ESE,113,1.9,2.8,13,-99.99,,,0.00,0,rob ver 1A,2013-08-12 15:38:00,
2013-08-12 08:39:00,85.6,28.1,29.38,SSE,154,5.7,7.2,12,-99.99,,,0.00,0,rob ver 1B,2013-08-12 15:39:00,
2013-08-12 08:40:00,85.6,27.6,29.38,SE,142,5.6,6.9,11,-99.99,,,0.00,0,rob ver 1B,2013-08-12 15:40:00,
2013-08-12 08:41:00,85.7,27.4,29.38,SE,129,5.7,7.0,12,-99.99,,,0.00,0,rob ver 1B,2013-08-12 15:41:00,
2013-08-12 08:42:00,85.6,27.5,29.38,ESE,118,5.6,7.0,12,-99.99,,,0.00,0,rob ver 1B,2013-08-12 15:42:00,
2013-08-12 08:43:00,90.5,32.8,29.32,NNW,333,1.1,1.6,12,-99.99,,,0.00,0,rob ver 1A,2013-08-12 15:43:00,
2013-08-12 08:44:00,85.6,27.8,29.38,SE,133,4.3,7.0,12,-99.99,,,0.00,0,rob ver 1B,2013-08-12 15:44:00,
2013-08-12 08:45:00,85.7,27.6,29.41,SE,129,6.3,7.2,12,-99.99,,,0.00,0,rob ver 1B,2013-08-12 15:45:00,
2013-08-12 08:46:00,85.7,27.6,29.38,SE,135,6.0,7.2,12,-99.99,,,0.00,0,rob ver 1B,2013-08-12 15:46:00,
2013-08-12 08:47:00,85.9,27.6,29.38,SE,124,6.2,7.3,12,-99.99,,,0.00,0,rob ver 1B,2013-08-12 15:47:00,
2013-08-12 08:48:00,91.6,33.0,29.32,SE,140,2.0,2.8,12,-99.99,,,0.00,0,rob ver 1A,2013-08-12 15:48:00,
2013-08-12 08:49:00,86.1,27.1,29.41,ESE,115,5.9,7.8,11,-99.99,,,0.00,0,rob ver 1B,2013-08-12 15:49:00,
2013-08-12 08:50:00,86.3,27.0,29.41,ESE,108,5.8,7.2,11,-99.99,,,0.00,0,rob ver 1B,2013-08-12 15:50:00,
2013-08-12 08:51:00,86.5,26.8,29.38,East,100,4.8,6.1,11,-99.99,,,0.00,0,rob ver 1B,2013-08-12 15:51:00,
2013-08-12 08:52:00,86.8,26.8,29.38,ESE,118,5.3,6.6,11,-99.99,,,0.00,0,rob ver 1B,2013-08-12 15:52:00,
2013-08-12 08:53:00,91.4,32.7,29.32,ESE,123,1.8,3.2,12,-99.99,,,0.00,0,rob ver 1A,2013-08-12 15:53:00,
2013-08-12 08:54:00,86.9,27.1,29.41,ESE,117,5.8,7.8,11,-99.99,,,0.00,0,rob ver 1B,2013-08-12 15:54:00,
2013-08-12 08:55:00,87.2,27.0,29.41,ESE,120,4.3,6.4,11,-99.99,,,0.00,0,rob ver 1B,2013-08-12 15:55:00,
2013-08-12 08:56:00,87.3,26.8,29.38,ESE,103,4.8,6.2,11,-99.99,,,0.00,0,rob ver 1B,2013-08-12 15:56:00,
2013-08-12 08:57:00,87.5,26.8,29.41,ESE,111,5.1,6.9,10,-99.99,,,0.00,0,rob ver 1B,2013-08-12 15:57:00,
2013-08-12 08:58:00,91.0,33.2,29.32,SSE,158,0.8,1.8,12,-99.99,,,0.00,0,rob ver 1A,2013-08-12 15:58:00,
2013-08-12 08:59:00,88.1,25.8,29.41,East,97,5.7,6.8,10,-99.99,,,0.00,0,rob ver 1B,2013-08-12 15:59:00,
2013-08-12 09:00:00,88.1,25.6,29.41,East,89,5.6,8.2,10,-99.99,,,0.00,0,rob ver 1B,2013-08-12 16:00:00,
2013-08-12 09:01:00,88.1,24.8,29.38,East,81,6.5,8.3,9,-99.99,,,0.00,0,rob ver 1B,2013-08-12 16:01:00,
2013-08-12 09:02:00,88.3,25.0,29.41,ENE,73,5.5,7.6,9,-99.99,,,0.00,0,rob ver 1B,2013-08-12 16:02:00,
2013-08-12 09:03:00,91.7,33.2,29.32,East,90,2.6,4.0,12,-99.99,,,0.00,0,rob ver 1A,2013-08-12 16:03:00,
2013-08-12 09:04:00,88.6,24.6,29.41,East,79,6.5,8.3,9,-99.99,,,0.00,0,rob ver 1B,2013-08-12 16:04:00,
2013-08-12 09:05:00,88.7,24.4,29.41,East,89,5.8,7.3,9,-99.99,,,0.00,0,rob ver 1B,2013-08-12 16:05:00,
2013-08-12 09:06:00,88.8,24.6,29.38,East,81,6.8,9.0,9,-99.99,,,0.00,0,rob ver 1B,2013-08-12 16:06:00,
2013-08-12 09:07:00,88.7,24.5,29.41,East,86,7.6,9.8,9,-99.99,,,0.00,0,rob ver 1B,2013-08-12 16:07:00,
2013-08-12 09:08:00,92.1,33.4,29.32,SSE,154,2.5,4.3,12,-99.99,,,0.00,0,rob ver 1A,2013-08-12 16:08:00,
2013-08-12 09:09:00,88.8,24.3,29.41,ENE,66,5.2,7.0,9,-99.99,,,0.00,0,rob ver 1B,2013-08-12 16:09:00,
2013-08-12 09:10:00,89.0,24.6,29.38,East,82,7.5,9.0,9,-99.99,,,0.00,0,rob ver 1B,2013-08-12 16:10:00,
2013-08-12 09:11:00,89.2,24.4,29.38,ENE,76,7.9,10.3,9,-99.99,,,0.00,0,rob ver 1B,2013-08-12 16:11:00,
2013-08-12 09:12:00,89.2,23.9,29.41,ENE,70,7.2,10.0,9,-99.99,,,0.00,0,rob ver 1B,2013-08-12 16:12:00,
2013-08-12 09:13:00,92.4,33.6,29.32,South,182,1.5,3.0,12,-99.99,,,0.00,0,rob ver 1A,2013-08-12 16:13:00,
2013-08-12 09:14:00,89.6,23.9,29.38,East,83,8.7,11.3,9,-99.99,,,0.00,0,rob ver 1B,2013-08-12 16:14:00,
2013-08-12 09:15:00,89.5,23.9,29.38,East,81,7.5,9.4,9,-99.99,,,0.00,0,rob ver 1B,2013-08-12 16:15:00,
2013-08-12 09:16:00,89.5,24.2,29.38,East,90,6.8,9.4,9,-99.99,,,0.00,0,rob ver 1B,2013-08-12 16:16:00,
2013-08-12 09:17:00,89.7,24.0,29.41,East,84,7.9,9.8,9,-99.99,,,0.00,0,rob ver 1B,2013-08-12 16:17:00,
2013-08-12 09:18:00,89.8,24.0,29.38,East,87,9.1,11.5,9,-99.99,,,0.00,0,rob ver 1B,2013-08-12 16:18:00,
2013-08-12 09:19:00,92.2,33.6,29.32,SSE,152,2.8,5.1,12,-99.99,,,0.00,0,rob ver 1A,2013-08-12 16:19:00,
2013-08-12 09:20:00,89.9,24.0,29.38,East,92,5.2,7.3,9,-99.99,,,0.00,0,rob ver 1B,2013-08-12 16:20:00,
2013-08-12 09:21:00,90.1,24.1,29.38,East,98,5.0,6.8,9,-99.99,,,0.00,0,rob ver 1B,2013-08-12 16:21:00,
2013-08-12 09:22:00,90.3,23.9,29.41,ESE,105,5.0,6.8,8,-99.99,,,0.00,0,rob ver 1B,2013-08-12 16:22:00,
2013-08-12 09:23:00,90.4,23.7,29.38,ESE,111,5.7,8.4,8,-99.99,,,0.00,0,rob ver 1B,2013-08-12 16:23:00,
2013-08-12 09:24:00,92.2,33.4,29.32,SSW,199,3.3,5.0,12,-99.99,,,0.00,0,rob ver 1A,2013-08-12 16:24:00,
2013-08-12 09:25:00,90.7,23.7,29.41,ENE,77,5.2,7.3,8,-99.99,,,0.00,0,rob ver 1B,2013-08-12 16:25:00,
2013-08-12 09:26:00,90.8,23.6,29.41,East,79,5.2,7.3,8,-99.99,,,0.00,0,rob ver 1B,2013-08-12 16:26:00,
2013-08-12 09:27:00,91.0,23.7,29.41,East,84,6.1,7.5,8,-99.99,,,0.00,0,rob ver 1B,2013-08-12 16:27:00,
2013-08-12 09:28:00,91.1,23.7,29.41,ESE,103,6.9,8.6,8,-99.99,,,0.00,0,rob ver 1B,2013-08-12 16:28:00,
2013-08-12 09:29:00,92.9,33.8,29.35,SW,230,1.8,2.8,12,-99.99,,,0.00,0,rob ver 1A,2013-08-12 16:29:00,
2013-08-12 09:30:00,91.3,23.3,29.38,East,87,7.7,10.0,8,-99.99,,,0.00,0,rob ver 1B,2013-08-12 16:30:00,
2013-08-12 09:31:00,91.2,23.1,29.41,East,99,8.4,12.4,8,-99.99,,,0.00,0,rob ver 1B,2013-08-12 16:31:00,
2013-08-12 09:32:00,91.1,22.9,29.41,ESE,111,7.4,9.9,8,-99.99,,,0.00,0,rob ver 1B,2013-08-12 16:32:00,
2013-08-12 09:33:00,91.1,23.0,29.38,ESE,112,8.6,10.5,8,-99.99,,,0.00,0,rob ver 1B,2013-08-12 16:33:00,
2013-08-12 09:34:00,92.9,33.7,29.35,SSE,163,4.4,6.1,12,-99.99,,,0.00,0,rob ver 1A,2013-08-12 16:34:00,
2013-08-12 09:35:00,90.7,23.2,29.41,ESE,114,4.8,7.2,8,-99.99,,,0.00,0,rob ver 1B,2013-08-12 16:35:00,
2013-08-12 09:36:00,90.9,23.4,29.41,ESE,107,3.5,5.1,8,-99.99,,,0.00,0,rob ver 1B,2013-08-12 16:36:00,
2013-08-12 09:37:00,91.2,23.3,29.38,SE,136,4.8,7.4,8,-99.99,,,0.00,0,rob ver 1B,2013-08-12 16:37:00,
2013-08-12 09:38:00,91.3,23.4,29.38,SE,133,4.5,6.0,8,-99.99,,,0.00,0,rob ver 1B,2013-08-12 16:38:00,
2013-08-12 09:39:00,92.2,34.0,29.35,SW,218,3.2,4.0,12,-99.99,,,0.00,0,rob ver 1A,2013-08-12 16:39:00,
2013-08-12 09:40:00,91.6,23.3,29.38,East,96,6.1,8.3,8,-99.99,,,0.00,0,rob ver 1B,2013-08-12 16:40:00,
2013-08-12 09:41:00,91.8,23.2,29.38,ESE,123,6.4,8.6,8,-99.99,,,0.00,0,rob ver 1B,2013-08-12 16:41:00,
2013-08-12 09:42:00,91.8,23.4,29.38,ESE,120,4.6,7.7,8,-99.99,,,0.00,0,rob ver 1B,2013-08-12 16:42:00,
2013-08-12 09:43:00,91.9,23.3,29.38,ESE,115,4.2,7.0,8,-99.99,,,0.00,0,rob ver 1B,2013-08-12 16:43:00,
2013-08-12 09:44:00,92.1,34.5,29.35,SSE,147,4.2,5.7,13,-99.99,,,0.00,0,rob ver 1A,2013-08-12 16:44:00,
2013-08-12 09:45:00,92.1,23.0,29.38,SE,130,5.6,8.3,8,-99.99,,,0.00,0,rob ver 1B,2013-08-12 16:45:00,
2013-08-12 09:46:00,92.1,23.1,29.38,SE,141,6.5,8.1,8,-99.99,,,0.00,0,rob ver 1B,2013-08-12 16:46:00,
2013-08-12 09:47:00,91.9,23.0,29.38,ESE,121,4.1,5.6,8,-99.99,,,0.00,0,rob ver 1B,2013-08-12 16:47:00,
2013-08-12 09:48:00,91.8,23.2,29.38,SE,129,4.5,8.3,8,-99.99,,,0.00,0,rob ver 1B,2013-08-12 16:48:00,
2013-08-12 09:49:00,92.2,34.4,29.35,SSE,167,5.9,8.4,13,-99.99,,,0.00,0,rob ver 1A,2013-08-12 16:49:00,
2013-08-12 09:50:00,92.1,23.8,29.41,SE,126,5.7,7.8,8,-99.99,,,0.00,0,rob ver 1B,2013-08-12 16:50:00,
2013-08-12 09:51:00,92.4,23.5,29.38,SE,137,3.5,5.9,8,-99.99,,,0.00,0,rob ver 1B,2013-08-12 16:51:00,
2013-08-12 09:52:00,92.6,23.5,29.41,SSE,151,3.9,5.2,8,-99.99,,,0.00,0,rob ver 1B,2013-08-12 16:52:00,
2013-08-12 09:53:00,92.7,23.3,29.38,East,101,4.2,5.7,8,-99.99,,,0.00,0,rob ver 1B,2013-08-12 16:53:00,
2013-08-12 09:54:00,91.9,34.2,29.35,SSW,209,6.2,10.7,13,-99.99,,,0.00,0,rob ver 1A,2013-08-12 16:54:00,
2013-08-12 09:55:00,92.9,23.3,29.41,SE,124,5.0,6.3,8,-99.99,,,0.00,0,rob ver 1B,2013-08-12 16:55:00,
2013-08-12 09:56:00,93.0,23.5,29.38,ESE,106,6.8,11.6,8,-99.99,,,0.00,0,rob ver 1B,2013-08-12 16:56:00,
2013-08-12 09:57:00,93.1,23.5,29.38,SE,134,8.7,11.2,7,-99.99,,,0.00,0,rob ver 1B,2013-08-12 16:57:00,
2013-08-12 09:58:00,93.0,23.0,29.38,SE,141,7.1,8.8,7,-99.99,,,0.00,0,rob ver 1B,2013-08-12 16:58:00,
2013-08-12 09:59:00,92.4,34.8,29.35,South,190,4.4,6.5,13,-99.99,,,0.00,0,rob ver 1A,2013-08-12 16:59:00,
2013-08-12 10:00:00,92.9,23.2,29.41,ESE,120,4.7,6.8,8,-99.99,,,0.00,0,rob ver 1B,2013-08-12 17:00:00,
2013-08-12 10:01:00,93.1,23.2,29.41,SE,124,7.0,9.9,8,-99.99,,,0.00,0,rob ver 1B,2013-08-12 17:01:00,
2013-08-12 10:02:00,93.0,23.5,29.38,ESE,112,6.3,10.0,7,-99.99,,,0.00,0,rob ver 1B,2013-08-12 17:02:00,
2013-08-12 10:03:00,93.0,23.3,29.38,ESE,113,4.0,6.7,8,-99.99,,,0.00,0,rob ver 1B,2013-08-12 17:03:00,
2013-08-12 10:04:00,92.9,34.8,29.35,South,185,4.9,7.2,13,-99.99,,,0.00,0,rob ver 1A,2013-08-12 17:04:00,
2013-08-12 10:05:00,93.1,23.5,29.41,ESE,105,4.5,6.2,8,-99.99,,,0.00,0,rob ver 1B,2013-08-12 17:05:00,
2013-08-12 10:06:00,93.3,23.4,29.41,East,95,6.7,8.6,7,-99.99,,,0.00,0,rob ver 1B,2013-08-12 17:06:00,
2013-08-12 10:07:00,93.1,23.1,29.41,East,94,5.6,8.0,8,-99.99,,,0.00,0,rob ver 1B,2013-08-12 17:07:00,
2013-08-12 10:08:00,93.2,23.3,29.38,ESE,109,5.0,6.8,7,-99.99,,,0.00,0,rob ver 1B,2013-08-12 17:08:00,
2013-08-12 10:09:00,92.3,34.8,29.35,South,169,4.8,8.3,13,-99.99,,,0.00,0,rob ver 1A,2013-08-12 17:09:00,
2013-08-12 10:12:00,93.6,23.2,29.38,East,94,3.1,4.1,7,-99.99,,,0.00,0,rob ver 1B,2013-08-12 17:12:00,
2013-08-12 10:13:00,93.7,24.2,29.41,NNE,29,2.2,3.5,8,-99.99,,,0.00,0,rob ver 1B,2013-08-12 17:13:00,
2013-08-12 10:14:00,92.4,34.6,29.35,SSE,168,4.5,8.8,13,-99.99,,,0.00,0,rob ver 1A,2013-08-12 17:14:00,
2013-08-12 10:15:00,94.4,25.0,29.41,NNE,26,1.8,3.4,8,-99.99,,,0.00,0,rob ver 1B,2013-08-12 17:15:00,
2013-08-12 10:16:00,94.7,23.6,29.38,NE,54,2.3,4.1,7,-99.99,,,0.00,0,rob ver 1B,2013-08-12 17:16:00,
2013-08-12 10:17:00,94.9,24.2,29.38,East,79,2.1,3.7,7,-99.99,,,0.00,0,rob ver 1B,2013-08-12 17:17:00,
2013-08-12 10:18:00,95.3,23.7,29.41,SSE,154,4.0,6.3,7,-99.99,,,0.00,0,rob ver 1B,2013-08-12 17:18:00,
2013-08-12 10:19:00,95.1,23.7,29.41,ESE,120,3.0,5.6,7,-99.99,,,0.00,0,rob ver 1B,2013-08-12 17:19:00,
2013-08-12 10:20:00,92.6,34.8,29.35,South,183,3.4,5.5,13,-99.99,,,0.00,0,rob ver 1A,2013-08-12 17:20:00,
2013-08-12 10:21:00,95.2,24.0,29.38,SSE,165,3.2,5.0,7,-99.99,,,0.00,0,rob ver 1B,2013-08-12 17:21:00,
2013-08-12 10:22:00,95.3,24.0,29.38,SSE,153,2.6,4.5,7,-99.99,,,0.00,0,rob ver 1B,2013-08-12 17:22:00,
2013-08-12 10:23:00,95.1,23.3,29.38,SE,138,5.8,8.1,7,-99.99,,,0.00,0,rob ver 1B,2013-08-12 17:23:00,
2013-08-12 10:24:00,94.8,23.2,29.38,ESE,103,7.0,10.3,7,-99.99,,,0.00,0,rob ver 1B,2013-08-12 17:24:00,
2013-08-12 10:25:00,93.0,34.9,29.35,SSW,208,4.6,5.5,12,-99.99,,,0.00,0,rob ver 1A,2013-08-12 17:25:00,
2013-08-12 10:26:00,94.5,23.3,29.38,ESE,122,5.4,8.1,7,-99.99,,,0.00,0,rob ver 1B,2013-08-12 17:26:00,
2013-08-12 10:27:00,94.9,24.0,29.38,SE,126,6.3,9.3,7,-99.99,,,0.00,0,rob ver 1B,2013-08-12 17:27:00,
2013-08-12 10:28:00,95.2,23.6,29.38,SE,134,6.4,8.0,7,-99.99,,,0.00,0,rob ver 1B,2013-08-12 17:28:00,
2013-08-12 10:29:00,95.2,23.4,29.38,SSE,153,6.1,8.2,7,-99.99,,,0.00,0,rob ver 1B,2013-08-12 17:29:00,
2013-08-12 10:30:00,93.2,34.6,29.35,SSE,165,2.9,4.8,12,-99.99,,,0.00,0,rob ver 1A,2013-08-12 17:30:00,
2013-08-12 10:31:00,94.9,23.3,29.38,ESE,121,7.2,9.8,7,-99.99,,,0.00,0,rob ver 1B,2013-08-12 17:31:00,
2013-08-12 10:32:00,94.8,23.2,29.38,SE,131,4.8,6.7,7,-99.99,,,0.00,0,rob ver 1B,2013-08-12 17:32:00,
2013-08-12 10:33:00,94.7,23.3,29.38,SE,142,5.0,7.5,7,-99.99,,,0.00,0,rob ver 1B,2013-08-12 17:33:00,
2013-08-12 10:34:00,94.6,23.3,29.38,SE,144,4.0,5.6,7,-99.99,,,0.00,0,rob ver 1B,2013-08-12 17:34:00,
2013-08-12 10:35:00,93.7,34.1,29.35,SSE,151,8.1,9.6,12,-99.99,,,0.00,0,rob ver 1A,2013-08-12 17:35:00,
2013-08-12 10:36:00,94.6,23.8,29.38,NE,49,1.9,3.2,8,-99.99,,,0.00,0,rob ver 1B,2013-08-12 17:36:00,
2013-08-12 10:37:00,95.0,23.8,29.38,SE,125,4.4,6.8,7,-99.99,,,0.00,0,rob ver 1B,2013-08-12 17:37:00,
2013-08-12 10:38:00,95.5,23.9,29.38,SE,133,6.2,8.2,7,-99.99,,,0.00,0,rob ver 1B,2013-08-12 17:38:00,
2013-08-12 10:39:00,95.7,23.6,29.38,SSE,148,7.5,10.4,7,-99.99,,,0.00,0,rob ver 1B,2013-08-12 17:39:00,
2013-08-12 10:40:00,93.4,34.8,29.35,SSE,158,3.2,6.3,12,-99.99,,,0.00,0,rob ver 1A,2013-08-12 17:40:00,
2013-08-12 10:41:00,95.8,23.5,29.38,ESE,121,6.8,11.4,7,-99.99,,,0.00,0,rob ver 1B,2013-08-12 17:41:00,
2013-08-12 10:42:00,95.6,23.3,29.38,ESE,120,6.7,9.1,7,-99.99,,,0.00,0,rob ver 1B,2013-08-12 17:42:00,
2013-08-12 10:43:00,95.5,23.2,29.38,East,100,7.5,10.9,7,-99.99,,,0.00,0,rob ver 1B,2013-08-12 17:43:00,
2013-08-12 10:44:00,95.3,23.2,29.38,East,96,3.6,6.0,7,-99.99,,,0.00,0,rob ver 1B,2013-08-12 17:44:00,
2013-08-12 10:45:00,94.1,34.9,29.35,South,170,8.5,11.4,12,-99.99,,,0.00,0,rob ver 1A,2013-08-12 17:45:00,
2013-08-12 10:46:00,95.4,23.6,29.38,East,85,6.0,8.0,7,-99.99,,,0.00,0,rob ver 1B,2013-08-12 17:46:00,
2013-08-12 10:47:00,95.5,24.3,29.38,ESE,117,5.7,7.5,7,-99.99,,,0.00,0,rob ver 1B,2013-08-12 17:47:00,
2013-08-12 10:48:00,95.8,25.2,29.38,South,176,5.3,8.6,7,-99.99,,,0.00,0,rob ver 1B,2013-08-12 17:48:00,
2013-08-12 10:49:00,96.0,24.8,29.38,SSE,158,7.7,13.5,7,-99.99,,,0.00,0,rob ver 1B,2013-08-12 17:49:00,
2013-08-12 10:50:00,94.2,35.3,29.35,South,189,2.6,5.5,12,-99.99,,,0.00,0,rob ver 1A,2013-08-12 17:50:00,
2013-08-12 10:51:00,96.7,24.7,29.38,SE,136,6.1,8.8,7,-99.99,,,0.00,0,rob ver 1B,2013-08-12 17:51:00,
2013-08-12 10:52:00,96.6,24.9,29.38,SSE,154,8.8,11.4,7,-99.99,,,0.00,0,rob ver 1B,2013-08-12 17:52:00,
2013-08-12 10:53:00,96.3,25.2,29.38,SE,131,7.4,9.1,8,-99.99,,,0.00,0,rob ver 1B,2013-08-12 17:53:00,
2013-08-12 10:54:00,96.3,25.3,29.38,SSE,168,7.3,10.0,8,-99.99,,,0.00,0,rob ver 1B,2013-08-12 17:54:00,
2013-08-12 10:55:00,94.3,35.0,29.35,SW,217,4.7,7.8,12,-99.99,,,0.00,0,rob ver 1A,2013-08-12 17:55:00,
2013-08-12 10:56:00,96.2,25.4,29.38,South,175,8.0,13.2,8,-99.99,,,0.00,0,rob ver 1B,2013-08-12 17:56:00,
2013-08-12 10:57:00,96.1,25.1,29.38,ESE,108,6.7,10.2,7,-99.99,,,0.00,0,rob ver 1B,2013-08-12 17:57:00,
2013-08-12 10:58:00,95.7,25.1,29.38,SE,125,5.3,7.9,8,-99.99,,,0.00,0,rob ver 1B,2013-08-12 17:58:00,
2013-08-12 10:59:00,95.5,25.3,29.38,SE,142,4.3,6.8,8,-99.99,,,0.00,0,rob ver 1B,2013-08-12 17:59:00,
2013-08-12 11:00:00,94.7,34.9,29.35,South,180,2.8,5.1,12,-99.99,,,0.00,0,rob ver 1A,2013-08-12 18:00:00,
2013-08-12 11:01:00,95.9,25.5,29.38,SSE,160,3.0,5.0,8,-99.99,,,0.00,0,rob ver 1B,2013-08-12 18:01:00,
2013-08-12 11:02:00,96.1,25.3,29.38,SSE,147,7.2,12.3,7,-99.99,,,0.00,0,rob ver 1B,2013-08-12 18:02:00,
2013-08-12 11:03:00,95.7,25.1,29.38,SE,144,10.1,12.2,7,-99.99,,,0.00,0,rob ver 1B,2013-08-12 18:03:00,
2013-08-12 11:04:00,95.6,25.2,29.38,SSE,152,8.5,10.5,8,-99.99,,,0.00,0,rob ver 1B,2013-08-12 18:04:00,
2013-08-12 11:05:00,94.7,35.6,29.32,SW,230,4.8,7.9,12,-99.99,,,0.00,0,rob ver 1A,2013-08-12 18:05:00,
2013-08-12 11:06:00,95.6,25.1,29.38,South,179,5.4,8.6,8,-99.99,,,0.00,0,rob ver 1B,2013-08-12 18:06:00,
2013-08-12 11:07:00,95.9,25.2,29.38,SE,143,4.7,6.4,7,-99.99,,,0.00,0,rob ver 1B,2013-08-12 18:07:00,
2013-08-12 11:08:00,95.8,24.8,29.38,East,91,4.5,5.8,7,-99.99,,,0.00,0,rob ver 1B,2013-08-12 18:08:00,
2013-08-12 11:09:00,95.6,24.8,29.38,SSE,157,4.8,6.3,7,-99.99,,,0.00,0,rob ver 1B,2013-08-12 18:09:00,
2013-08-12 11:10:00,95.8,24.9,29.38,South,170,3.8,5.2,7,-99.99,,,0.00,0,rob ver 1B,2013-08-12 18:10:00,
2013-08-12 11:11:00,95.1,35.9,29.32,SSW,192,5.6,7.0,12,-99.99,,,0.00,0,rob ver 1A,2013-08-12 18:11:00,
2013-08-12 11:12:00,96.4,25.0,29.38,SSW,196,2.2,3.5,7,-99.99,,,0.00,0,rob ver 1B,2013-08-12 18:12:00,
2013-08-12 11:13:00,96.7,25.1,29.38,South,180,5.0,9.6,7,-99.99,,,0.00,0,rob ver 1B,2013-08-12 18:13:00,
2013-08-12 11:14:00,96.7,25.2,29.38,SE,127,6.4,9.0,7,-99.99,,,0.00,0,rob ver 1B,2013-08-12 18:14:00,
2013-08-12 11:15:00,96.6,24.9,29.38,SE,145,4.3,7.2,7,-99.99,,,0.00,0,rob ver 1B,2013-08-12 18:15:00,
2013-08-12 11:16:00,95.5,35.9,29.32,SSW,213,2.0,4.6,12,-99.99,,,0.00,0,rob ver 1A,2013-08-12 18:16:00,
2013-08-12 11:17:00,96.6,24.6,29.38,South,186,5.4,7.1,7,-99.99,,,0.00,0,rob ver 1B,2013-08-12 18:17:00,
2013-08-12 11:18:00,96.9,24.7,29.38,South,170,6.7,9.6,7,-99.99,,,0.00,0,rob ver 1B,2013-08-12 18:18:00,
2013-08-12 11:19:00,96.9,24.9,29.38,SSE,155,6.6,8.6,7,-99.99,,,0.00,0,rob ver 1B,2013-08-12 18:19:00,
2013-08-12 11:20:00,96.9,25.3,29.38,SSE,149,9.7,15.1,7,-99.99,,,0.00,0,rob ver 1B,2013-08-12 18:20:00,
2013-08-12 11:21:00,96.2,37.4,29.32,SSW,197,7.7,11.8,12,-99.99,,,0.00,0,rob ver 1A,2013-08-12 18:21:00,
2013-08-12 11:22:00,96.4,25.3,29.38,SSE,163,3.5,5.5,7,-99.99,,,0.00,0,rob ver 1B,2013-08-12 18:22:00,
2013-08-12 11:23:00,96.7,24.9,29.38,SSE,168,8.0,11.6,7,-99.99,,,0.00,0,rob ver 1B,2013-08-12 18:23:00,
2013-08-12 11:24:00,97.0,24.7,29.38,South,188,4.5,9.7,7,-99.99,,,0.00,0,rob ver 1B,2013-08-12 18:24:00,
2013-08-12 11:25:00,97.4,24.7,29.38,SW,217,5.9,8.7,7,-99.99,,,0.00,0,rob ver 1B,2013-08-12 18:25:00,
2013-08-12 11:26:00,96.1,37.6,29.32,WSW,250,1.8,3.3,13,-99.99,,,0.00,0,rob ver 1A,2013-08-12 18:26:00,
2013-08-12 11:27:00,97.8,24.9,29.38,SSW,202,7.0,9.8,7,-99.99,,,0.00,0,rob ver 1B,2013-08-12 18:27:00,
2013-08-12 11:28:00,97.8,25.0,29.38,SSW,198,5.8,9.8,7,-99.99,,,0.00,0,rob ver 1B,2013-08-12 18:28:00,
2013-08-12 11:29:00,97.9,25.3,29.38,South,169,7.8,11.5,7,-99.99,,,0.00,0,rob ver 1B,2013-08-12 18:29:00,
2013-08-12 11:30:00,98.0,25.7,29.38,SSE,164,8.5,11.7,7,-99.99,,,0.00,0,rob ver 1B,2013-08-12 18:30:00,
2013-08-12 11:31:00,98.3,25.7,29.38,South,186,5.7,8.1,7,-99.99,,,0.00,0,rob ver 1B,2013-08-12 18:31:00,
2013-08-12 11:32:00,96.3,38.0,29.32,SSW,211,5.1,7.5,13,-99.99,,,0.00,0,rob ver 1A,2013-08-12 18:32:00,
2013-08-12 11:33:00,98.5,25.9,29.38,South,177,5.0,8.3,7,-99.99,,,0.00,0,rob ver 1B,2013-08-12 18:33:00,
2013-08-12 11:34:00,98.7,26.2,29.38,SSE,152,7.9,10.2,7,-99.99,,,0.00,0,rob ver 1B,2013-08-12 18:34:00,
2013-08-12 11:35:00,98.4,26.4,29.38,SE,139,9.0,11.6,7,-99.99,,,0.00,0,rob ver 1B,2013-08-12 18:35:00,
2013-08-12 11:36:00,98.4,26.7,29.38,ESE,106,7.4,9.9,7,-99.99,,,0.00,0,rob ver 1B,2013-08-12 18:36:00,
2013-08-12 11:37:00,97.0,38.7,29.32,West,280,3.7,5.5,13,-99.99,,,0.00,0,rob ver 1A,2013-08-12 18:37:00,
2013-08-12 11:38:00,98.0,26.2,29.38,ESE,109,4.9,6.6,7,-99.99,,,0.00,0,rob ver 1B,2013-08-12 18:38:00,
2013-08-12 11:39:00,98.2,26.5,29.38,ESE,119,4.5,7.3,7,-99.99,,,0.00,0,rob ver 1B,2013-08-12 18:39:00,
2013-08-12 11:40:00,98.8,27.2,29.38,SE,141,5.7,7.9,7,-99.99,,,0.00,0,rob ver 1B,2013-08-12 18:40:00,
2013-08-12 11:41:00,98.8,26.5,29.38,SE,144,7.3,9.7,7,-99.99,,,0.00,0,rob ver 1B,2013-08-12 18:41:00,
2013-08-12 11:42:00,97.2,38.1,29.32,SSE,150,5.9,8.6,12,-99.99,,,0.00,0,rob ver 1A,2013-08-12 18:42:00,
2013-08-12 11:43:00,98.8,27.8,29.38,SSE,163,10.4,14.7,8,-99.99,,,0.00,0,rob ver 1B,2013-08-12 18:43:00,
2013-08-12 11:44:00,99.0,28.2,29.38,ESE,110,8.8,11.1,8,-99.99,,,0.00,0,rob ver 1B,2013-08-12 18:44:00,
2013-08-12 11:45:00,98.8,28.3,29.38,ESE,108,9.7,13.2,8,-99.99,,,0.00,0,rob ver 1B,2013-08-12 18:45:00,
2013-08-12 11:46:00,98.7,28.3,29.38,ESE,105,12.0,14.6,8,-99.99,,,0.00,0,rob ver 1B,2013-08-12 18:46:00,
2013-08-12 11:47:00,97.3,37.6,29.32,ESE,117,3.3,6.0,12,-99.99,,,0.00,0,rob ver 1A,2013-08-12 18:47:00,
2013-08-12 11:48:00,98.2,28.1,29.38,SSE,148,5.2,8.5,8,-99.99,,,0.00,0,rob ver 1B,2013-08-12 18:48:00,
2013-08-12 11:49:00,98.1,28.2,29.38,SE,139,8.2,13.7,8,-99.99,,,0.00,0,rob ver 1B,2013-08-12 18:49:00,
2013-08-12 11:50:00,98.2,27.4,29.38,SSE,153,11.3,14.0,8,-99.99,,,0.00,0,rob ver 1B,2013-08-12 18:50:00,
2013-08-12 11:51:00,98.2,27.5,29.38,SSE,148,8.2,10.4,8,-99.99,,,0.00,0,rob ver 1B,2013-08-12 18:51:00,
2013-08-12 11:52:00,98.5,27.1,29.38,South,169,10.8,14.9,7,-99.99,,,0.00,0,rob ver 1B,2013-08-12 18:52:00,
2013-08-12 11:53:00,97.4,37.0,29.32,SW,226,5.8,8.6,12,-99.99,,,0.00,0,rob ver 1A,2013-08-12 18:53:00,
2013-08-12 11:54:00,98.5,27.3,29.38,South,173,10.5,13.1,8,-99.99,,,0.00,0,rob ver 1B,2013-08-12 18:54:00,
2013-08-12 11:55:00,98.3,26.9,29.38,South,178,6.6,9.9,7,-99.99,,,0.00,0,rob ver 1B,2013-08-12 18:55:00,
2013-08-12 11:56:00,98.3,26.4,29.38,SSE,168,10.2,13.2,7,-99.99,,,0.00,0,rob ver 1B,2013-08-12 18:56:00,
2013-08-12 11:57:00,97.9,26.4,29.38,South,184,7.3,9.5,7,-99.99,,,0.00,0,rob ver 1B,2013-08-12 18:57:00,
2013-08-12 11:58:00,97.7,37.2,29.32,South,169,6.3,9.3,12,-99.99,,,0.00,0,rob ver 1A,2013-08-12 18:58:00,
2013-08-12 11:59:00,98.0,26.7,29.38,SSE,163,5.7,8.8,7,-99.99,,,0.00,0,rob ver 1B,2013-08-12 18:59:00,
2013-08-12 12:00:00,98.2,26.9,29.38,SSE,153,4.0,6.6,8,-99.99,,,0.00,0,rob ver 1B,2013-08-12 19:00:00,
2013-08-12 12:01:00,98.4,27.2,29.38,South,178,2.4,4.7,7,-99.99,,,0.00,0,rob ver 1B,2013-08-12 19:01:00,
2013-08-12 12:02:00,98.5,27.2,29.35,SE,126,2.6,4.8,7,-99.99,,,0.00,0,rob ver 1B,2013-08-12 19:02:00,
2013-08-12 12:03:00,97.8,37.1,29.32,South,190,7.3,11.2,12,-99.99,,,0.00,0,rob ver 1A,2013-08-12 19:03:00,
2013-08-12 12:04:00,98.9,27.8,29.35,South,181,10.7,13.8,8,-99.99,,,0.00,0,rob ver 1B,2013-08-12 19:04:00,
2013-08-12 12:05:00,98.8,27.7,29.35,South,190,9.7,11.7,8,-99.99,,,0.00,0,rob ver 1B,2013-08-12 19:05:00,
2013-08-12 12:06:00,98.7,27.8,29.35,SSW,193,7.2,9.7,8,-99.99,,,0.00,0,rob ver 1B,2013-08-12 19:06:00,
2013-08-12 12:07:00,98.7,27.7,29.35,South,186,11.0,14.5,8,-99.99,,,0.00,0,rob ver 1B,2013-08-12 19:07:00,
2013-08-12 12:08:00,98.3,37.1,29.32,South,182,7.4,8.8,12,-99.99,,,0.00,0,rob ver 1A,2013-08-12 19:08:00,
2013-08-12 12:09:00,98.5,27.7,29.35,SSW,195,6.2,7.6,8,-99.99,,,0.00,0,rob ver 1B,2013-08-12 19:09:00,
2013-08-12 12:10:00,98.8,27.9,29.35,SSW,199,5.0,7.7,8,-99.99,,,0.00,0,rob ver 1B,2013-08-12 19:10:00,
2013-08-12 12:11:00,99.1,27.5,29.35,South,172,8.8,12.7,7,-99.99,,,0.00,0,rob ver 1B,2013-08-12 19:11:00,
2013-08-12 12:12:00,99.0,27.3,29.35,South,189,4.8,8.1,8,-99.99,,,0.00,0,rob ver 1B,2013-08-12 19:12:00,
2013-08-12 12:13:00,98.5,36.9,29.32,NNE,15,0.9,1.9,11,-99.99,,,0.00,0,rob ver 1A,2013-08-12 19:13:00,
2013-08-12 12:14:00,99.1,27.9,29.35,SE,133,9.3,13.6,7,-99.99,,,0.00,0,rob ver 1B,2013-08-12 19:14:00,
2013-08-12 12:15:00,99.4,27.9,29.35,SE,140,9.2,13.0,8,-99.99,,,0.00,0,rob ver 1B,2013-08-12 19:15:00,
2013-08-12 12:16:00,99.4,29.8,29.35,ESE,112,10.7,13.3,8,-99.99,,,0.00,0,rob ver 1B,2013-08-12 19:16:00,
2013-08-12 12:17:00,99.0,29.9,29.35,ESE,119,8.6,11.7,8,-99.99,,,0.00,0,rob ver 1B,2013-08-12 19:17:00,
2013-08-12 12:18:00,98.8,36.4,29.32,South,184,4.2,6.6,11,-99.99,,,0.00,0,rob ver 1A,2013-08-12 19:18:00,
2013-08-12 12:19:00,98.7,29.7,29.35,East,98,3.8,6.2,8,-99.99,,,0.00,0,rob ver 1B,2013-08-12 19:19:00,
2013-08-12 12:20:00,98.8,29.2,29.35,ESE,113,4.0,7.4,8,-99.99,,,0.00,0,rob ver 1B,2013-08-12 19:20:00,
2013-08-12 12:21:00,99.0,27.9,29.35,SSE,158,7.4,9.2,8,-99.99,,,0.00,0,rob ver 1B,2013-08-12 19:21:00,
2013-08-12 12:22:00,99.2,28.0,29.35,South,174,8.8,12.7,8,-99.99,,,0.00,0,rob ver 1B,2013-08-12 19:22:00,
2013-08-12 12:23:00,99.3,36.5,29.32,South,187,1.8,2.8,11,-99.99,,,0.00,0,rob ver 1A,2013-08-12 19:23:00,
2013-08-12 12:24:00,99.3,28.2,29.35,SSE,156,8.3,12.4,8,-99.99,,,0.00,0,rob ver 1B,2013-08-12 19:24:00,
2013-08-12 12:25:00,98.9,28.6,29.35,SSE,148,5.0,8.6,8,-99.99,,,0.00,0,rob ver 1B,2013-08-12 19:25:00,
2013-08-12 12:26:00,98.9,28.5,29.35,SSE,162,5.4,7.8,8,-99.99,,,0.00,0,rob ver 1B,2013-08-12 19:26:00,
2013-08-12 12:27:00,98.9,27.5,29.35,SSE,151,8.8,12.3,7,-99.99,,,0.00,0,rob ver 1B,2013-08-12 19:27:00,
2013-08-12 12:28:00,99.4,35.5,29.32,South,170,5.0,9.9,10,-99.99,,,0.00,0,rob ver 1A,2013-08-12 19:28:00,
2013-08-12 12:29:00,99.0,27.0,29.35,South,171,7.8,9.7,7,-99.99,,,0.00,0,rob ver 1B,2013-08-12 19:29:00,
2013-08-12 12:30:00,99.0,27.2,29.35,South,177,5.7,9.0,7,-99.99,,,0.00,0,rob ver 1B,2013-08-12 19:30:00,
2013-08-12 12:31:00,99.1,27.2,29.35,SSE,156,4.1,6.2,7,-99.99,,,0.00,0,rob ver 1B,2013-08-12 19:31:00,
2013-08-12 12:32:00,99.3,27.0,29.35,South,170,6.2,8.9,7,-99.99,,,0.00,0,rob ver 1B,2013-08-12 19:32:00,
2013-08-12 12:33:00,98.9,35.5,29.32,SE,141,5.8,8.2,11,-99.99,,,0.00,0,rob ver 1A,2013-08-12 19:33:00,
2013-08-12 12:34:00,99.7,27.1,29.35,SSE,161,5.6,7.7,7,-99.99,,,0.00,0,rob ver 1B,2013-08-12 19:34:00,
2013-08-12 12:35:00,99.7,26.9,29.35,SE,141,7.4,13.0,7,-99.99,,,0.00,0,rob ver 1B,2013-08-12 19:35:00,
2013-08-12 12:36:00,99.5,26.6,29.35,SE,126,11.7,14.6,7,-99.99,,,0.00,0,rob ver 1B,2013-08-12 19:36:00,
2013-08-12 12:37:00,99.5,26.4,29.35,SE,131,13.5,16.5,7,-99.99,,,0.00,0,rob ver 1B,2013-08-12 19:37:00,
2013-08-12 12:38:00,100.0,35.9,29.32,SSE,167,4.6,6.6,10,-99.99,,,0.00,0,rob ver 1A,2013-08-12 19:38:00,
2013-08-12 12:39:00,99.5,25.5,29.35,SSE,153,12.1,16.7,7,-99.99,,,0.00,0,rob ver 1B,2013-08-12 19:39:00,
2013-08-12 12:40:00,99.6,25.1,29.35,SSE,156,14.3,17.8,7,-99.99,,,0.00,0,rob ver 1B,2013-08-12 19:40:00,
2013-08-12 12:41:00,99.7,25.2,29.35,SSE,157,11.4,14.0,7,-99.99,,,0.00,0,rob ver 1B,2013-08-12 19:41:00,
2013-08-12 12:42:00,99.8,25.2,29.35,South,177,12.5,16.1,7,-99.99,,,0.00,0,rob ver 1B,2013-08-12 19:42:00,
2013-08-12 12:43:00,100.1,35.1,29.32,SW,230,9.0,11.0,10,-99.99,,,0.00,0,rob ver 1A,2013-08-12 19:43:00,
2013-08-12 12:44:00,100.0,25.4,29.35,South,182,10.4,14.8,7,-99.99,,,0.00,0,rob ver 1B,2013-08-12 19:44:00,
2013-08-12 12:45:00,100.0,25.7,29.35,South,178,9.6,12.3,7,-99.99,,,0.00,0,rob ver 1B,2013-08-12 19:45:00,
2013-08-12 12:46:00,100.0,25.6,29.35,South,185,9.2,13.2,7,-99.99,,,0.00,0,rob ver 1B,2013-08-12 19:46:00,
2013-08-12 12:47:00,99.9,25.5,29.35,SSW,195,8.5,10.4,7,-99.99,,,0.00,0,rob ver 1B,2013-08-12 19:47:00,
2013-08-12 12:48:00,100.1,25.5,29.35,South,184,6.5,8.7,7,-99.99,,,0.00,0,rob ver 1B,2013-08-12 19:48:00,
2013-08-12 12:49:00,100.1,35.5,29.32,South,177,9.2,10.9,10,-99.99,,,0.00,0,rob ver 1A,2013-08-12 19:49:00,
2013-08-12 12:50:00,100.3,25.7,29.35,South,187,7.2,12.8,7,-99.99,,,0.00,0,rob ver 1B,2013-08-12 19:50:00,
2013-08-12 12:51:00,100.6,25.5,29.35,SSW,195,8.2,10.5,7,-99.99,,,0.00,0,rob ver 1B,2013-08-12 19:51:00,
2013-08-12 12:52:00,100.7,25.4,29.35,South,187,8.3,11.7,7,-99.99,,,0.00,0,rob ver 1B,2013-08-12 19:52:00,
2013-08-12 12:53:00,100.5,25.5,29.35,SSW,211,5.5,8.9,7,-99.99,,,0.00,0,rob ver 1B,2013-08-12 19:53:00,
2013-08-12 12:54:00,100.5,35.3,29.32,SSE,161,3.4,4.7,10,-99.99,,,0.00,0,rob ver 1A,2013-08-12 19:54:00,
2013-08-12 12:55:00,100.8,25.5,29.35,South,186,5.0,10.2,6,-99.99,,,0.00,0,rob ver 1B,2013-08-12 19:55:00,
2013-08-12 12:56:00,101.1,25.4,29.35,South,184,4.4,6.5,6,-99.99,,,0.00,0,rob ver 1B,2013-08-12 19:56:00,
2013-08-12 12:57:00,101.3,26.1,29.35,South,176,6.7,10.4,7,-99.99,,,0.00,0,rob ver 1B,2013-08-12 19:57:00,
2013-08-12 12:58:00,101.1,26.4,29.35,SSE,160,9.0,10.5,7,-99.99,,,0.00,0,rob ver 1B,2013-08-12 19:58:00,
2013-08-12 12:59:00,100.8,37.1,29.29,SSW,193,7.5,10.3,11,-99.99,,,0.00,0,rob ver 1A,2013-08-12 19:59:00,
2013-08-12 13:00:00,100.6,26.5,29.35,SSE,154,7.0,9.1,7,-99.99,,,0.00,0,rob ver 1B,2013-08-12 20:00:00,
2013-08-12 13:01:00,100.5,26.3,29.35,SSE,147,7.5,9.5,7,-99.99,,,0.00,0,rob ver 1B,2013-08-12 20:01:00,
2013-08-12 13:02:00,100.5,26.2,29.35,South,174,6.1,9.6,7,-99.99,,,0.00,0,rob ver 1B,2013-08-12 20:02:00,
2013-08-12 13:03:00,100.5,26.0,29.35,ESE,121,4.3,6.0,7,-99.99,,,0.00,0,rob ver 1B,2013-08-12 20:03:00,
2013-08-12 13:04:00,100.8,35.2,29.32,South,181,7.2,10.2,10,-99.99,,,0.00,0,rob ver 1A,2013-08-12 20:04:00,
2013-08-12 13:05:00,100.4,26.2,29.35,SSE,165,8.5,11.1,7,-99.99,,,0.00,0,rob ver 1B,2013-08-12 20:05:00,
2013-08-12 13:06:00,100.5,26.1,29.35,SSE,151,9.8,13.8,7,-99.99,,,0.00,0,rob ver 1B,2013-08-12 20:06:00,
2013-08-12 13:07:00,100.2,26.0,29.35,SSE,150,9.0,10.8,7,-99.99,,,0.00,0,rob ver 1B,2013-08-12 20:07:00,
2013-08-12 13:08:00,99.9,26.1,29.35,South,170,5.0,7.8,7,-99.99,,,0.00,0,rob ver 1B,2013-08-12 20:08:00,
2013-08-12 13:09:00,100.6,36.4,29.29,SW,229,6.7,9.2,10,-99.99,,,0.00,0,rob ver 1A,2013-08-12 20:09:00,
2013-08-12 13:10:00,100.5,26.4,29.35,SSW,200,8.5,12.3,7,-99.99,,,0.00,0,rob ver 1B,2013-08-12 20:10:00,
2013-08-12 13:11:00,100.7,26.5,29.35,SSW,204,5.3,7.4,7,-99.99,,,0.00,0,rob ver 1B,2013-08-12 20:11:00,
2013-08-12 13:12:00,100.9,26.8,29.35,SSW,199,8.7,12.1,7,-99.99,,,0.00,0,rob ver 1B,2013-08-12 20:12:00,
2013-08-12 13:13:00,101.0,27.2,29.35,SSW,204,9.9,12.0,7,-99.99,,,0.00,0,rob ver 1B,2013-08-12 20:13:00,
2013-08-12 13:14:00,100.6,36.9,29.29,SSE,158,4.2,6.0,11,-99.99,,,0.00,0,rob ver 1A,2013-08-12 20:14:00,
2013-08-12 13:15:00,101.2,27.2,29.35,South,184,5.6,8.4,7,-99.99,,,0.00,0,rob ver 1B,2013-08-12 20:15:00,
2013-08-12 13:16:00,101.3,27.5,29.35,South,172,7.0,10.6,7,-99.99,,,0.00,0,rob ver 1B,2013-08-12 20:16:00,
2013-08-12 13:17:00,101.4,27.4,29.35,South,177,6.2,8.3,7,-99.99,,,0.00,0,rob ver 1B,2013-08-12 20:17:00,
2013-08-12 13:18:00,101.3,27.5,29.35,South,179,4.7,7.7,7,-99.99,,,0.00,0,rob ver 1B,2013-08-12 20:18:00,
2013-08-12 13:19:00,100.1,36.7,29.29,ENE,67,3.2,4.5,11,-99.99,,,0.00,0,rob ver 1A,2013-08-12 20:19:00,
2013-08-12 13:20:00,101.2,27.4,29.35,South,183,6.6,9.1,7,-99.99,,,0.00,0,rob ver 1B,2013-08-12 20:20:00,
2013-08-12 13:21:00,101.3,27.3,29.35,South,190,5.6,9.3,7,-99.99,,,0.00,0,rob ver 1B,2013-08-12 20:21:00,
2013-08-12 13:22:00,101.0,27.3,29.35,WSW,251,5.2,6.8,7,-99.99,,,0.00,0,rob ver 1B,2013-08-12 20:22:00,
2013-08-12 13:23:00,100.8,27.5,29.35,SW,218,3.6,5.1,7,-99.99,,,0.00,0,rob ver 1B,2013-08-12 20:23:00,
2013-08-12 13:24:00,101.8,36.9,29.29,SW,225,5.4,8.5,10,-99.99,,,0.00,0,rob ver 1A,2013-08-12 20:24:00,
2013-08-12 13:25:00,101.1,27.4,29.35,SSW,193,2.7,4.7,7,-99.99,,,0.00,0,rob ver 1B,2013-08-12 20:25:00,
2013-08-12 13:26:00,101.3,27.4,29.35,SSW,205,2.2,3.8,7,-99.99,,,0.00,0,rob ver 1B,2013-08-12 20:26:00,
2013-08-12 13:27:00,101.4,27.6,29.35,SSE,167,6.5,9.0,7,-99.99,,,0.00,0,rob ver 1B,2013-08-12 20:27:00,
2013-08-12 13:28:00,101.3,27.5,29.35,SSW,202,4.6,6.7,7,-99.99,,,0.00,0,rob ver 1B,2013-08-12 20:28:00,
2013-08-12 13:29:00,101.0,37.2,29.29,SW,218,8.3,12.5,11,-99.99,,,0.00,0,rob ver 1A,2013-08-12 20:29:00,
2013-08-12 13:30:00,101.5,27.8,29.35,SSE,150,3.9,7.7,7,-99.99,,,0.00,0,rob ver 1B,2013-08-12 20:30:00,
2013-08-12 13:31:00,101.8,28.0,29.35,South,179,10.2,11.8,7,-99.99,,,0.00,0,rob ver 1B,2013-08-12 20:31:00,
2013-08-12 13:32:00,101.7,28.0,29.35,SSW,202,8.6,11.4,7,-99.99,,,0.00,0,rob ver 1B,2013-08-12 20:32:00,
2013-08-12 13:33:00,101.6,28.0,29.35,South,177,10.3,12.4,7,-99.99,,,0.00,0,rob ver 1B,2013-08-12 20:33:00,
2013-08-12 13:34:00,101.6,28.1,29.35,South,177,6.8,11.0,7,-99.99,,,0.00,0,rob ver 1B,2013-08-12 20:34:00,
2013-08-12 13:35:00,101.1,36.9,29.29,South,172,2.6,4.0,11,-99.99,,,0.00,0,rob ver 1A,2013-08-12 20:35:00,
2013-08-12 13:36:00,101.5,28.0,29.35,SW,224,2.3,4.9,7,-99.99,,,0.00,0,rob ver 1B,2013-08-12 20:36:00,
2013-08-12 13:37:00,101.6,28.3,29.35,SSW,194,5.8,9.9,7,-99.99,,,0.00,0,rob ver 1B,2013-08-12 20:37:00,
2013-08-12 13:38:00,101.8,28.3,29.35,South,174,7.4,10.2,7,-99.99,,,0.00,0,rob ver 1B,2013-08-12 20:38:00,
2013-08-12 13:39:00,101.8,28.3,29.35,South,190,6.9,8.2,7,-99.99,,,0.00,0,rob ver 1B,2013-08-12 20:39:00,
2013-08-12 13:40:00,101.5,36.5,29.29,South,186,6.4,8.8,10,-99.99,,,0.00,0,rob ver 1A,2013-08-12 20:40:00,
2013-08-12 13:41:00,101.9,28.4,29.35,South,176,7.2,9.5,7,-99.99,,,0.00,0,rob ver 1B,2013-08-12 20:41:00,
2013-08-12 13:42:00,101.8,28.4,29.35,SSE,153,6.7,8.6,7,-99.99,,,0.00,0,rob ver 1B,2013-08-12 20:42:00,
2013-08-12 13:43:00,101.8,28.3,29.35,SSE,156,4.2,6.4,7,-99.99,,,0.00,0,rob ver 1B,2013-08-12 20:43:00,
2013-08-12 13:44:00,101.7,28.3,29.35,South,186,5.3,7.5,7,-99.99,,,0.00,0,rob ver 1B,2013-08-12 20:44:00,
2013-08-12 13:45:00,102.0,35.8,29.29,SSW,210,8.2,13.0,10,-99.99,,,0.00,0,rob ver 1A,2013-08-12 20:45:00,
2013-08-12 13:46:00,101.8,28.2,29.35,SSW,206,7.0,10.6,7,-99.99,,,0.00,0,rob ver 1B,2013-08-12 20:46:00,
2013-08-12 13:47:00,101.9,28.3,29.35,SSW,197,8.3,9.8,7,-99.99,,,0.00,0,rob ver 1B,2013-08-12 20:47:00,
2013-08-12 13:48:00,102.2,28.2,29.35,South,190,6.5,7.8,7,-99.99,,,0.00,0,rob ver 1B,2013-08-12 20:48:00,
2013-08-12 13:49:00,102.2,28.2,29.35,SSW,194,4.6,5.8,7,-99.99,,,0.00,0,rob ver 1B,2013-08-12 20:49:00,
2013-08-12 13:50:00,102.1,35.2,29.29,SSE,153,2.7,4.1,9,-99.99,,,0.00,0,rob ver 1A,2013-08-12 20:50:00,
2013-08-12 13:51:00,102.4,28.8,29.35,SSW,199,6.7,8.4,7,-99.99,,,0.00,0,rob ver 1B,2013-08-12 20:51:00,
2013-08-12 13:52:00,102.4,28.6,29.35,SW,223,4.0,5.6,7,-99.99,,,0.00,0,rob ver 1B,2013-08-12 20:52:00,
2013-08-12 13:53:00,102.4,28.7,29.35,SSW,203,5.6,7.4,7,-99.99,,,0.00,0,rob ver 1B,2013-08-12 20:53:00,
2013-08-12 13:54:00,102.4,28.7,29.35,WSW,256,4.4,8.5,7,-99.99,,,0.00,0,rob ver 1B,2013-08-12 20:54:00,
2013-08-12 13:55:00,102.6,35.9,29.29,SSW,210,8.7,13.9,10,-99.99,,,0.00,0,rob ver 1A,2013-08-12 20:55:00,
2013-08-12 13:56:00,102.8,28.7,29.35,SSW,201,4.9,6.7,7,-99.99,,,0.00,0,rob ver 1B,2013-08-12 20:56:00,
2013-08-12 13:57:00,102.9,28.5,29.32,South,174,7.0,8.8,7,-99.99,,,0.00,0,rob ver 1B,2013-08-12 20:57:00,
2013-08-12 13:58:00,102.7,28.6,29.35,SSE,164,7.3,8.7,7,-99.99,,,0.00,0,rob ver 1B,2013-08-12 20:58:00,
2013-08-12 13:59:00,102.5,28.7,29.35,South,175,6.3,9.8,7,-99.99,,,0.00,0,rob ver 1B,2013-08-12 20:59:00,
2013-08-12 14:00:00,101.7,35.3,29.29,SSW,207,7.6,15.3,10,-99.99,,,0.00,0,rob ver 1A,2013-08-12 21:00:00,
2013-08-12 14:01:00,102.3,28.3,29.32,SW,215,4.8,7.7,7,-99.99,,,0.00,0,rob ver 1B,2013-08-12 21:01:00,
2013-08-12 14:02:00,102.1,28.3,29.32,South,188,7.3,8.9,7,-99.99,,,0.00,0,rob ver 1B,2013-08-12 21:02:00,
2013-08-12 14:03:00,102.1,28.3,29.32,SSW,201,5.0,6.9,7,-99.99,,,0.00,0,rob ver 1B,2013-08-12 21:03:00,
2013-08-12 14:04:00,102.1,28.0,29.32,SW,234,6.5,8.2,7,-99.99,,,0.00,0,rob ver 1B,2013-08-12 21:04:00,
2013-08-12 14:05:00,101.9,34.1,29.29,ESE,104,3.8,8.3,9,-99.99,,,0.00,0,rob ver 1A,2013-08-12 21:05:00,
2013-08-12 14:06:00,101.9,28.1,29.32,WSW,254,2.1,3.5,7,-99.99,,,0.00,0,rob ver 1B,2013-08-12 21:06:00,
2013-08-12 14:07:00,102.0,28.0,29.32,West,265,4.2,6.7,7,-99.99,,,0.00,0,rob ver 1B,2013-08-12 21:07:00,
2013-08-12 14:08:00,102.0,28.7,29.32,SW,231,6.7,9.4,7,-99.99,,,0.00,0,rob ver 1B,2013-08-12 21:08:00,
2013-08-12 14:09:00,101.9,28.7,29.32,WSW,256,6.5,8.4,7,-99.99,,,0.00,0,rob ver 1B,2013-08-12 21:09:00,
2013-08-12 14:10:00,101.5,35.4,29.29,WSW,249,8.5,11.9,10,-99.99,,,0.00,0,rob ver 1A,2013-08-12 21:10:00,
2013-08-12 14:11:00,101.8,28.7,29.32,West,271,3.7,5.5,7,-99.99,,,0.00,0,rob ver 1B,2013-08-12 21:11:00,
2013-08-12 14:12:00,101.9,28.7,29.32,West,259,3.8,7.1,7,-99.99,,,0.00,0,rob ver 1B,2013-08-12 21:12:00,
2013-08-12 14:13:00,102.2,28.8,29.32,SSW,213,2.5,3.7,7,-99.99,,,0.00,0,rob ver 1B,2013-08-12 21:13:00,
2013-08-12 14:14:00,102.5,28.7,29.32,SSE,151,3.2,4.8,7,-99.99,,,0.00,0,rob ver 1B,2013-08-12 21:14:00,
2013-08-12 14:15:00,101.6,35.4,29.29,ENE,65,2.7,4.9,10,-99.99,,,0.00,0,rob ver 1A,2013-08-12 21:15:00,
2013-08-12 14:16:00,102.8,28.2,29.32,SSW,213,5.3,7.3,7,-99.99,,,0.00,0,rob ver 1B,2013-08-12 21:16:00,
2013-08-12 14:17:00,102.8,28.1,29.32,SSW,208,2.7,4.0,7,-99.99,,,0.00,0,rob ver 1B,2013-08-12 21:17:00,
2013-08-12 14:18:00,102.9,28.4,29.32,SSE,154,4.6,6.1,7,-99.99,,,0.00,0,rob ver 1B,2013-08-12 21:18:00,
2013-08-12 14:19:00,102.9,27.8,29.32,SSE,149,4.3,5.7,7,-99.99,,,0.00,0,rob ver 1B,2013-08-12 21:19:00,
2013-08-12 14:20:00,102.8,27.8,29.32,SSE,165,3.4,4.2,7,-99.99,,,0.00,0,rob ver 1B,2013-08-12 21:20:00,
2013-08-12 14:21:00,101.9,36.0,29.29,South,177,3.2,7.9,10,-99.99,,,0.00,0,rob ver 1A,2013-08-12 21:21:00,
2013-08-12 14:22:00,102.9,27.6,29.32,South,175,2.5,3.8,7,-99.99,,,0.00,0,rob ver 1B,2013-08-12 21:22:00,
2013-08-12 14:23:00,103.0,27.5,29.32,SE,131,3.7,5.0,7,-99.99,,,0.00,0,rob ver 1B,2013-08-12 21:23:00,
2013-08-12 14:24:00,102.7,28.1,29.32,SE,140,2.1,4.1,7,-99.99,,,0.00,0,rob ver 1B,2013-08-12 21:24:00,
2013-08-12 14:25:00,102.8,28.9,29.32,SE,129,2.9,4.3,7,-99.99,,,0.00,0,rob ver 1B,2013-08-12 21:25:00,
2013-08-12 14:26:00,101.3,34.4,29.29,SSE,149,4.3,7.4,10,-99.99,,,0.00,0,rob ver 1A,2013-08-12 21:26:00,
2013-08-12 14:27:00,103.2,29.7,29.32,SW,225,5.7,7.0,7,-99.99,,,0.00,0,rob ver 1B,2013-08-12 21:27:00,
2013-08-12 14:28:00,103.0,29.8,29.32,SSW,206,5.7,9.4,7,-99.99,,,0.00,0,rob ver 1B,2013-08-12 21:28:00,
2013-08-12 14:29:00,103.1,29.3,29.32,SSW,199,7.1,8.6,7,-99.99,,,0.00,0,rob ver 1B,2013-08-12 21:29:00,
2013-08-12 14:30:00,102.9,29.3,29.32,SW,216,7.0,8.9,7,-99.99,,,0.00,0,rob ver 1B,2013-08-12 21:30:00,
2013-08-12 14:31:00,101.7,34.3,29.29,SE,135,8.3,12.7,9,-99.99,,,0.00,0,rob ver 1A,2013-08-12 21:31:00,
2013-08-12 14:32:00,102.3,28.9,29.32,WSW,246,5.0,6.3,7,-99.99,,,0.00,0,rob ver 1B,2013-08-12 21:32:00,
2013-08-12 14:33:00,102.2,29.0,29.32,WSW,247,3.5,5.4,7,-99.99,,,0.00,0,rob ver 1B,2013-08-12 21:33:00,
2013-08-12 14:34:00,102.3,29.1,29.32,NW,311,1.0,2.9,7,-99.99,,,0.00,0,rob ver 1B,2013-08-12 21:34:00,
2013-08-12 14:35:00,102.5,29.4,29.32,NNW,329,3.3,4.3,7,-99.99,,,0.00,0,rob ver 1B,2013-08-12 21:35:00,
2013-08-12 14:36:00,102.1,33.8,29.29,ESE,110,8.8,15.1,9,-99.99,,,0.00,0,rob ver 1A,2013-08-12 21:36:00,
2013-08-12 14:37:00,102.8,29.2,29.32,WNW,285,3.7,5.0,7,-99.99,,,0.00,0,rob ver 1B,2013-08-12 21:37:00,
2013-08-12 14:38:00,102.8,30.0,29.32,WSW,249,5.2,7.3,7,-99.99,,,0.00,0,rob ver 1B,2013-08-12 21:38:00,
2013-08-12 14:39:00,102.7,30.4,29.32,WSW,238,9.2,11.9,7,-99.99,,,0.00,0,rob ver 1B,2013-08-12 21:39:00,
2013-08-12 14:40:00,102.6,29.0,29.32,WSW,241,5.9,10.0,7,-99.99,,,0.00,0,rob ver 1B,2013-08-12 21:40:00,
2013-08-12 14:41:00,101.7,33.6,29.29,ESE,122,6.7,8.4,9,-99.99,,,0.00,0,rob ver 1A,2013-08-12 21:41:00,
2013-08-12 14:42:00,102.8,27.7,29.32,WSW,242,5.5,8.1,7,-99.99,,,0.00,0,rob ver 1B,2013-08-12 21:42:00,
2013-08-12 14:43:00,102.7,28.6,29.32,WSW,252,5.3,8.1,8,-99.99,,,0.00,0,rob ver 1B,2013-08-12 21:43:00,
2013-08-12 14:44:00,102.6,30.4,29.32,West,264,7.7,9.3,7,-99.99,,,0.00,0,rob ver 1B,2013-08-12 21:44:00,
2013-08-12 14:45:00,102.6,31.4,29.32,WSW,247,6.4,7.5,8,-99.99,,,0.00,0,rob ver 1B,2013-08-12 21:45:00,
2013-08-12 14:46:00,102.8,31.9,29.26,SW,218,7.7,10.0,8,-99.99,,,0.00,0,rob ver 1A,2013-08-12 21:46:00,
2013-08-12 14:47:00,102.7,30.7,29.32,WSW,244,4.1,5.7,8,-99.99,,,0.00,0,rob ver 1B,2013-08-12 21:47:00,
2013-08-12 14:48:00,102.7,30.8,29.32,SW,227,3.7,5.9,8,-99.99,,,0.00,0,rob ver 1B,2013-08-12 21:48:00,
2013-08-12 14:49:00,102.9,30.9,29.32,SW,218,4.2,6.9,8,-99.99,,,0.00,0,rob ver 1B,2013-08-12 21:49:00,
2013-08-12 14:50:00,103.1,29.8,29.32,SSW,202,5.5,7.0,7,-99.99,,,0.00,0,rob ver 1B,2013-08-12 21:50:00,
2013-08-12 14:51:00,103.2,30.8,29.26,SSW,194,10.8,18.5,7,-99.99,,,0.00,0,rob ver 1A,2013-08-12 21:51:00,
2013-08-12 14:52:00,103.6,29.9,29.32,SSE,167,5.2,6.7,7,-99.99,,,0.00,0,rob ver 1B,2013-08-12 21:52:00,
2013-08-12 14:53:00,103.6,30.2,29.32,SSE,168,4.8,7.0,7,-99.99,,,0.00,0,rob ver 1B,2013-08-12 21:53:00,
2013-08-12 14:54:00,103.4,28.8,29.32,ESE,118,5.0,7.8,7,-99.99,,,0.00,0,rob ver 1B,2013-08-12 21:54:00,
2013-08-12 14:55:00,103.3,28.5,29.32,ENE,76,2.4,4.6,7,-99.99,,,0.00,0,rob ver 1B,2013-08-12 21:55:00,
2013-08-12 14:56:00,102.9,32.5,29.26,SE,137,9.4,11.4,8,-99.99,,,0.00,0,rob ver 1A,2013-08-12 21:56:00,
2013-08-12 14:57:00,104.2,29.1,29.32,WSW,243,2.7,5.5,7,-99.99,,,0.00,0,rob ver 1B,2013-08-12 21:57:00,
2013-08-12 14:58:00,104.6,29.9,29.32,West,271,3.2,5.7,7,-99.99,,,0.00,0,rob ver 1B,2013-08-12 21:58:00,
2013-08-12 14:59:00,104.8,30.0,29.32,WSW,250,2.3,4.5,7,-99.99,,,0.00,0,rob ver 1B,2013-08-12 21:59:00,
2013-08-12 15:00:00,105.1,30.0,29.32,SW,222,4.0,7.1,7,-99.99,,,0.00,0,rob ver 1B,2013-08-12 22:00:00,
2013-08-12 15:01:00,103.1,32.7,29.26,South,171,7.4,10.3,8,-99.99,,,0.00,0,rob ver 1A,2013-08-12 22:01:00,
2013-08-12 15:02:00,104.8,29.6,29.32,SW,232,5.4,7.6,7,-99.99,,,0.00,0,rob ver 1B,2013-08-12 22:02:00,
2013-08-12 15:03:00,104.7,29.5,29.32,SW,216,3.9,6.9,6,-99.99,,,0.00,0,rob ver 1B,2013-08-12 22:03:00,
2013-08-12 15:04:00,104.8,29.5,29.32,SW,234,6.4,8.5,7,-99.99,,,0.00,0,rob ver 1B,2013-08-12 22:04:00,
2013-08-12 15:05:00,104.8,29.5,29.32,SW,227,6.5,9.1,7,-99.99,,,0.00,0,rob ver 1B,2013-08-12 22:05:00,
2013-08-12 15:06:00,102.6,33.5,29.26,SE,139,5.2,7.1,9,-99.99,,,0.00,0,rob ver 1A,2013-08-12 22:06:00,
2013-08-12 15:07:00,104.3,29.4,29.32,WSW,247,7.9,10.7,7,-99.99,,,0.00,0,rob ver 1B,2013-08-12 22:07:00,
2013-08-12 15:08:00,104.1,29.5,29.32,SW,221,8.2,9.9,7,-99.99,,,0.00,0,rob ver 1B,2013-08-12 22:08:00,
2013-08-12 15:09:00,104.4,29.6,29.29,SW,223,7.3,11.3,7,-99.99,,,0.00,0,rob ver 1B,2013-08-12 22:09:00,
2013-08-12 15:10:00,104.5,29.3,29.29,SW,233,6.6,10.1,7,-99.99,,,0.00,0,rob ver 1B,2013-08-12 22:10:00,
2013-08-12 15:11:00,104.4,28.8,29.29,SSW,200,9.0,11.3,7,-99.99,,,0.00,0,rob ver 1B,2013-08-12 22:11:00,
2013-08-12 15:12:00,103.6,33.1,29.26,SSE,168,4.8,8.0,8,-99.99,,,0.00,0,rob ver 1A,2013-08-12 22:12:00,
2013-08-12 15:13:00,104.1,29.0,29.32,SSW,197,5.0,7.3,7,-99.99,,,0.00,0,rob ver 1B,2013-08-12 22:13:00,
2013-08-12 15:14:00,104.1,29.1,29.29,SSW,212,6.8,8.9,7,-99.99,,,0.00,0,rob ver 1B,2013-08-12 22:14:00,
2013-08-12 15:15:00,104.1,29.4,29.29,SW,215,6.2,7.6,7,-99.99,,,0.00,0,rob ver 1B,2013-08-12 22:15:00,
2013-08-12 15:16:00,103.9,29.1,29.29,SSW,194,4.2,6.3,7,-99.99,,,0.00,0,rob ver 1B,2013-08-12 22:16:00,
2013-08-12 15:17:00,103.0,32.9,29.26,South,179,5.1,7.0,8,-99.99,,,0.00,0,rob ver 1A,2013-08-12 22:17:00,
2013-08-12 15:18:00,103.9,28.9,29.29,SSW,207,5.3,9.4,6,-99.99,,,0.00,0,rob ver 1B,2013-08-12 22:18:00,
2013-08-12 15:19:00,104.0,26.4,29.29,South,186,8.0,10.5,6,-99.99,,,0.00,0,rob ver 1B,2013-08-12 22:19:00,
2013-08-12 15:20:00,104.1,26.9,29.29,SSW,195,7.7,9.8,6,-99.99,,,0.00,0,rob ver 1B,2013-08-12 22:20:00,
2013-08-12 15:21:00,104.1,27.1,29.29,SSE,168,6.6,10.3,6,-99.99,,,0.00,0,rob ver 1B,2013-08-12 22:21:00,
2013-08-12 15:22:00,103.5,31.5,29.26,South,169,12.9,14.9,8,-99.99,,,0.00,0,rob ver 1A,2013-08-12 22:22:00,
2013-08-12 15:23:00,104.2,27.8,29.29,SSE,149,9.1,11.8,6,-99.99,,,0.00,0,rob ver 1B,2013-08-12 22:23:00,
2013-08-12 15:24:00,104.2,27.5,29.29,SE,146,7.1,8.5,6,-99.99,,,0.00,0,rob ver 1B,2013-08-12 22:24:00,
2013-08-12 15:25:00,104.0,26.2,29.29,SE,130,8.5,10.2,6,-99.99,,,0.00,0,rob ver 1B,2013-08-12 22:25:00,
2013-08-12 15:26:00,103.8,27.0,29.29,SE,136,6.0,8.7,6,-99.99,,,0.00,0,rob ver 1B,2013-08-12 22:26:00,
2013-08-12 15:27:00,103.2,31.6,29.26,South,182,14.0,17.4,8,-99.99,,,0.00,0,rob ver 1A,2013-08-12 22:27:00,
2013-08-12 15:28:00,103.8,27.8,29.29,SSE,163,8.2,10.0,7,-99.99,,,0.00,0,rob ver 1B,2013-08-12 22:28:00,
2013-08-12 15:29:00,103.7,27.8,29.29,South,191,4.6,7.0,7,-99.99,,,0.00,0,rob ver 1B,2013-08-12 22:29:00,
2013-08-12 15:30:00,103.7,27.3,29.29,SSW,195,2.9,4.8,6,-99.99,,,0.00,0,rob ver 1B,2013-08-12 22:30:00,
2013-08-12 15:31:00,103.9,27.0,29.29,SSE,161,5.6,12.6,6,-99.99,,,0.00,0,rob ver 1B,2013-08-12 22:31:00,
2013-08-12 15:32:00,102.8,31.4,29.26,SSW,201,6.5,10.2,8,-99.99,,,0.00,0,rob ver 1A,2013-08-12 22:32:00,
2013-08-12 15:33:00,103.7,25.2,29.29,SE,131,6.9,10.4,6,-99.99,,,0.00,0,rob ver 1B,2013-08-12 22:33:00,
2013-08-12 15:34:00,103.7,26.1,29.29,ESE,121,9.2,12.3,6,-99.99,,,0.00,0,rob ver 1B,2013-08-12 22:34:00,
2013-08-12 15:35:00,103.6,27.7,29.29,SE,128,8.4,10.0,7,-99.99,,,0.00,0,rob ver 1B,2013-08-12 22:35:00,
2013-08-12 15:36:00,103.7,27.9,29.29,ESE,112,7.5,9.7,7,-99.99,,,0.00,0,rob ver 1B,2013-08-12 22:36:00,
2013-08-12 15:37:00,103.2,30.0,29.26,South,176,9.7,11.9,7,-99.99,,,0.00,0,rob ver 1A,2013-08-12 22:37:00,
2013-08-12 15:38:00,103.3,28.2,29.29,ESE,115,4.4,6.0,7,-99.99,,,0.00,0,rob ver 1B,2013-08-12 22:38:00,
2013-08-12 15:39:00,103.3,28.0,29.29,SE,127,3.9,10.5,7,-99.99,,,0.00,0,rob ver 1B,2013-08-12 22:39:00,
2013-08-12 15:40:00,103.5,29.2,29.29,South,183,7.6,9.7,7,-99.99,,,0.00,0,rob ver 1B,2013-08-12 22:40:00,
2013-08-12 15:41:00,103.7,28.9,29.29,South,175,4.9,6.5,7,-99.99,,,0.00,0,rob ver 1B,2013-08-12 22:41:00,
2013-08-12 15:42:00,102.8,31.0,29.26,South,171,11.1,15.1,8,-99.99,,,0.00,0,rob ver 1A,2013-08-12 22:42:00,
2013-08-12 15:43:00,104.0,28.7,29.29,SSE,155,6.3,9.8,7,-99.99,,,0.00,0,rob ver 1B,2013-08-12 22:43:00,
2013-08-12 15:44:00,103.8,27.4,29.29,SE,143,8.2,9.9,6,-99.99,,,0.00,0,rob ver 1B,2013-08-12 22:44:00,
2013-08-12 15:45:00,103.7,27.4,29.29,SE,127,6.2,8.1,6,-99.99,,,0.00,0,rob ver 1B,2013-08-12 22:45:00,
2013-08-12 15:46:00,103.4,27.8,29.29,East,97,5.2,8.2,7,-99.99,,,0.00,0,rob ver 1B,2013-08-12 22:46:00,
2013-08-12 15:47:00,103.2,28.2,29.29,ENE,78,4.2,7.2,7,-99.99,,,0.00,0,rob ver 1B,2013-08-12 22:47:00,
2013-08-12 15:48:00,102.7,30.9,29.26,South,178,8.1,11.0,8,-99.99,,,0.00,0,rob ver 1A,2013-08-12 22:48:00,
2013-08-12 15:49:00,103.3,28.3,29.29,ENE,67,3.6,4.4,7,-99.99,,,0.00,0,rob ver 1B,2013-08-12 22:49:00,
2013-08-12 15:50:00,103.4,28.5,29.29,ENE,77,3.5,5.4,7,-99.99,,,0.00,0,rob ver 1B,2013-08-12 22:50:00,
2013-08-12 15:51:00,103.6,28.5,29.29,East,80,4.2,7.0,7,-99.99,,,0.00,0,rob ver 1B,2013-08-12 22:51:00,
2013-08-12 15:52:00,103.6,28.6,29.29,SE,144,3.2,5.4,7,-99.99,,,0.00,0,rob ver 1B,2013-08-12 22:52:00,
2013-08-12 15:53:00,103.0,31.0,29.26,SSW,197,7.7,11.1,8,-99.99,,,0.00,0,rob ver 1A,2013-08-12 22:53:00,
2013-08-12 15:54:00,104.2,28.5,29.29,South,177,4.0,8.3,7,-99.99,,,0.00,0,rob ver 1B,2013-08-12 22:54:00,
2013-08-12 15:55:00,104.8,28.7,29.29,SSE,168,5.4,6.7,7,-99.99,,,0.00,0,rob ver 1B,2013-08-12 22:55:00,
2013-08-12 15:56:00,104.9,28.7,29.29,SE,144,4.4,6.8,7,-99.99,,,0.00,0,rob ver 1B,2013-08-12 22:56:00,
2013-08-12 15:57:00,104.8,28.5,29.29,SE,140,5.2,8.8,7,-99.99,,,0.00,0,rob ver 1B,2013-08-12 22:57:00,
2013-08-12 15:58:00,103.6,31.4,29.26,SSW,194,12.4,18.8,7,-99.99,,,0.00,0,rob ver 1A,2013-08-12 22:58:00,
2013-08-12 15:59:00,104.7,24.8,29.29,South,175,4.0,6.2,6,-99.99,,,0.00,0,rob ver 1B,2013-08-12 22:59:00,
2013-08-12 16:00:00,105.1,27.1,29.29,SSW,200,3.6,5.6,6,-99.99,,,0.00,0,rob ver 1B,2013-08-12 23:00:00,
2013-08-12 16:01:00,105.4,27.0,29.29,SSW,208,7.1,9.5,6,-99.99,,,0.00,0,rob ver 1B,2013-08-12 23:01:00,
2013-08-12 16:02:00,105.4,27.8,29.29,South,177,9.4,12.3,7,-99.99,,,0.00,0,rob ver 1B,2013-08-12 23:02:00,
2013-08-12 16:03:00,103.3,30.3,29.26,SW,216,8.0,10.6,7,-99.99,,,0.00,0,rob ver 1A,2013-08-12 23:03:00,
2013-08-12 16:04:00,105.5,32.0,29.29,SSE,166,10.2,12.7,7,-99.99,,,0.00,0,rob ver 1B,2013-08-12 23:04:00,
2013-08-12 16:05:00,105.1,31.1,29.29,South,173,10.3,12.1,7,-99.99,,,0.00,0,rob ver 1B,2013-08-12 23:05:00,
2013-08-12 16:06:00,104.8,31.2,29.29,SSE,164,7.5,12.1,8,-99.99,,,0.00,0,rob ver 1B,2013-08-12 23:06:00,
2013-08-12 16:07:00,104.6,32.8,29.29,SSE,162,10.5,15.7,8,-99.99,,,0.00,0,rob ver 1B,2013-08-12 23:07:00,
2013-08-12 16:08:00,103.3,30.9,29.26,SSW,199,11.4,16.4,7,-99.99,,,0.00,0,rob ver 1A,2013-08-12 23:08:00,
2013-08-12 16:09:00,104.4,32.7,29.29,SE,143,12.0,14.6,8,-99.99,,,0.00,0,rob ver 1B,2013-08-12 23:09:00,
2013-08-12 16:10:00,104.2,32.6,29.29,SE,146,10.4,13.9,8,-99.99,,,0.00,0,rob ver 1B,2013-08-12 23:10:00,
2013-08-12 16:11:00,103.9,33.2,29.29,SE,138,7.3,10.2,8,-99.99,,,0.00,0,rob ver 1B,2013-08-12 23:11:00,
2013-08-12 16:12:00,103.9,33.2,29.29,SE,138,3.3,4.8,8,-99.99,,,0.00,0,rob ver 1B,2013-08-12 23:12:00,
2013-08-12 16:13:00,103.3,31.1,29.26,SSW,211,5.5,7.7,8,-99.99,,,0.00,0,rob ver 1A,2013-08-12 23:13:00,
2013-08-12 16:14:00,104.3,33.9,29.29,South,191,2.5,4.8,8,-99.99,,,0.00,0,rob ver 1B,2013-08-12 23:14:00,
2013-08-12 16:15:00,104.5,33.9,29.29,South,173,2.8,5.4,8,-99.99,,,0.00,0,rob ver 1B,2013-08-12 23:15:00,
2013-08-12 16:16:00,104.7,34.2,29.29,South,172,6.8,10.3,9,-99.99,,,0.00,0,rob ver 1B,2013-08-12 23:16:00,
2013-08-12 16:17:00,104.6,35.3,29.29,SSE,152,8.1,10.6,9,-99.99,,,0.00,0,rob ver 1B,2013-08-12 23:17:00,
2013-08-12 16:18:00,103.2,30.4,29.26,SW,227,11.8,15.6,8,-99.99,,,0.00,0,rob ver 1A,2013-08-12 23:18:00,
2013-08-12 16:19:00,104.4,36.3,29.29,SE,130,10.0,13.6,9,-99.99,,,0.00,0,rob ver 1B,2013-08-12 23:19:00,
2013-08-12 16:20:00,104.1,36.6,29.29,SE,137,7.9,10.2,9,-99.99,,,0.00,0,rob ver 1B,2013-08-12 23:20:00,
2013-08-12 16:21:00,103.8,36.7,29.29,SE,128,6.8,9.4,10,-99.99,,,0.00,0,rob ver 1B,2013-08-12 23:21:00,
2013-08-12 16:22:00,103.6,36.6,29.29,ESE,123,4.3,6.5,10,-99.99,,,0.00,0,rob ver 1B,2013-08-12 23:22:00,
2013-08-12 16:23:00,103.9,28.8,29.26,SSW,192,12.3,13.9,7,-99.99,,,0.00,0,rob ver 1A,2013-08-12 23:23:00,
2013-08-12 16:24:00,103.5,37.0,29.29,ESE,112,8.5,11.4,10,-99.99,,,0.00,0,rob ver 1B,2013-08-12 23:24:00,
2013-08-12 16:25:00,103.3,37.5,29.29,ESE,122,5.8,8.9,10,-99.99,,,0.00,0,rob ver 1B,2013-08-12 23:25:00,
2013-08-12 16:26:00,103.3,37.3,29.29,ESE,112,6.8,11.3,10,-99.99,,,0.00,0,rob ver 1B,2013-08-12 23:26:00,
2013-08-12 16:27:00,103.6,37.0,29.26,ESE,119,7.4,11.3,10,-99.99,,,0.00,0,rob ver 1B,2013-08-12 23:27:00,
2013-08-12 16:28:00,103.6,30.0,29.26,SSW,205,11.2,16.0,7,-99.99,,,0.00,0,rob ver 1A,2013-08-12 23:28:00,
2013-08-12 16:29:00,103.9,37.1,29.29,South,190,8.0,10.6,10,-99.99,,,0.00,0,rob ver 1B,2013-08-12 23:29:00,
2013-08-12 16:30:00,104.2,37.1,29.29,SW,216,4.7,7.6,10,-99.99,,,0.00,0,rob ver 1B,2013-08-12 23:30:00,
2013-08-12 16:31:00,104.4,37.0,29.29,SSW,196,7.4,9.9,9,-99.99,,,0.00,0,rob ver 1B,2013-08-12 23:31:00,
2013-08-12 16:32:00,104.4,36.7,29.26,South,190,9.9,12.0,9,-99.99,,,0.00,0,rob ver 1B,2013-08-12 23:32:00,
2013-08-12 16:33:00,103.1,30.4,29.26,SW,220,10.1,14.6,7,-99.99,,,0.00,0,rob ver 1A,2013-08-12 23:33:00,
2013-08-12 16:34:00,104.3,36.6,29.26,SW,216,7.8,9.4,9,-99.99,,,0.00,0,rob ver 1B,2013-08-12 23:34:00,
2013-08-12 16:35:00,104.0,36.5,29.29,SW,226,3.8,5.9,9,-99.99,,,0.00,0,rob ver 1B,2013-08-12 23:35:00,
2013-08-12 16:36:00,104.0,36.6,29.29,SW,226,2.9,4.5,9,-99.99,,,0.00,0,rob ver 1B,2013-08-12 23:36:00,
2013-08-12 16:37:00,104.3,36.8,29.26,South,179,6.1,8.7,9,-99.99,,,0.00,0,rob ver 1B,2013-08-12 23:37:00,
2013-08-12 16:38:00,104.4,36.4,29.26,South,188,8.2,9.8,9,-99.99,,,0.00,0,rob ver 1B,2013-08-12 23:38:00,
2013-08-12 16:39:00,103.2,30.2,29.23,SW,220,12.0,13.7,7,-99.99,,,0.00,0,rob ver 1A,2013-08-12 23:39:00,
2013-08-12 16:40:00,104.7,36.2,29.26,South,190,6.0,8.9,9,-99.99,,,0.00,0,rob ver 1B,2013-08-12 23:40:00,
2013-08-12 16:41:00,104.7,36.3,29.26,SSW,193,6.1,8.7,9,-99.99,,,0.00,0,rob ver 1B,2013-08-12 23:41:00,
2013-08-12 16:42:00,104.6,36.9,29.26,South,189,5.7,10.6,10,-99.99,,,0.00,0,rob ver 1B,2013-08-12 23:42:00,
2013-08-12 16:43:00,104.4,38.6,29.26,South,185,7.1,11.4,10,-99.99,,,0.00,0,rob ver 1B,2013-08-12 23:43:00,
2013-08-12 16:44:00,103.5,30.6,29.23,SW,225,8.6,11.8,7,-99.99,,,0.00,0,rob ver 1A,2013-08-12 23:44:00,
2013-08-12 16:45:00,104.1,39.0,29.26,South,190,6.9,10.5,10,-99.99,,,0.00,0,rob ver 1B,2013-08-12 23:45:00,
2013-08-12 16:46:00,104.0,38.5,29.26,SSE,168,7.0,11.3,10,-99.99,,,0.00,0,rob ver 1B,2013-08-12 23:46:00,
2013-08-12 16:47:00,103.8,38.1,29.26,SE,132,4.2,6.8,10,-99.99,,,0.00,0,rob ver 1B,2013-08-12 23:47:00,
2013-08-12 16:48:00,103.5,38.2,29.26,East,88,5.0,6.8,10,-99.99,,,0.00,0,rob ver 1B,2013-08-12 23:48:00,
2013-08-12 16:49:00,104.1,30.8,29.23,SW,228,11.9,15.9,7,-99.99,,,0.00,0,rob ver 1A,2013-08-12 23:49:00,
2013-08-12 16:50:00,103.9,39.0,29.26,SSE,148,6.5,10.2,10,-99.99,,,0.00,0,rob ver 1B,2013-08-12 23:50:00,
2013-08-12 16:51:00,103.8,38.5,29.26,SSE,165,6.9,9.7,10,-99.99,,,0.00,0,rob ver 1B,2013-08-12 23:51:00,
2013-08-12 16:52:00,103.7,38.3,29.26,South,182,5.7,7.4,10,-99.99,,,0.00,0,rob ver 1B,2013-08-12 23:52:00,
2013-08-12 16:53:00,103.8,38.5,29.26,SSE,163,5.1,7.6,10,-99.99,,,0.00,0,rob ver 1B,2013-08-12 23:53:00,
2013-08-12 16:54:00,102.6,30.5,29.23,SW,224,12.1,16.9,8,-99.99,,,0.00,0,rob ver 1A,2013-08-12 23:54:00,
2013-08-12 16:55:00,104.2,39.2,29.26,SSE,165,7.3,9.4,10,-99.99,,,0.00,0,rob ver 1B,2013-08-12 23:55:00,
2013-08-12 16:56:00,104.2,38.8,29.26,SSE,147,5.7,9.0,10,-99.99,,,0.00,0,rob ver 1B,2013-08-12 23:56:00,
2013-08-12 16:57:00,104.1,39.8,29.26,SSE,158,6.9,11.1,11,-99.99,,,0.00,0,rob ver 1B,2013-08-12 23:57:00,
2013-08-12 16:58:00,104.0,40.9,29.26,South,175,6.8,11.2,11,-99.99,,,0.00,0,rob ver 1B,2013-08-12 23:58:00,
2013-08-12 16:59:00,102.6,30.3,29.23,SW,221,11.1,13.3,8,-99.99,,,0.00,0,rob ver 1A,2013-08-12 23:59:00,
2013-08-12 17:00:00,103.9,40.3,29.26,SSW,210,7.9,11.1,11,-99.99,,,0.00,0,rob ver 1B,2013-08-13 00:00:00,
2013-08-12 17:01:00,104.0,40.0,29.26,SSW,205,6.3,8.4,11,-99.99,,,0.00,0,rob ver 1B,2013-08-13 00:01:00,
2013-08-12 17:02:00,104.1,40.0,29.26,South,187,2.4,5.1,11,-99.99,,,0.00,0,rob ver 1B,2013-08-13 00:02:00,
2013-08-12 17:03:00,104.3,40.1,29.26,SSE,152,1.1,2.9,11,-99.99,,,0.00,0,rob ver 1B,2013-08-13 00:03:00,
2013-08-12 17:04:00,103.1,30.1,29.23,SSW,213,11.3,18.5,7,-99.99,,,0.00,0,rob ver 1A,2013-08-13 00:04:00,
2013-08-12 17:05:00,104.8,40.1,29.26,ESE,113,1.7,3.5,11,-99.99,,,0.00,0,rob ver 1B,2013-08-13 00:05:00,
2013-08-12 17:06:00,104.8,41.5,29.26,SE,124,3.1,4.6,11,-99.99,,,0.00,0,rob ver 1B,2013-08-13 00:06:00,
2013-08-12 17:07:00,104.5,41.5,29.26,East,94,2.7,3.6,11,-99.99,,,0.00,0,rob ver 1B,2013-08-13 00:07:00,
2013-08-12 17:08:00,104.4,41.6,29.26,SE,140,3.0,6.0,11,-99.99,,,0.00,0,rob ver 1B,2013-08-13 00:08:00,
2013-08-12 17:09:00,103.2,30.2,29.23,SSW,192,10.8,14.6,8,-99.99,,,0.00,0,rob ver 1A,2013-08-13 00:09:00,
2013-08-12 17:10:00,104.4,41.7,29.26,SSW,213,4.7,7.0,11,-99.99,,,0.00,0,rob ver 1B,2013-08-13 00:10:00,
2013-08-12 17:11:00,104.3,41.8,29.26,SSW,210,3.3,4.5,12,-99.99,,,0.00,0,rob ver 1B,2013-08-13 00:11:00,
2013-08-12 17:12:00,104.4,41.9,29.26,SSW,196,3.7,5.7,12,-99.99,,,0.00,0,rob ver 1B,2013-08-13 00:12:00,
2013-08-12 17:13:00,104.6,42.2,29.26,South,187,6.2,8.9,12,-99.99,,,0.00,0,rob ver 1B,2013-08-13 00:13:00,
2013-08-12 17:14:00,102.6,30.0,29.23,SW,226,10.9,15.1,8,-99.99,,,0.00,0,rob ver 1A,2013-08-13 00:14:00,
2013-08-12 17:15:00,104.4,42.4,29.26,South,191,12.0,14.4,12,-99.99,,,0.00,0,rob ver 1B,2013-08-13 00:15:00,
2013-08-12 17:16:00,104.3,42.4,29.26,SSW,193,10.4,13.0,12,-99.99,,,0.00,2672,rob ver 1B,2013-08-13 00:16:00,
2013-08-12 17:17:00,104.0,42.3,29.26,South,190,8.1,11.4,12,-99.99,,,0.00,2650,rob ver 1B,2013-08-13 00:17:00,
2013-08-12 17:18:00,103.1,30.3,29.23,SSW,197,11.6,15.2,7,-99.99,,,0.00,0,rob ver 1A,2013-08-13 00:18:00,
2013-08-12 17:19:00,103.6,42.3,29.26,SSW,211,6.0,10.1,12,-99.99,,,0.00,2599,rob ver 1B,2013-08-13 00:19:00,
2013-08-12 17:20:00,103.7,42.3,29.26,SSW,198,8.4,10.0,12,-99.99,,,0.00,2576,rob ver 1B,2013-08-13 00:20:00,
2013-08-12 17:21:00,103.7,42.3,29.26,SSW,198,6.7,8.8,12,-99.99,,,0.00,2549,rob ver 1B,2013-08-13 00:21:00,
2013-08-12 17:22:00,103.6,42.3,29.26,SSW,195,5.0,8.1,12,-99.99,,,0.00,2521,rob ver 1B,2013-08-13 00:22:00,
2013-08-12 17:23:00,102.7,30.0,29.23,SW,217,10.0,13.7,8,-99.99,,,0.00,2577,rob ver 1A,2013-08-13 00:23:00,
2013-08-12 17:24:00,103.8,42.2,29.26,SSW,203,7.6,9.4,12,-99.99,,,0.00,2473,rob ver 1B,2013-08-13 00:24:00,
2013-08-12 17:25:00,103.9,42.1,29.26,SSW,200,4.6,7.4,12,-99.99,,,0.00,2454,rob ver 1B,2013-08-13 00:25:00,
2013-08-12 17:26:00,103.9,42.0,29.26,South,180,1.7,3.4,12,-99.99,,,0.00,2436,rob ver 1B,2013-08-13 00:26:00,
2013-08-12 17:27:00,104.2,42.1,29.26,NW,323,1.0,2.9,12,-99.99,,,0.00,2395,rob ver 1B,2013-08-13 00:27:00,
2013-08-12 17:28:00,104.5,42.0,29.26,ESE,119,3.4,7.9,11,-99.99,,,0.00,2376,rob ver 1B,2013-08-13 00:28:00,
2013-08-12 17:29:00,102.8,31.0,29.23,SSW,207,16.0,19.0,8,-99.99,,,0.00,2457,rob ver 1A,2013-08-13 00:29:00,
2013-08-12 17:30:00,104.2,41.4,29.26,South,191,10.7,13.8,11,-99.99,,,0.00,2319,rob ver 1B,2013-08-13 00:30:00,
2013-08-12 17:31:00,104.2,41.5,29.26,SSE,161,12.1,15.5,12,-99.99,,,0.00,2286,rob ver 1B,2013-08-13 00:31:00,
2013-08-12 17:32:00,104.0,41.7,29.26,SSE,159,12.0,15.5,12,-99.99,,,0.00,2267,rob ver 1B,2013-08-13 00:32:00,
2013-08-12 17:33:00,103.7,41.9,29.26,SSE,161,9.3,12.7,12,-99.99,,,0.00,2243,rob ver 1B,2013-08-13 00:33:00,
2013-08-12 17:34:00,103.5,30.9,29.23,SSW,192,12.1,15.1,7,-99.99,,,0.00,2329,rob ver 1A,2013-08-13 00:34:00,
2013-08-12 17:35:00,103.3,42.2,29.26,SSE,156,9.0,11.9,12,-99.99,,,0.00,2204,rob ver 1B,2013-08-13 00:35:00,
2013-08-12 17:36:00,103.2,42.2,29.26,SSE,161,8.3,10.9,12,-99.99,,,0.00,2172,rob ver 1B,2013-08-13 00:36:00,
2013-08-12 17:37:00,103.3,42.3,29.26,South,169,9.6,12.1,12,-99.99,,,0.00,2148,rob ver 1B,2013-08-13 00:37:00,
2013-08-12 17:38:00,103.3,42.3,29.26,SSE,167,6.5,9.7,12,-99.99,,,0.00,2123,rob ver 1B,2013-08-13 00:38:00,
2013-08-12 17:39:00,102.7,30.3,29.23,SSW,205,12.0,16.0,7,-99.99,,,0.00,2207,rob ver 1A,2013-08-13 00:39:00,
2013-08-12 17:40:00,103.2,42.0,29.26,SE,137,4.7,8.6,12,-99.99,,,0.00,2077,rob ver 1B,2013-08-13 00:40:00,
2013-08-12 17:41:00,103.1,42.2,29.26,SE,143,8.8,11.1,12,-99.99,,,0.00,2049,rob ver 1B,2013-08-13 00:41:00,
2013-08-12 17:42:00,103.0,41.7,29.26,SE,133,9.2,11.3,12,-99.99,,,0.00,2027,rob ver 1B,2013-08-13 00:42:00,
2013-08-12 17:43:00,102.8,41.8,29.26,SE,133,6.5,8.5,12,-99.99,,,0.00,2007,rob ver 1B,2013-08-13 00:43:00,
2013-08-12 17:44:00,103.1,30.4,29.23,SSW,207,10.6,13.4,7,-99.99,,,0.00,2094,rob ver 1A,2013-08-13 00:44:00,
2013-08-12 17:45:00,102.8,42.1,29.26,ESE,119,7.7,9.6,12,-99.99,,,0.00,1963,rob ver 1B,2013-08-13 00:45:00,
2013-08-12 17:46:00,102.8,42.4,29.26,SE,133,8.4,10.0,12,-99.99,,,0.00,1937,rob ver 1B,2013-08-13 00:46:00,
2013-08-12 17:47:00,102.8,42.5,29.26,SE,124,6.2,8.3,13,-99.99,,,0.00,1917,rob ver 1B,2013-08-13 00:47:00,
2013-08-12 17:48:00,102.6,42.5,29.26,ESE,118,3.2,4.3,13,-99.99,,,0.00,1893,rob ver 1B,2013-08-13 00:48:00,
2013-08-12 17:49:00,103.0,30.0,29.23,South,185,13.2,16.7,7,-99.99,,,0.00,1960,rob ver 1A,2013-08-13 00:49:00,
2013-08-12 17:50:00,102.9,42.3,29.26,SSE,163,1.6,2.7,12,-99.99,,,0.00,1839,rob ver 1B,2013-08-13 00:50:00,
2013-08-12 17:51:00,103.3,42.3,29.26,SSE,149,2.5,3.4,12,-99.99,,,0.00,1815,rob ver 1B,2013-08-13 00:51:00,
2013-08-12 17:52:00,103.6,42.5,29.26,SSW,202,3.3,7.0,12,-99.99,,,0.00,1793,rob ver 1B,2013-08-13 00:52:00,
2013-08-12 17:53:00,103.8,43.0,29.26,South,177,6.1,8.2,12,-99.99,,,0.00,1770,rob ver 1B,2013-08-13 00:53:00,
2013-08-12 17:54:00,102.7,30.6,29.23,South,181,13.9,17.0,8,-99.99,,,0.00,1812,rob ver 1A,2013-08-13 00:54:00,
2013-08-12 17:55:00,103.4,43.1,29.26,SW,226,3.1,5.7,12,-99.99,,,0.00,1720,rob ver 1B,2013-08-13 00:55:00,
2013-08-12 17:56:00,103.4,43.1,29.26,WNW,288,1.9,3.3,13,-99.99,,,0.00,1698,rob ver 1B,2013-08-13 00:56:00,
2013-08-12 17:57:00,103.6,43.0,29.26,WNW,295,2.7,4.1,12,-99.99,,,0.00,1672,rob ver 1B,2013-08-13 00:57:00,
2013-08-12 17:58:00,103.6,42.9,29.26,NNW,333,1.7,2.9,12,-99.99,,,0.00,1653,rob ver 1B,2013-08-13 00:58:00,
2013-08-12 17:59:00,102.5,31.0,29.23,SSW,213,7.9,10.4,8,-99.99,,,0.00,1688,rob ver 1A,2013-08-13 00:59:00,
2013-08-12 18:00:00,103.7,42.8,29.26,North,8,2.4,3.5,12,-99.99,,,0.00,1607,rob ver 1B,2013-08-13 01:00:00,
2013-08-12 18:01:00,103.6,42.9,29.26,NNW,336,3.1,4.0,12,-99.99,,,0.00,1588,rob ver 1B,2013-08-13 01:01:00,
2013-08-12 18:02:00,103.6,42.9,29.26,WNW,292,2.9,3.6,12,-99.99,,,0.00,1560,rob ver 1B,2013-08-13 01:02:00,
2013-08-12 18:03:00,103.7,43.0,29.26,West,278,3.3,3.9,12,-99.99,,,0.00,1538,rob ver 1B,2013-08-13 01:03:00,
2013-08-12 18:04:00,102.5,31.6,29.23,SSW,205,9.5,11.1,8,-99.99,,,0.00,1575,rob ver 1A,2013-08-13 01:04:00,
2013-08-12 18:05:00,103.6,43.0,29.26,North,349,1.4,2.7,12,-99.99,,,0.00,1486,rob ver 1B,2013-08-13 01:05:00,
2013-08-12 18:06:00,103.8,42.9,29.26,West,262,1.9,5.0,12,-99.99,,,0.00,1462,rob ver 1B,2013-08-13 01:06:00,
2013-08-12 18:07:00,104.0,42.7,29.26,South,179,4.4,6.4,12,-99.99,,,0.00,1439,rob ver 1B,2013-08-13 01:07:00,
2013-08-12 18:08:00,103.8,42.8,29.26,SSW,192,4.9,7.2,12,-99.99,,,0.00,1412,rob ver 1B,2013-08-13 01:08:00,
2013-08-12 18:09:00,102.2,29.4,29.23,South,184,10.9,13.2,7,-99.99,,,0.00,1449,rob ver 1A,2013-08-13 01:09:00,
2013-08-12 18:10:00,103.7,42.8,29.26,SSE,166,1.5,3.1,12,-99.99,,,0.00,1367,rob ver 1B,2013-08-13 01:10:00,
2013-08-12 18:11:00,103.8,42.7,29.26,SE,125,1.5,2.3,12,-99.99,,,0.00,1342,rob ver 1B,2013-08-13 01:11:00,
2013-08-12 18:12:00,103.8,42.7,29.26,ESE,119,1.1,3.2,12,-99.99,,,0.00,1320,rob ver 1B,2013-08-13 01:12:00,
2013-08-12 18:13:00,103.7,42.7,29.26,SSE,150,2.6,3.7,12,-99.99,,,0.00,1297,rob ver 1B,2013-08-13 01:13:00,
2013-08-12 18:14:00,102.4,29.8,29.23,SSW,194,12.2,14.4,7,-99.99,,,0.00,1292,rob ver 1A,2013-08-13 01:14:00,
2013-08-12 18:15:00,103.6,42.4,29.26,South,188,7.9,12.6,12,-99.99,,,0.00,1257,rob ver 1B,2013-08-13 01:15:00,
2013-08-12 18:16:00,103.3,42.6,29.26,South,172,12.3,15.5,12,-99.99,,,0.00,1235,rob ver 1B,2013-08-13 01:16:00,
2013-08-12 18:17:00,103.0,42.6,29.26,South,173,9.7,11.7,12,-99.99,,,0.00,1210,rob ver 1B,2013-08-13 01:17:00,
2013-08-12 18:18:00,103.0,42.5,29.26,South,177,8.5,11.2,12,-99.99,,,0.00,1187,rob ver 1B,2013-08-13 01:18:00,
2013-08-12 18:19:00,103.1,42.7,29.26,South,183,9.4,11.6,13,-99.99,,,0.00,1165,rob ver 1B,2013-08-13 01:19:00,
2013-08-12 18:20:00,102.0,29.9,29.23,South,174,6.8,7.8,8,-99.99,,,0.00,1188,rob ver 1A,2013-08-13 01:20:00,
2013-08-12 18:21:00,102.8,42.6,29.26,SSW,198,10.1,14.1,12,-99.99,,,0.00,1119,rob ver 1B,2013-08-13 01:21:00,
2013-08-12 18:22:00,103.1,42.5,29.26,SSW,194,9.1,12.9,12,-99.99,,,0.00,1098,rob ver 1B,2013-08-13 01:22:00,
2013-08-12 18:23:00,103.3,42.6,29.26,South,180,9.4,12.0,12,-99.99,,,0.00,1075,rob ver 1B,2013-08-13 01:23:00,
2013-08-12 18:24:00,103.3,42.9,29.26,SSW,193,11.1,13.7,13,-99.99,,,0.00,1053,rob ver 1B,2013-08-13 01:24:00,
2013-08-12 18:25:00,102.1,30.3,29.23,South,187,6.7,8.5,8,-99.99,,,0.00,1091,rob ver 1A,2013-08-13 01:25:00,
2013-08-12 18:26:00,102.5,43.2,29.26,SW,215,11.9,13.8,13,-99.99,,,0.00,1009,rob ver 1B,2013-08-13 01:26:00,
2013-08-12 18:27:00,102.3,43.4,29.23,SW,217,10.9,14.5,13,-99.99,,,0.00,989,rob ver 1B,2013-08-13 01:27:00,
2013-08-12 18:28:00,102.1,43.4,29.23,SW,225,12.3,15.3,13,-99.99,,,0.00,967,rob ver 1B,2013-08-13 01:28:00,
2013-08-12 18:29:00,102.0,43.5,29.26,SW,230,11.6,13.9,13,-99.99,,,0.00,947,rob ver 1B,2013-08-13 01:29:00,
2013-08-12 18:30:00,101.9,31.4,29.23,SSW,198,10.2,12.9,8,-99.99,,,0.00,979,rob ver 1A,2013-08-13 01:30:00,
2013-08-12 18:31:00,101.8,43.4,29.23,SSW,201,11.7,14.3,13,-99.99,,,0.00,904,rob ver 1B,2013-08-13 01:31:00,
2013-08-12 18:32:00,101.8,43.3,29.26,SSW,203,10.1,12.7,13,-99.99,,,0.00,885,rob ver 1B,2013-08-13 01:32:00,
2013-08-12 18:33:00,101.8,43.4,29.26,SW,218,9.3,11.5,13,-99.99,,,0.00,863,rob ver 1B,2013-08-13 01:33:00,
2013-08-12 18:34:00,101.8,43.5,29.26,SW,227,9.9,13.3,13,-99.99,,,0.00,844,rob ver 1B,2013-08-13 01:34:00,
2013-08-12 18:35:00,101.7,30.3,29.23,SSW,198,8.7,9.8,8,-99.99,,,0.00,861,rob ver 1A,2013-08-13 01:35:00,
2013-08-12 18:36:00,101.8,43.7,29.26,SW,219,11.5,14.4,14,-99.99,,,0.00,806,rob ver 1B,2013-08-13 01:36:00,
2013-08-12 18:37:00,101.7,43.7,29.23,SW,216,10.9,13.0,14,-99.99,,,0.00,785,rob ver 1B,2013-08-13 01:37:00,
2013-08-12 18:38:00,101.7,43.8,29.26,SW,229,12.0,14.4,14,-99.99,,,0.00,763,rob ver 1B,2013-08-13 01:38:00,
2013-08-12 18:39:00,101.5,43.8,29.26,SW,230,13.0,16.3,14,-99.99,,,0.00,744,rob ver 1B,2013-08-13 01:39:00,
2013-08-12 18:40:00,101.5,31.7,29.23,SSW,213,10.3,13.3,8,-99.99,,,0.00,703,rob ver 1A,2013-08-13 01:40:00,
2013-08-12 18:41:00,101.4,44.0,29.23,SW,226,12.0,14.2,14,-99.99,,,0.00,707,rob ver 1B,2013-08-13 01:41:00,
2013-08-12 18:42:00,101.2,44.1,29.26,SW,222,10.8,13.4,14,-99.99,,,0.00,688.5,rob ver 1B,2013-08-13 01:42:00,
2013-08-12 18:43:00,101.3,44.0,29.26,SW,222,12.7,15.2,14,-99.99,,,0.00,669.2,rob ver 1B,2013-08-13 01:43:00,
2013-08-12 18:44:00,101.3,43.9,29.26,SSW,213,11.6,14.1,14,-99.99,,,0.00,650.2,rob ver 1B,2013-08-13 01:44:00,
2013-08-12 18:45:00,101.4,43.7,29.26,SSW,209,10.1,11.2,14,-99.99,,,0.00,632,rob ver 1B,2013-08-13 01:45:00,
2013-08-12 18:46:00,101.2,31.7,29.23,SW,220,10.0,12.4,8,-99.99,,,0.00,580.4,rob ver 1A,2013-08-13 01:46:00,
2013-08-12 18:47:00,101.4,44.2,29.26,SW,217,10.9,12.2,14,-99.99,,,0.00,596,rob ver 1B,2013-08-13 01:47:00,
2013-08-12 18:48:00,101.3,44.2,29.26,SSW,212,9.8,11.6,14,-99.99,,,0.00,577.6,rob ver 1B,2013-08-13 01:48:00,
2013-08-12 18:49:00,101.3,44.2,29.26,SSW,208,8.8,10.8,14,-99.99,,,0.00,558.8,rob ver 1B,2013-08-13 01:49:00,
2013-08-12 18:50:00,101.4,44.5,29.26,SW,217,10.4,13.2,14,-99.99,,,0.00,541.8,rob ver 1B,2013-08-13 01:50:00,
2013-08-12 18:51:00,100.8,31.4,29.23,SW,215,8.9,10.6,8,-99.99,,,0.00,495.2,rob ver 1A,2013-08-13 01:51:00,
2013-08-12 18:52:00,101.3,44.0,29.26,SSW,213,13.6,16.0,14,-99.99,,,0.00,505.8,rob ver 1B,2013-08-13 01:52:00,
2013-08-12 18:53:00,101.2,44.1,29.26,SSW,201,11.5,13.9,14,-99.99,,,0.00,488.6,rob ver 1B,2013-08-13 01:53:00,
2013-08-12 18:54:00,101.2,43.9,29.26,South,186,10.8,13.8,14,-99.99,,,0.00,472.3,rob ver 1B,2013-08-13 01:54:00,
2013-08-12 18:55:00,101.1,43.9,29.26,South,187,10.7,13.2,14,-99.99,,,0.00,454.2,rob ver 1B,2013-08-13 01:55:00,
2013-08-12 18:56:00,100.3,32.3,29.23,SW,225,6.9,8.2,9,-99.99,,,0.00,378.2,rob ver 1A,2013-08-13 01:56:00,
2013-08-12 18:57:00,101.0,43.8,29.26,South,188,9.8,11.6,14,-99.99,,,0.00,421.1,rob ver 1B,2013-08-13 01:57:00,
2013-08-12 18:58:00,101.0,43.7,29.26,SSW,193,9.0,11.3,14,-99.99,,,0.00,402.6,rob ver 1B,2013-08-13 01:58:00,
2013-08-12 18:59:00,101.0,43.9,29.26,South,191,8.7,10.5,14,-99.99,,,0.00,383.9,rob ver 1B,2013-08-13 01:59:00,
2013-08-12 19:00:00,101.0,44.1,29.26,South,189,10.6,13.0,14,-99.99,,,0.00,366.7,rob ver 1B,2013-08-13 02:00:00,
2013-08-12 19:01:00,100.2,32.4,29.23,SW,216,10.1,12.0,9,-99.99,,,0.00,303.8,rob ver 1A,2013-08-13 02:01:00,
2013-08-12 19:02:00,100.9,44.2,29.26,SSW,195,11.2,13.3,14,-99.99,,,0.00,333.1,rob ver 1B,2013-08-13 02:02:00,
2013-08-12 19:03:00,100.8,44.3,29.26,South,191,10.8,13.3,14,-99.99,,,0.00,317.1,rob ver 1B,2013-08-13 02:03:00,
2013-08-12 19:04:00,100.7,44.4,29.26,South,190,10.4,14.1,14,-99.99,,,0.00,299.8,rob ver 1B,2013-08-13 02:04:00,
2013-08-12 19:05:00,100.6,44.6,29.26,South,191,10.9,13.0,15,-99.99,,,0.00,280.4,rob ver 1B,2013-08-13 02:05:00,
2013-08-12 19:06:00,100.5,44.6,29.26,South,189,10.4,12.4,15,-99.99,,,0.00,263.6,rob ver 1B,2013-08-13 02:06:00,
2013-08-12 19:07:00,99.9,32.5,29.23,SW,219,8.2,9.8,9,-99.99,,,0.00,230.6,rob ver 1A,2013-08-13 02:07:00,
2013-08-12 19:08:00,100.3,44.7,29.26,South,187,9.9,11.9,15,-99.99,,,0.00,234.9,rob ver 1B,2013-08-13 02:08:00,
2013-08-12 19:09:00,100.3,44.9,29.26,SSW,203,9.1,11.7,15,-99.99,,,0.00,220.8,rob ver 1B,2013-08-13 02:09:00,
2013-08-12 19:10:00,100.3,45.2,29.26,SSW,197,9.0,11.5,15,-99.99,,,0.00,205.1,rob ver 1B,2013-08-13 02:10:00,
2013-08-12 19:11:00,100.2,44.8,29.26,South,191,8.0,10.0,15,-99.99,,,0.00,189.8,rob ver 1B,2013-08-13 02:11:00,
2013-08-12 19:12:00,99.8,31.7,29.23,SSW,213,5.8,7.2,9,-99.99,,,0.00,165.4,rob ver 1A,2013-08-13 02:12:00,
2013-08-12 19:13:00,100.2,46.4,29.26,SSW,195,9.4,11.0,16,-99.99,,,0.00,159.1,rob ver 1B,2013-08-13 02:13:00,
2013-08-12 19:14:00,100.1,47.7,29.26,SSW,195,9.1,12.1,16,-99.99,,,0.00,141,rob ver 1B,2013-08-13 02:14:00,
2013-08-12 19:15:00,100.0,48.1,29.26,South,190,9.7,12.2,17,-99.99,,,0.00,123.9,rob ver 1B,2013-08-13 02:15:00,
2013-08-12 19:16:00,99.8,48.8,29.26,SSW,194,10.4,12.2,18,-99.99,,,0.00,111,rob ver 1B,2013-08-13 02:16:00,
2013-08-12 19:17:00,99.6,30.9,29.23,SW,215,7.1,9.8,9,-99.99,,,0.00,113,rob ver 1A,2013-08-13 02:17:00,
2013-08-12 19:18:00,99.4,48.7,29.26,SSW,195,9.3,13.8,18,-99.99,,,0.00,93.6,rob ver 1B,2013-08-13 02:18:00,
2013-08-12 19:19:00,99.4,48.4,29.26,SSW,199,11.4,13.4,17,-99.99,,,0.00,83,rob ver 1B,2013-08-13 02:19:00,
2013-08-12 19:20:00,99.4,47.9,29.26,South,191,8.7,11.0,17,-99.99,,,0.00,71.2,rob ver 1B,2013-08-13 02:20:00,
2013-08-12 19:21:00,99.3,46.9,29.26,South,184,9.3,12.5,16,-99.99,,,0.00,60.3,rob ver 1B,2013-08-13 02:21:00,
2013-08-12 19:22:00,99.1,31.4,29.23,SSW,212,7.3,9.1,9,-99.99,,,0.00,54.2,rob ver 1A,2013-08-13 02:22:00,
2013-08-12 19:23:00,99.4,46.9,29.26,South,184,8.5,10.7,17,-99.99,,,0.00,44.48,rob ver 1B,2013-08-13 02:23:00,
2013-08-12 19:24:00,99.3,47.2,29.26,South,177,9.5,13.2,17,-99.99,,,0.00,38.88,rob ver 1B,2013-08-13 02:24:00,
2013-08-12 19:25:00,99.2,47.7,29.26,South,175,11.2,13.3,17,-99.99,,,0.00,34.93,rob ver 1B,2013-08-13 02:25:00,
2013-08-12 19:26:00,99.1,47.8,29.26,South,172,10.7,12.6,17,-99.99,,,0.00,31.63,rob ver 1B,2013-08-13 02:26:00,
2013-08-12 19:27:00,98.7,31.9,29.23,SW,220,6.3,7.2,9,-99.99,,,0.00,29,rob ver 1A,2013-08-13 02:27:00,
2013-08-12 19:28:00,98.9,47.5,29.26,SSE,168,11.4,13.2,17,-99.99,,,0.00,25.7,rob ver 1B,2013-08-13 02:28:00,
2013-08-12 19:29:00,98.9,47.4,29.26,South,175,8.9,10.2,17,-99.99,,,0.00,23.06,rob ver 1B,2013-08-13 02:29:00,
2013-08-12 19:30:00,98.9,47.4,29.26,South,178,9.2,11.3,17,-99.99,,,0.00,20.76,rob ver 1B,2013-08-13 02:30:00,
2013-08-12 19:31:00,98.9,47.3,29.26,South,185,9.4,11.7,17,-99.99,,,0.00,18.45,rob ver 1B,2013-08-13 02:31:00,
2013-08-12 19:32:00,98.3,32.0,29.23,SW,222,5.7,6.7,9,-99.99,,,0.00,16.48,rob ver 1A,2013-08-13 02:32:00,
2013-08-12 19:33:00,98.8,48.0,29.26,South,182,10.1,11.8,18,-99.99,,,0.00,14.5,rob ver 1B,2013-08-13 02:33:00,
2013-08-12 19:34:00,98.8,48.4,29.26,South,185,9.6,12.4,18,-99.99,,,0.00,12.68,rob ver 1B,2013-08-13 02:34:00,
2013-08-12 19:35:00,98.7,48.5,29.26,South,187,9.7,11.7,18,-99.99,,,0.00,10.87,rob ver 1B,2013-08-13 02:35:00,
2013-08-12 19:36:00,98.7,48.4,29.26,South,190,8.6,10.7,18,-99.99,,,0.00,9.39,rob ver 1B,2013-08-13 02:36:00,
2013-08-12 19:37:00,98.0,32.0,29.23,SW,216,4.2,5.1,9,-99.99,,,0.00,8.57,rob ver 1A,2013-08-13 02:37:00,
2013-08-12 19:38:00,98.5,48.5,29.26,SSW,192,8.4,10.4,18,-99.99,,,0.00,6.59,rob ver 1B,2013-08-13 02:38:00,
2013-08-12 19:39:00,98.5,48.4,29.26,SSW,195,8.1,10.5,18,-99.99,,,0.00,5.436,rob ver 1B,2013-08-13 02:39:00,
2013-08-12 19:40:00,98.4,48.4,29.26,SSW,200,8.4,10.9,18,-99.99,,,0.00,4.942,rob ver 1B,2013-08-13 02:40:00,
2013-08-12 19:41:00,98.4,48.3,29.26,SSW,202,8.4,10.7,18,-99.99,,,0.00,4.283,rob ver 1B,2013-08-13 02:41:00,
2013-08-12 19:42:00,97.6,32.0,29.23,SW,218,4.7,6.1,9,-99.99,,,0.00,3.789,rob ver 1A,2013-08-13 02:42:00,
2013-08-12 19:43:00,98.3,48.4,29.26,SSW,197,6.8,8.9,18,-99.99,,,0.00,2.965,rob ver 1B,2013-08-13 02:43:00,
2013-08-12 19:44:00,98.3,49.3,29.26,SSW,204,7.7,9.7,19,-99.99,,,0.00,2.306,rob ver 1B,2013-08-13 02:44:00,
2013-08-12 19:45:00,98.2,49.8,29.26,SSW,204,8.3,10.5,19,-99.99,,,0.00,1.647,rob ver 1B,2013-08-13 02:45:00,
2013-08-12 19:46:00,98.1,49.9,29.26,SSW,205,8.9,10.6,19,-99.99,,,0.00,1.318,rob ver 1B,2013-08-13 02:46:00,
2013-08-12 19:47:00,97.3,31.9,29.23,SW,215,5.5,6.3,10,-99.99,,,0.00,1.153,rob ver 1A,2013-08-13 02:47:00,
2013-08-12 19:48:00,97.9,49.9,29.26,SSW,203,7.6,9.1,19,-99.99,,,0.00,.988,rob ver 1B,2013-08-13 02:48:00,
2013-08-12 19:49:00,97.8,49.8,29.26,SSW,199,7.6,9.0,19,-99.99,,,0.00,.659,rob ver 1B,2013-08-13 02:49:00,
2013-08-12 19:50:00,97.8,49.8,29.26,SSW,202,7.5,8.6,19,-99.99,,,0.00,.329,rob ver 1B,2013-08-13 02:50:00,
2013-08-12 19:51:00,97.7,49.7,29.26,SSW,202,8.1,9.2,19,-99.99,,,0.00,.329,rob ver 1B,2013-08-13 02:51:00,
2013-08-12 19:52:00,97.7,49.7,29.26,SSW,200,7.8,10.4,19,-99.99,,,0.00,.329,rob ver 1B,2013-08-13 02:52:00,
2013-08-12 19:53:00,96.9,32.1,29.23,SW,216,5.5,7.0,10,-99.99,,,0.00,0,rob ver 1A,2013-08-13 02:53:00,
2013-08-12 19:54:00,97.6,49.9,29.26,SSW,206,8.1,10.0,20,-99.99,,,0.00,0,rob ver 1B,2013-08-13 02:54:00,
2013-08-12 19:55:00,97.5,50.0,29.26,SSW,200,8.4,9.7,20,-99.99,,,0.00,0,rob ver 1B,2013-08-13 02:55:00,
2013-08-12 19:56:00,97.4,50.1,29.26,SSW,205,8.4,10.7,20,-99.99,,,0.00,0,rob ver 1B,2013-08-13 02:56:00,
2013-08-12 19:57:00,97.4,50.2,29.26,SSW,203,9.3,11.1,20,-99.99,,,0.00,0,rob ver 1B,2013-08-13 02:57:00,
2013-08-12 19:58:00,96.6,32.3,29.23,SW,214,5.7,6.7,10,-99.99,,,0.00,0,rob ver 1A,2013-08-13 02:58:00,
2013-08-12 19:59:00,97.3,50.1,29.26,SSW,197,6.7,9.0,20,-99.99,,,0.00,0,rob ver 1B,2013-08-13 02:59:00,
2013-08-12 20:00:00,97.2,50.2,29.26,SSW,196,7.5,9.4,20,-99.99,,,0.00,0,rob ver 1B,2013-08-13 03:00:00,
2013-08-12 20:01:00,97.2,50.1,29.26,SSW,200,8.3,9.9,20,-99.99,,,0.00,0,rob ver 1B,2013-08-13 03:01:00,
2013-08-12 20:02:00,97.2,50.1,29.26,SSW,200,8.3,10.2,20,-99.99,,,0.00,0,rob ver 1B,2013-08-13 03:02:00,
2013-08-12 20:03:00,96.5,32.3,29.23,SSW,209,6.5,7.4,10,-99.99,,,0.00,0,rob ver 1A,2013-08-13 03:03:00,
2013-08-12 20:04:00,97.1,49.9,29.26,SSW,198,7.7,9.4,20,-99.99,,,0.00,0,rob ver 1B,2013-08-13 03:04:00,
2013-08-12 20:05:00,97.1,50.0,29.26,SSW,198,8.0,10.1,20,-99.99,,,0.00,0,rob ver 1B,2013-08-13 03:05:00,
2013-08-12 20:06:00,97.1,49.9,29.26,SSW,196,8.3,9.9,20,-99.99,,,0.00,0,rob ver 1B,2013-08-13 03:06:00,
2013-08-12 20:07:00,97.1,49.8,29.26,SSW,195,7.7,9.1,20,-99.99,,,0.00,0,rob ver 1B,2013-08-13 03:07:00,
2013-08-12 20:08:00,96.1,32.2,29.23,SSW,210,5.2,6.1,10,-99.99,,,0.00,0,rob ver 1A,2013-08-13 03:08:00,
2013-08-12 20:09:00,97.0,49.8,29.26,SSW,196,7.2,8.9,20,-99.99,,,0.00,0,rob ver 1B,2013-08-13 03:09:00,
2013-08-12 20:10:00,97.0,49.7,29.26,SSW,197,6.5,7.7,20,-99.99,,,0.00,0,rob ver 1B,2013-08-13 03:10:00,
2013-08-12 20:11:00,96.9,49.9,29.26,SSW,200,7.0,8.4,20,-99.99,,,0.00,0,rob ver 1B,2013-08-13 03:11:00,
2013-08-12 20:12:00,96.9,50.0,29.26,SSW,203,7.0,8.1,20,-99.99,,,0.00,0,rob ver 1B,2013-08-13 03:12:00,
2013-08-12 20:13:00,95.8,32.2,29.23,SSW,201,4.9,6.7,10,-99.99,,,0.00,0,rob ver 1A,2013-08-13 03:13:00,
2013-08-12 20:14:00,96.7,50.0,29.26,SSW,203,7.3,8.4,20,-99.99,,,0.00,0,rob ver 1B,2013-08-13 03:14:00,
2013-08-12 20:15:00,96.7,50.2,29.26,SSW,202,7.5,8.8,20,-99.99,,,0.00,0,rob ver 1B,2013-08-13 03:15:00,
2013-08-12 20:16:00,96.6,50.2,29.26,SSW,203,7.9,9.8,21,-99.99,,,0.00,0,rob ver 1B,2013-08-13 03:16:00,
2013-08-12 20:17:00,96.6,50.2,29.26,SSW,197,7.6,9.6,20,-99.99,,,0.00,0,rob ver 1B,2013-08-13 03:17:00,
2013-08-12 20:18:00,95.3,32.4,29.26,SSW,194,4.3,5.0,10,-99.99,,,0.00,0,rob ver 1A,2013-08-13 03:18:00,
2013-08-12 20:19:00,96.5,50.3,29.26,SSW,198,6.6,8.1,21,-99.99,,,0.00,0,rob ver 1B,2013-08-13 03:19:00,
2013-08-12 20:20:00,96.4,50.3,29.26,SSW,196,6.7,8.8,21,-99.99,,,0.00,0,rob ver 1B,2013-08-13 03:20:00,
2013-08-12 20:21:00,96.3,50.3,29.26,South,189,7.4,9.5,21,-99.99,,,0.00,0,rob ver 1B,2013-08-13 03:21:00,
2013-08-12 20:22:00,96.3,50.3,29.26,South,190,6.8,8.5,21,-99.99,,,0.00,0,rob ver 1B,2013-08-13 03:22:00,
2013-08-12 20:23:00,95.3,32.5,29.26,South,191,3.8,4.5,11,-99.99,,,0.00,0,rob ver 1A,2013-08-13 03:23:00,
2013-08-12 20:24:00,96.3,50.2,29.26,South,183,7.3,9.1,21,-99.99,,,0.00,0,rob ver 1B,2013-08-13 03:24:00,
2013-08-12 20:25:00,96.3,50.1,29.26,South,183,6.4,8.0,20,-99.99,,,0.00,0,rob ver 1B,2013-08-13 03:25:00,
2013-08-12 20:26:00,96.2,50.0,29.26,South,184,6.5,7.8,20,-99.99,,,0.00,0,rob ver 1B,2013-08-13 03:26:00,
2013-08-12 20:27:00,96.2,49.9,29.26,South,182,6.4,8.0,20,-99.99,,,0.00,0,rob ver 1B,2013-08-13 03:27:00,
2013-08-12 20:28:00,95.0,32.3,29.26,SSW,201,4.3,5.1,11,-99.99,,,0.00,0,rob ver 1A,2013-08-13 03:28:00,
2013-08-12 20:29:00,96.2,50.0,29.26,South,180,7.0,8.0,20,-99.99,,,0.00,0,rob ver 1B,2013-08-13 03:29:00,
2013-08-12 20:30:00,96.2,49.9,29.26,South,180,7.3,8.8,20,-99.99,,,0.00,0,rob ver 1B,2013-08-13 03:30:00,
2013-08-12 20:31:00,96.2,49.8,29.26,South,180,7.1,8.6,20,-99.99,,,0.00,0,rob ver 1B,2013-08-13 03:31:00,
2013-08-12 20:32:00,96.2,49.7,29.26,South,175,6.7,7.9,20,-99.99,,,0.00,0,rob ver 1B,2013-08-13 03:32:00,
2013-08-12 20:33:00,96.1,49.6,29.26,South,177,6.1,8.8,20,-99.99,,,0.00,0,rob ver 1B,2013-08-13 03:33:00,
2013-08-12 20:34:00,94.9,32.2,29.26,SSW,202,4.4,5.0,11,-99.99,,,0.00,0,rob ver 1A,2013-08-13 03:34:00,
2013-08-12 20:35:00,96.1,49.4,29.26,South,179,6.8,7.9,20,-99.99,,,0.00,0,rob ver 1B,2013-08-13 03:35:00,
2013-08-12 20:36:00,96.1,49.4,29.26,South,178,7.3,8.5,20,-99.99,,,0.00,0,rob ver 1B,2013-08-13 03:36:00,
2013-08-12 20:37:00,96.0,49.3,29.26,South,177,6.4,8.2,20,-99.99,,,0.00,0,rob ver 1B,2013-08-13 03:37:00,
2013-08-12 20:38:00,96.0,49.2,29.26,South,175,6.5,7.6,20,-99.99,,,0.00,0,rob ver 1B,2013-08-13 03:38:00,
2013-08-12 20:39:00,94.5,32.3,29.26,SSW,194,4.1,4.8,11,-99.99,,,0.00,0,rob ver 1A,2013-08-13 03:39:00,
2013-08-12 20:40:00,95.9,49.1,29.26,South,173,6.5,7.5,20,-99.99,,,0.00,0,rob ver 1B,2013-08-13 03:40:00,
2013-08-12 20:41:00,95.9,49.0,29.26,South,169,5.8,6.7,20,-99.99,,,0.00,0,rob ver 1B,2013-08-13 03:41:00,
2013-08-12 20:42:00,95.8,49.0,29.26,SSE,168,5.5,6.9,20,-99.99,,,0.00,0,rob ver 1B,2013-08-13 03:42:00,
2013-08-12 20:43:00,95.7,49.0,29.26,SSE,166,5.3,6.3,20,-99.99,,,0.00,0,rob ver 1B,2013-08-13 03:43:00,
2013-08-12 20:44:00,94.3,32.5,29.26,SSW,197,3.5,4.5,11,-99.99,,,0.00,0,rob ver 1A,2013-08-13 03:44:00,
2013-08-12 20:45:00,95.5,48.9,29.26,SSE,165,5.1,6.9,20,-99.99,,,0.00,0,rob ver 1B,2013-08-13 03:45:00,
2013-08-12 20:46:00,95.5,48.8,29.26,SSE,164,6.1,7.0,20,-99.99,,,0.00,0,rob ver 1B,2013-08-13 03:46:00,
2013-08-12 20:47:00,95.5,48.7,29.26,SSE,165,5.9,6.8,20,-99.99,,,0.00,0,rob ver 1B,2013-08-13 03:47:00,
2013-08-12 20:48:00,95.4,48.6,29.26,SSE,166,6.3,7.4,20,-99.99,,,0.00,0,rob ver 1B,2013-08-13 03:48:00,
2013-08-12 20:49:00,93.9,32.4,29.26,SSW,194,3.1,3.8,11,-99.99,,,0.00,0,rob ver 1A,2013-08-13 03:49:00,
2013-08-12 20:50:00,95.4,48.4,29.26,SSE,165,5.4,6.2,20,-99.99,,,0.00,0,rob ver 1B,2013-08-13 03:50:00,
2013-08-12 20:51:00,95.3,48.4,29.29,SSE,167,6.0,7.4,20,-99.99,,,0.00,0,rob ver 1B,2013-08-13 03:51:00,
2013-08-12 20:52:00,95.3,48.3,29.29,SSE,166,5.3,6.5,20,-99.99,,,0.00,0,rob ver 1B,2013-08-13 03:52:00,
2013-08-12 20:53:00,95.3,48.2,29.26,SSE,168,5.6,6.5,20,-99.99,,,0.00,0,rob ver 1B,2013-08-13 03:53:00,
2013-08-12 20:54:00,93.7,32.5,29.26,SSE,153,2.7,3.2,11,-99.99,,,0.00,0,rob ver 1A,2013-08-13 03:54:00,
2013-08-12 20:55:00,95.2,48.1,29.29,South,171,5.7,7.1,20,-99.99,,,0.00,0,rob ver 1B,2013-08-13 03:55:00,
2013-08-12 20:56:00,95.2,48.1,29.29,South,174,6.0,6.9,20,-99.99,,,0.00,0,rob ver 1B,2013-08-13 03:56:00,
2013-08-12 20:57:00,95.2,48.1,29.29,South,172,5.6,6.5,20,-99.99,,,0.00,0,rob ver 1B,2013-08-13 03:57:00,
2013-08-12 20:58:00,95.1,48.0,29.29,South,172,6.4,8.0,20,-99.99,,,0.00,0,rob ver 1B,2013-08-13 03:58:00,
2013-08-12 20:59:00,92.8,32.2,29.26,SE,131,3.5,4.1,11,-99.99,,,0.00,0,rob ver 1A,2013-08-13 03:59:00,
2013-08-12 21:00:00,95.1,47.8,29.29,South,169,6.3,7.9,19,-99.99,,,0.00,0,rob ver 1B,2013-08-13 04:00:00,
2013-08-12 21:01:00,93.2,32.4,29.26,SE,142,3.4,4.0,11,-99.99,,,0.00,0,rob ver 1A,2013-08-13 04:01:00,
2013-08-12 21:02:00,93.3,32.4,29.26,SE,143,3.4,3.8,11,-99.99,,,0.00,0,rob ver 1A,2013-08-13 04:02:00,
2013-08-12 21:03:00,95.0,47.6,29.29,SSE,167,5.9,7.1,19,-99.99,,,0.00,0,rob ver 1B,2013-08-13 04:03:00,
2013-08-12 21:04:00,94.9,47.5,29.29,SSE,164,6.0,7.4,19,-99.99,,,0.00,0,rob ver 1B,2013-08-13 04:04:00,
2013-08-12 21:05:00,93.5,32.4,29.26,SE,145,2.9,3.2,11,-99.99,,,0.00,0,rob ver 1A,2013-08-13 04:05:00,
2013-08-12 21:06:00,94.8,47.3,29.29,SSE,164,5.6,6.6,19,-99.99,,,0.00,0,rob ver 1B,2013-08-13 04:06:00,
2013-08-12 21:07:00,94.8,47.2,29.29,SSE,164,5.3,6.3,19,-99.99,,,0.00,0,rob ver 1B,2013-08-13 04:07:00,
2013-08-12 21:08:00,94.8,47.1,29.29,SSE,163,4.9,6.1,19,-99.99,,,0.00,0,rob ver 1B,2013-08-13 04:08:00,
2013-08-12 21:09:00,94.7,47.0,29.29,SSE,160,5.0,6.1,19,-99.99,,,0.00,0,rob ver 1B,2013-08-13 04:09:00,
2013-08-12 21:10:00,93.4,32.5,29.26,SE,141,2.5,2.9,11,-99.99,,,0.00,0,rob ver 1A,2013-08-13 04:10:00,
2013-08-12 21:11:00,94.6,46.7,29.29,SSE,164,4.5,5.9,19,-99.99,,,0.00,0,rob ver 1B,2013-08-13 04:11:00,
2013-08-12 21:12:00,94.5,46.4,29.29,SSE,162,4.6,5.6,19,-99.99,,,0.00,0,rob ver 1B,2013-08-13 04:12:00,
2013-08-12 21:13:00,94.4,45.9,29.29,SSE,162,5.5,7.2,18,-99.99,,,0.00,0,rob ver 1B,2013-08-13 04:13:00,
2013-08-12 21:14:00,94.4,45.4,29.29,SSE,164,5.8,7.0,18,-99.99,,,0.00,0,rob ver 1B,2013-08-13 04:14:00,
2013-08-12 21:15:00,93.2,32.4,29.26,SE,139,5.5,6.7,11,-99.99,,,0.00,0,rob ver 1A,2013-08-13 04:15:00,
2013-08-12 21:16:00,94.5,44.5,29.29,SSE,166,5.8,7.6,17,-99.99,,,0.00,0,rob ver 1B,2013-08-13 04:16:00,
2013-08-12 21:17:00,94.4,43.8,29.29,South,170,6.6,8.2,17,-99.99,,,0.00,0,rob ver 1B,2013-08-13 04:17:00,
2013-08-12 21:18:00,94.5,43.3,29.29,South,170,6.6,8.4,17,-99.99,,,0.00,0,rob ver 1B,2013-08-13 04:18:00,
2013-08-12 21:19:00,94.4,42.9,29.29,SSE,167,6.7,8.1,16,-99.99,,,0.00,0,rob ver 1B,2013-08-13 04:19:00,
2013-08-12 21:20:00,92.7,32.2,29.26,SSE,147,7.2,8.4,11,-99.99,,,0.00,0,rob ver 1A,2013-08-13 04:20:00,
2013-08-12 21:21:00,94.4,41.8,29.29,SSE,167,6.7,8.5,16,-99.99,,,0.00,0,rob ver 1B,2013-08-13 04:21:00,
2013-08-12 21:22:00,94.4,41.0,29.29,South,169,6.6,8.5,15,-99.99,,,0.00,0,rob ver 1B,2013-08-13 04:22:00,
2013-08-12 21:23:00,94.4,40.5,29.29,SSE,168,6.5,7.8,15,-99.99,,,0.00,0,rob ver 1B,2013-08-13 04:23:00,
2013-08-12 21:24:00,94.4,40.4,29.29,SSE,167,6.4,7.4,15,-99.99,,,0.00,0,rob ver 1B,2013-08-13 04:24:00,
2013-08-12 21:25:00,92.3,32.4,29.26,SSE,158,6.7,8.1,11,-99.99,,,0.00,0,rob ver 1A,2013-08-13 04:25:00,
2013-08-12 21:26:00,94.3,40.1,29.29,SSE,167,6.1,7.8,15,-99.99,,,0.00,0,rob ver 1B,2013-08-13 04:26:00,
2013-08-12 21:27:00,94.2,40.0,29.29,SSE,163,6.3,7.6,15,-99.99,,,0.00,0,rob ver 1B,2013-08-13 04:27:00,
2013-08-12 21:28:00,94.2,39.9,29.29,SSE,168,6.2,8.3,15,-99.99,,,0.00,0,rob ver 1B,2013-08-13 04:28:00,
2013-08-12 21:29:00,94.2,39.9,29.29,SSE,166,5.6,7.2,15,-99.99,,,0.00,0,rob ver 1B,2013-08-13 04:29:00,
2013-08-12 21:30:00,92.0,32.2,29.26,SSE,157,5.6,6.8,12,-99.99,,,0.00,0,rob ver 1A,2013-08-13 04:30:00,
2013-08-12 21:31:00,94.0,39.8,29.29,South,173,5.5,6.7,15,-99.99,,,0.00,0,rob ver 1B,2013-08-13 04:31:00,
2013-08-12 21:32:00,94.0,39.8,29.29,South,180,5.5,7.1,15,-99.99,,,0.00,0,rob ver 1B,2013-08-13 04:32:00,
2013-08-12 21:33:00,93.9,39.9,29.29,South,184,5.7,7.2,15,-99.99,,,0.00,0,rob ver 1B,2013-08-13 04:33:00,
2013-08-12 21:34:00,93.8,40.2,29.29,South,191,6.1,7.7,15,-99.99,,,0.00,0,rob ver 1B,2013-08-13 04:34:00,
2013-08-12 21:35:00,91.8,31.1,29.26,South,170,7.5,8.9,11,-99.99,,,0.00,0,rob ver 1A,2013-08-13 04:35:00,
2013-08-12 21:36:00,93.6,41.5,29.29,SSW,193,7.1,8.5,16,-99.99,,,0.00,0,rob ver 1B,2013-08-13 04:36:00,
2013-08-12 21:37:00,93.5,42.1,29.29,SSW,199,6.7,8.1,17,-99.99,,,0.00,0,rob ver 1B,2013-08-13 04:37:00,
2013-08-12 21:38:00,93.5,42.6,29.29,SSW,200,6.1,7.7,17,-99.99,,,0.00,0,rob ver 1B,2013-08-13 04:38:00,
2013-08-12 21:39:00,93.4,43.8,29.29,SSW,200,6.5,8.6,18,-99.99,,,0.00,0,rob ver 1B,2013-08-13 04:39:00,
2013-08-12 21:40:00,92.5,30.9,29.29,South,176,8.6,10.2,11,-99.99,,,0.00,0,rob ver 1A,2013-08-13 04:40:00,
2013-08-12 21:41:00,93.2,45.6,29.29,SSW,200,6.1,8.0,19,-99.99,,,0.00,0,rob ver 1B,2013-08-13 04:41:00,
2013-08-12 21:42:00,93.0,46.1,29.29,SSW,198,6.1,7.3,20,-99.99,,,0.00,0,rob ver 1B,2013-08-13 04:42:00,
2013-08-12 21:43:00,92.9,46.3,29.29,SSW,204,5.7,6.8,20,-99.99,,,0.00,0,rob ver 1B,2013-08-13 04:43:00,
2013-08-12 21:44:00,92.8,46.5,29.29,SSW,205,6.0,7.3,20,-99.99,,,0.00,0,rob ver 1B,2013-08-13 04:44:00,
2013-08-12 21:45:00,92.7,46.7,29.29,SSW,204,6.3,8.4,20,-99.99,,,0.00,0,rob ver 1B,2013-08-13 04:45:00,
2013-08-12 21:46:00,92.4,30.9,29.29,South,178,8.4,10.1,11,-99.99,,,0.00,0,rob ver 1A,2013-08-13 04:46:00,
2013-08-12 21:47:00,92.6,46.9,29.29,SSW,198,6.2,7.7,20,-99.99,,,0.00,0,rob ver 1B,2013-08-13 04:47:00,
2013-08-12 21:48:00,92.5,46.9,29.29,SSW,198,5.1,6.6,20,-99.99,,,0.00,0,rob ver 1B,2013-08-13 04:48:00,
2013-08-12 21:49:00,92.4,46.9,29.29,SSW,199,6.7,8.4,21,-99.99,,,0.00,0,rob ver 1B,2013-08-13 04:49:00,
2013-08-12 21:50:00,92.3,46.8,29.29,SSW,197,5.9,7.7,20,-99.99,,,0.00,0,rob ver 1B,2013-08-13 04:50:00,
2013-08-12 21:51:00,91.7,30.9,29.29,South,180,8.5,10.4,11,-99.99,,,0.00,0,rob ver 1A,2013-08-13 04:51:00,
2013-08-12 21:52:00,92.2,46.9,29.29,SSW,194,5.9,7.7,21,-99.99,,,0.00,0,rob ver 1B,2013-08-13 04:52:00,
2013-08-12 21:53:00,92.1,46.9,29.29,SSW,193,5.7,7.5,21,-99.99,,,0.00,0,rob ver 1B,2013-08-13 04:53:00,
2013-08-12 21:54:00,92.1,46.9,29.29,SSW,193,6.5,8.9,21,-99.99,,,0.00,0,rob ver 1B,2013-08-13 04:54:00,
2013-08-12 21:55:00,92.0,47.0,29.29,SSW,193,5.7,7.2,21,-99.99,,,0.00,0,rob ver 1B,2013-08-13 04:55:00,
2013-08-12 21:56:00,91.5,30.9,29.29,South,182,8.7,11.3,11,-99.99,,,0.00,0,rob ver 1A,2013-08-13 04:56:00,
2013-08-12 21:57:00,91.9,47.2,29.29,SSW,194,7.2,8.7,21,-99.99,,,0.00,0,rob ver 1B,2013-08-13 04:57:00,
2013-08-12 21:58:00,91.9,47.2,29.29,SSW,195,6.1,8.1,21,-99.99,,,0.00,0,rob ver 1B,2013-08-13 04:58:00,
2013-08-12 21:59:00,91.8,47.2,29.29,SSW,193,6.3,7.8,21,-99.99,,,0.00,0,rob ver 1B,2013-08-13 04:59:00,
2013-08-12 22:00:00,91.8,47.2,29.29,SSW,192,6.9,8.0,21,-99.99,,,0.00,0,rob ver 1B,2013-08-13 05:00:00,
2013-08-12 22:01:00,91.4,30.7,29.29,South,183,9.2,10.8,11,-99.99,,,0.00,0,rob ver 1A,2013-08-13 05:01:00,
2013-08-12 22:02:00,91.7,47.2,29.29,SSW,196,6.7,8.4,21,-99.99,,,0.00,0,rob ver 1B,2013-08-13 05:02:00,
2013-08-12 22:03:00,91.7,47.2,29.29,SSW,193,6.2,8.3,21,-99.99,,,0.00,0,rob ver 1B,2013-08-13 05:03:00,
2013-08-12 22:04:00,91.6,47.3,29.29,SSW,193,6.9,8.9,21,-99.99,,,0.00,0,rob ver 1B,2013-08-13 05:04:00,
2013-08-12 22:05:00,91.6,47.4,29.29,SSW,194,7.6,9.4,21,-99.99,,,0.00,0,rob ver 1B,2013-08-13 05:05:00,
2013-08-12 22:06:00,91.3,30.9,29.29,South,191,9.5,13.1,11,-99.99,,,0.00,0,rob ver 1A,2013-08-13 05:06:00,
2013-08-12 22:07:00,91.4,47.4,29.29,SSW,198,7.0,8.5,22,-99.99,,,0.00,0,rob ver 1B,2013-08-13 05:07:00,
2013-08-12 22:08:00,91.4,47.4,29.29,SSW,201,7.0,8.3,22,-99.99,,,0.00,0,rob ver 1B,2013-08-13 05:08:00,
2013-08-12 22:09:00,91.3,47.4,29.29,SSW,200,6.8,8.6,22,-99.99,,,0.00,0,rob ver 1B,2013-08-13 05:09:00,
2013-08-12 22:10:00,91.3,47.5,29.29,SSW,200,7.7,10.5,22,-99.99,,,0.00,0,rob ver 1B,2013-08-13 05:10:00,
2013-08-12 22:11:00,91.1,31.3,29.29,SSW,198,9.1,10.7,11,-99.99,,,0.00,0,rob ver 1A,2013-08-13 05:11:00,
2013-08-12 22:12:00,91.2,47.6,29.29,SSW,199,7.4,9.3,22,-99.99,,,0.00,0,rob ver 1B,2013-08-13 05:12:00,
2013-08-12 22:13:00,91.2,47.7,29.29,SSW,200,7.3,9.2,22,-99.99,,,0.00,0,rob ver 1B,2013-08-13 05:13:00,
2013-08-12 22:14:00,91.1,47.8,29.29,SSW,201,7.2,8.5,22,-99.99,,,0.00,0,rob ver 1B,2013-08-13 05:14:00,
2013-08-12 22:15:00,91.1,47.8,29.29,SSW,201,7.8,9.2,22,-99.99,,,0.00,0,rob ver 1B,2013-08-13 05:15:00,
2013-08-12 22:16:00,90.6,31.9,29.29,SSW,194,9.7,12.4,12,-99.99,,,0.00,0,rob ver 1A,2013-08-13 05:16:00,
2013-08-12 22:17:00,91.0,47.9,29.29,SSW,204,7.9,9.7,22,-99.99,,,0.00,0,rob ver 1B,2013-08-13 05:17:00,
2013-08-12 22:18:00,91.1,47.8,29.29,SSW,201,8.4,10.0,22,-99.99,,,0.00,0,rob ver 1B,2013-08-13 05:18:00,
2013-08-12 22:19:00,91.1,47.8,29.29,SSW,202,8.4,10.2,22,-99.99,,,0.00,0,rob ver 1B,2013-08-13 05:19:00,
2013-08-12 22:20:00,91.0,47.9,29.29,SSW,201,7.9,9.7,22,-99.99,,,0.00,0,rob ver 1B,2013-08-13 05:20:00,
2013-08-12 22:21:00,90.6,32.3,29.29,SSW,196,8.4,10.4,12,-99.99,,,0.00,0,rob ver 1A,2013-08-13 05:21:00,
2013-08-12 22:22:00,90.9,48.0,29.29,SSW,207,7.0,9.3,23,-99.99,,,0.00,0,rob ver 1B,2013-08-13 05:22:00,
2013-08-12 22:23:00,90.9,48.2,29.29,SSW,210,7.1,9.1,23,-99.99,,,0.00,0,rob ver 1B,2013-08-13 05:23:00,
2013-08-12 22:24:00,90.8,48.5,29.29,SSW,210,7.6,9.0,23,-99.99,,,0.00,0,rob ver 1B,2013-08-13 05:24:00,
2013-08-12 22:25:00,90.7,48.6,29.29,SSW,209,7.4,8.9,23,-99.99,,,0.00,0,rob ver 1B,2013-08-13 05:25:00,
2013-08-12 22:26:00,90.3,32.9,29.29,SSW,194,9.4,10.9,13,-99.99,,,0.00,0,rob ver 1A,2013-08-13 05:26:00,
2013-08-12 22:27:00,90.6,48.8,29.29,SSW,208,8.7,10.7,24,-99.99,,,0.00,0,rob ver 1B,2013-08-13 05:27:00,
2013-08-12 22:28:00,90.5,48.9,29.29,SSW,208,7.8,9.3,24,-99.99,,,0.00,0,rob ver 1B,2013-08-13 05:28:00,
2013-08-12 22:29:00,90.4,48.9,29.29,SSW,209,7.7,8.9,24,-99.99,,,0.00,0,rob ver 1B,2013-08-13 05:29:00,
2013-08-12 22:30:00,90.4,48.9,29.29,SSW,206,7.3,8.6,24,-99.99,,,0.00,0,rob ver 1B,2013-08-13 05:30:00,
2013-08-12 22:31:00,90.1,32.7,29.29,SSW,193,8.2,10.6,13,-99.99,,,0.00,0,rob ver 1A,2013-08-13 05:31:00,
2013-08-12 22:32:00,90.2,48.9,29.29,SSW,209,6.9,8.9,24,-99.99,,,0.00,0,rob ver 1B,2013-08-13 05:32:00,
2013-08-12 22:33:00,90.1,49.0,29.29,SSW,208,7.4,8.7,24,-99.99,,,0.00,0,rob ver 1B,2013-08-13 05:33:00,
2013-08-12 22:34:00,90.1,49.0,29.29,SSW,208,6.8,8.8,24,-99.99,,,0.00,0,rob ver 1B,2013-08-13 05:34:00,
2013-08-12 22:35:00,90.0,49.1,29.29,SSW,208,7.1,8.7,24,-99.99,,,0.00,0,rob ver 1B,2013-08-13 05:35:00,
2013-08-12 22:36:00,89.9,49.1,29.29,SSW,209,7.0,9.0,24,-99.99,,,0.00,0,rob ver 1B,2013-08-13 05:36:00,
2013-08-12 22:37:00,89.8,32.6,29.29,SSW,193,7.8,9.6,13,-99.99,,,0.00,0,rob ver 1A,2013-08-13 05:37:00,
2013-08-12 22:38:00,89.8,49.2,29.29,SSW,210,7.5,8.6,24,-99.99,,,0.00,0,rob ver 1B,2013-08-13 05:38:00,
2013-08-12 22:39:00,89.7,49.2,29.29,SSW,212,7.1,8.9,25,-99.99,,,0.00,0,rob ver 1B,2013-08-13 05:39:00,
2013-08-12 22:40:00,89.6,49.2,29.29,SSW,210,7.0,8.5,25,-99.99,,,0.00,0,rob ver 1B,2013-08-13 05:40:00,
2013-08-12 22:41:00,89.5,49.3,29.29,SSW,209,7.2,9.7,25,-99.99,,,0.00,0,rob ver 1B,2013-08-13 05:41:00,
2013-08-12 22:42:00,89.6,33.1,29.29,SSW,194,9.1,11.9,13,-99.99,,,0.00,0,rob ver 1A,2013-08-13 05:42:00,
2013-08-12 22:43:00,89.4,49.4,29.29,SSW,211,6.8,8.3,25,-99.99,,,0.00,0,rob ver 1B,2013-08-13 05:43:00,
2013-08-12 22:44:00,89.3,49.4,29.29,SSW,213,7.0,8.7,25,-99.99,,,0.00,0,rob ver 1B,2013-08-13 05:44:00,
2013-08-12 22:45:00,89.3,49.5,29.29,SSW,213,7.8,9.4,25,-99.99,,,0.00,0,rob ver 1B,2013-08-13 05:45:00,
2013-08-12 22:46:00,89.3,49.5,29.29,SSW,209,7.4,9.6,25,-99.99,,,0.00,0,rob ver 1B,2013-08-13 05:46:00,
2013-08-12 22:47:00,89.2,33.6,29.29,SSW,196,9.3,11.2,13,-99.99,,,0.00,0,rob ver 1A,2013-08-13 05:47:00,
2013-08-12 22:48:00,89.2,49.6,29.29,SSW,206,8.2,10.2,25,-99.99,,,0.00,0,rob ver 1B,2013-08-13 05:48:00,
2013-08-12 22:49:00,89.1,49.6,29.29,SSW,206,7.7,9.0,25,-99.99,,,0.00,0,rob ver 1B,2013-08-13 05:49:00,
2013-08-12 22:50:00,89.1,49.7,29.29,SSW,205,7.8,9.8,25,-99.99,,,0.00,0,rob ver 1B,2013-08-13 05:50:00,
2013-08-12 22:51:00,89.0,49.7,29.29,SSW,207,7.9,9.4,26,-99.99,,,0.00,0,rob ver 1B,2013-08-13 05:51:00,
2013-08-12 22:52:00,88.7,33.9,29.29,SSW,197,8.7,10.9,14,-99.99,,,0.00,0,rob ver 1A,2013-08-13 05:52:00,
2013-08-12 22:53:00,89.0,49.7,29.29,SSW,208,6.6,9.1,26,-99.99,,,0.00,0,rob ver 1B,2013-08-13 05:53:00,
2013-08-12 22:54:00,88.9,49.8,29.29,SSW,209,6.4,7.4,26,-99.99,,,0.00,0,rob ver 1B,2013-08-13 05:54:00,
2013-08-12 22:55:00,88.9,49.8,29.29,SSW,205,6.2,7.3,26,-99.99,,,0.00,0,rob ver 1B,2013-08-13 05:55:00,
2013-08-12 22:56:00,88.8,49.8,29.29,SSW,204,6.2,7.4,26,-99.99,,,0.00,0,rob ver 1B,2013-08-13 05:56:00,
2013-08-12 22:57:00,87.9,34.4,29.29,SSW,197,8.9,10.6,14,-99.99,,,0.00,0,rob ver 1A,2013-08-13 05:57:00,
2013-08-12 22:58:00,88.7,49.7,29.29,SSW,203,5.0,6.0,26,-99.99,,,0.00,0,rob ver 1B,2013-08-13 05:58:00,
2013-08-12 22:59:00,88.6,49.7,29.29,SSW,203,5.6,7.7,26,-99.99,,,0.00,0,rob ver 1B,2013-08-13 05:59:00,
2013-08-12 23:00:00,88.6,49.7,29.29,SSW,198,5.5,7.0,26,-99.99,,,0.00,0,rob ver 1B,2013-08-13 06:00:00,
2013-08-12 23:01:00,88.5,49.7,29.29,SSW,200,5.2,6.3,26,-99.99,,,0.00,0,rob ver 1B,2013-08-13 06:01:00,
2013-08-12 23:02:00,87.5,34.5,29.29,SSW,198,8.5,10.3,15,-99.99,,,0.00,0,rob ver 1A,2013-08-13 06:02:00,
2013-08-12 23:03:00,88.4,49.6,29.29,SSW,195,5.2,7.1,26,-99.99,,,0.00,0,rob ver 1B,2013-08-13 06:03:00,
2013-08-12 23:04:00,88.4,49.6,29.29,SSW,199,5.2,7.1,26,-99.99,,,0.00,0,rob ver 1B,2013-08-13 06:04:00,
2013-08-12 23:05:00,88.3,49.6,29.29,SSW,193,4.8,6.2,26,-99.99,,,0.00,0,rob ver 1B,2013-08-13 06:05:00,
2013-08-12 23:06:00,88.3,49.6,29.29,South,191,5.1,6.3,26,-99.99,,,0.00,0,rob ver 1B,2013-08-13 06:06:00,
2013-08-12 23:07:00,87.3,34.2,29.29,SSW,202,8.5,9.9,15,-99.99,,,0.00,0,rob ver 1A,2013-08-13 06:07:00,
2013-08-12 23:08:00,88.3,49.5,29.29,South,185,4.9,6.0,26,-99.99,,,0.00,0,rob ver 1B,2013-08-13 06:08:00,
2013-08-12 23:09:00,88.2,49.4,29.29,South,182,4.6,5.8,26,-99.99,,,0.00,0,rob ver 1B,2013-08-13 06:09:00,
2013-08-12 23:10:00,88.2,49.5,29.29,South,186,4.2,5.6,26,-99.99,,,0.00,0,rob ver 1B,2013-08-13 06:10:00,
2013-08-12 23:11:00,88.2,49.5,29.29,South,187,4.5,6.0,26,-99.99,,,0.00,0,rob ver 1B,2013-08-13 06:11:00,
2013-08-12 23:12:00,87.3,34.1,29.29,SSW,209,9.6,12.2,15,-99.99,,,0.00,0,rob ver 1A,2013-08-13 06:12:00,
2013-08-12 23:13:00,88.1,49.5,29.29,South,180,4.3,5.0,26,-99.99,,,0.00,0,rob ver 1B,2013-08-13 06:13:00,
2013-08-12 23:14:00,88.1,49.5,29.29,South,173,3.7,4.5,26,-99.99,,,0.00,0,rob ver 1B,2013-08-13 06:14:00,
2013-08-12 23:15:00,88.0,49.4,29.29,South,177,3.3,4.2,26,-99.99,,,0.00,0,rob ver 1B,2013-08-13 06:15:00,
2013-08-12 23:16:00,88.0,49.4,29.29,South,180,3.4,4.4,26,-99.99,,,0.00,0,rob ver 1B,2013-08-13 06:16:00,
2013-08-12 23:17:00,87.0,34.4,29.29,SSW,205,9.0,10.7,15,-99.99,,,0.00,0,rob ver 1A,2013-08-13 06:17:00,
2013-08-12 23:18:00,87.8,49.4,29.29,South,187,3.4,4.9,26,-99.99,,,0.00,0,rob ver 1B,2013-08-13 06:18:00,
2013-08-12 23:19:00,87.8,49.3,29.29,South,191,3.0,4.4,26,-99.99,,,0.00,0,rob ver 1B,2013-08-13 06:19:00,
2013-08-12 23:20:00,87.7,49.4,29.29,South,190,3.6,4.8,26,-99.99,,,0.00,0,rob ver 1B,2013-08-13 06:20:00,
2013-08-12 23:21:00,87.7,49.4,29.29,SSW,196,3.1,4.0,26,-99.99,,,0.00,0,rob ver 1B,2013-08-13 06:21:00,
2013-08-12 23:22:00,86.6,35.2,29.29,SSW,201,7.5,9.4,16,-99.99,,,0.00,0,rob ver 1A,2013-08-13 06:22:00,
2013-08-12 23:23:00,87.7,49.3,29.29,SSW,200,3.1,4.0,26,-99.99,,,0.00,0,rob ver 1B,2013-08-13 06:23:00,
2013-08-12 23:24:00,87.6,49.3,29.29,SSW,204,3.4,4.6,26,-99.99,,,0.00,0,rob ver 1B,2013-08-13 06:24:00,
2013-08-12 23:25:00,87.6,49.3,29.29,SSW,208,3.0,4.4,26,-99.99,,,0.00,0,rob ver 1B,2013-08-13 06:25:00,
2013-08-12 23:26:00,87.5,49.3,29.29,SSW,201,3.3,4.0,26,-99.99,,,0.00,0,rob ver 1B,2013-08-13 06:26:00,
2013-08-12 23:27:00,86.3,35.3,29.29,SSW,197,6.6,8.2,16,-99.99,,,0.00,0,rob ver 1A,2013-08-13 06:27:00,
2013-08-12 23:28:00,87.4,49.3,29.29,SSW,199,3.3,4.6,26,-99.99,,,0.00,0,rob ver 1B,2013-08-13 06:28:00,
2013-08-12 23:29:00,87.4,49.3,29.29,SSW,196,2.3,3.2,26,-99.99,,,0.00,0,rob ver 1B,2013-08-13 06:29:00,
2013-08-12 23:30:00,87.4,49.4,29.29,SSW,200,3.7,4.6,27,-99.99,,,0.00,0,rob ver 1B,2013-08-13 06:30:00,
2013-08-12 23:31:00,87.4,49.3,29.29,SSW,204,3.6,4.6,26,-99.99,,,0.00,0,rob ver 1B,2013-08-13 06:31:00,
2013-08-12 23:32:00,86.2,35.2,29.29,South,175,6.0,8.0,16,-99.99,,,0.00,0,rob ver 1A,2013-08-13 06:32:00,
2013-08-12 23:33:00,87.3,49.3,29.29,SSW,205,3.9,5.3,26,-99.99,,,0.00,0,rob ver 1B,2013-08-13 06:33:00,
2013-08-12 23:34:00,87.4,49.4,29.29,SSW,205,4.5,6.0,27,-99.99,,,0.00,0,rob ver 1B,2013-08-13 06:34:00,
2013-08-12 23:35:00,87.4,49.4,29.29,SSW,199,3.6,5.0,27,-99.99,,,0.00,0,rob ver 1B,2013-08-13 06:35:00,
2013-08-12 23:36:00,87.3,49.4,29.32,SSW,203,3.3,4.4,27,-99.99,,,0.00,0,rob ver 1B,2013-08-13 06:36:00,
2013-08-12 23:37:00,87.3,49.5,29.32,SSW,210,4.1,5.0,27,-99.99,,,0.00,0,rob ver 1B,2013-08-13 06:37:00,
2013-08-12 23:38:00,85.9,35.5,29.29,South,183,6.2,7.6,16,-99.99,,,0.00,0,rob ver 1A,2013-08-13 06:38:00,
2013-08-12 23:39:00,87.2,49.5,29.29,SSW,209,2.6,3.8,27,-99.99,,,0.00,0,rob ver 1B,2013-08-13 06:39:00,
2013-08-12 23:40:00,87.1,49.4,29.32,SSW,211,2.4,3.1,27,-99.99,,,0.00,0,rob ver 1B,2013-08-13 06:40:00,
2013-08-12 23:41:00,87.0,49.4,29.32,SSW,206,2.3,3.3,27,-99.99,,,0.00,0,rob ver 1B,2013-08-13 06:41:00,
2013-08-12 23:42:00,87.0,49.4,29.32,SSW,199,2.5,4.2,27,-99.99,,,0.00,0,rob ver 1B,2013-08-13 06:42:00,
2013-08-12 23:43:00,85.8,35.8,29.29,SSW,194,6.8,9.1,16,-99.99,,,0.00,0,rob ver 1A,2013-08-13 06:43:00,
2013-08-12 23:44:00,86.9,49.3,29.29,SW,218,2.7,4.2,27,-99.99,,,0.00,0,rob ver 1B,2013-08-13 06:44:00,
2013-08-12 23:45:00,86.8,49.3,29.32,SW,220,2.6,3.5,27,-99.99,,,0.00,0,rob ver 1B,2013-08-13 06:45:00,
2013-08-12 23:46:00,86.8,49.2,29.32,SW,222,2.4,3.7,27,-99.99,,,0.00,0,rob ver 1B,2013-08-13 06:46:00,
2013-08-12 23:47:00,86.8,49.2,29.29,WSW,242,1.1,1.5,27,-99.99,,,0.00,0,rob ver 1B,2013-08-13 06:47:00,
2013-08-12 23:48:00,85.7,36.0,29.29,SSW,198,8.3,10.5,17,-99.99,,,0.00,0,rob ver 1A,2013-08-13 06:48:00,
2013-08-12 23:49:00,86.7,49.3,29.32,NW,318,0.9,1.5,27,-99.99,,,0.00,0,rob ver 1B,2013-08-13 06:49:00,
2013-08-12 23:50:00,86.6,49.3,29.32,West,271,0.6,1.6,27,-99.99,,,0.00,0,rob ver 1B,2013-08-13 06:50:00,
2013-08-12 23:51:00,86.6,49.3,29.29,NNE,24,1.9,2.8,27,-99.99,,,0.00,0,rob ver 1B,2013-08-13 06:51:00,
2013-08-12 23:52:00,86.6,49.2,29.29,ENE,75,1.2,2.0,27,-99.99,,,0.00,0,rob ver 1B,2013-08-13 06:52:00,
2013-08-12 23:53:00,85.5,36.2,29.29,SSW,200,7.7,10.0,17,-99.99,,,0.00,0,rob ver 1A,2013-08-13 06:53:00,
2013-08-12 23:54:00,86.5,49.2,29.32,North,359,1.0,2.1,27,-99.99,,,0.00,0,rob ver 1B,2013-08-13 06:54:00,
2013-08-12 23:55:00,86.5,49.1,29.29,NNE,31,0.5,1.4,27,-99.99,,,0.00,0,rob ver 1B,2013-08-13 06:55:00,
2013-08-12 23:56:00,86.4,49.0,29.29,West,260,0.7,1.2,27,-99.99,,,0.00,0,rob ver 1B,2013-08-13 06:56:00,
2013-08-12 23:57:00,86.4,49.1,29.29,NNW,328,1.0,1.3,27,-99.99,,,0.00,0,rob ver 1B,2013-08-13 06:57:00,
2013-08-12 23:58:00,85.2,36.0,29.29,SSW,199,7.6,9.5,17,-99.99,,,0.00,0,rob ver 1A,2013-08-13 06:58:00,
2013-08-12 23:59:00,86.4,49.1,29.29,NW,305,0.6,0.8,27,-99.99,,,0.00,0,rob ver 1B,2013-08-13 06:59:00,